GFSGBSN_500_spd_000.txt.gz
Wind_Speed
46 44 42 45 46 47 43 41 43 41 39 32 32 26 25 25 27 22 18 16 14 14 14 15 19 18 9 14 14 16 15 13 14 18 24 27 36 33 31 31 22 23 17 15 6 2 2
47 43 42 43 46 47 44 42 42 40 37 29 28 24 25 25 20 23 20 18 16 14 15 12 14 12 7 14 13 15 14 11 15 22 28 32 30 28 26 24 21 16 11 8 5 7 4
48 45 42 42 45 47 45 43 41 39 34 30 26 23 22 23 21 22 18 17 16 14 13 14 8 6 5 11 13 14 13 17 19 23 32 30 26 26 24 23 18 19 12 10 6 9 9
49 49 44 43 44 45 45 44 39 38 32 33 26 23 23 22 22 19 19 20 15 12 13 13 10 9 13 12 13 14 21 24 22 32 31 29 24 21 17 17 7 9 7 4 9 11 14
50 47 44 44 43 43 44 44 37 37 30 31 23 23 18 22 17 15 17 17 13 11 11 11 9 6 11 13 15 20 27 25 32 29 23 23 17 21 11 6 9 13 14 9 11 15 14
54 49 45 44 43 42 44 43 35 34 29 28 20 21 21 19 17 15 15 13 10 9 10 9 10 13 15 19 16 25 27 28 34 32 27 15 18 16 16 12 13 11 17 12 11 13 13
57 52 46 44 42 43 43 41 34 30 28 23 20 20 19 15 14 14 15 13 12 12 12 11 16 19 18 20 21 22 32 35 34 30 23 21 17 15 10 13 13 22 17 15 13 16 16
60 54 50 45 43 42 42 38 28 26 25 20 21 16 17 14 14 14 15 13 13 14 16 16 16 16 15 17 21 25 30 35 34 27 21 15 23 16 16 20 22 24 20 15 18 15 11
66 59 54 48 44 44 41 36 28 22 22 19 17 16 17 15 18 15 11 13 14 16 20 21 19 18 17 16 18 19 25 36 33 30 27 16 22 24 27 25 20 19 22 17 11 7 7
70 63 57 51 47 46 42 33 27 20 22 17 17 20 15 15 15 13 14 18 19 20 20 20 19 18 18 18 19 20 22 34 31 29 26 16 22 25 26 23 22 21 19 18 13 14 12
72 65 60 54 50 48 43 31 25 21 22 16 16 23 14 13 15 17 21 22 22 23 21 21 20 19 19 20 20 21 22 23 27 23 20 16 20 23 22 21 20 19 17 13 15 16 18
74 67 62 56 52 49 43 29 24 23 21 15 18 21 16 18 18 23 25 26 25 24 19 20 20 19 19 19 19 18 18 19 17 16 17 18 16 19 23 18 15 14 15 15 16 18 21
75 69 65 60 54 48 42 32 25 26 20 15 24 22 22 22 27 27 27 27 26 24 21 20 19 18 17 14 13 13 12 13 14 15 15 17 15 17 18 17 17 17 16 17 19 20 21
75 71 65 61 54 48 41 31 29 28 21 18 28 27 29 29 29 28 26 25 23 19 20 20 18 16 15 14 12 11 12 14 14 14 16 17 17 17 18 18 17 16 16 18 19 20 20
71 74 69 62 54 47 42 33 33 30 25 23 32 34 34 33 30 28 27 24 23 21 21 19 17 15 12 12 11 11 11 12 13 15 17 16 13 13 14 15 15 14 14 12 12 14 16
79 80 72 64 55 49 42 36 37 32 27 30 37 38 39 34 32 30 27 25 24 23 20 17 14 12 12 12 13 13 13 13 13 13 15 15 13 11 12 12 11 11 8 8 7 8 6
82 79 73 64 58 51 44 41 40 35 29 38 42 43 41 37 34 32 29 28 22 20 15 13 11 12 14 16 17 17 16 14 14 14 17 15 15 14 12 11 11 9 7 5 4 3 3
79 77 71 65 60 52 47 43 41 39 32 43 46 46 43 39 38 35 33 30 23 19 16 10 7 8 11 11 12 14 15 15 14 16 16 15 17 15 14 13 10 8 7 7 7 8 8
81 78 70 64 57 53 49 45 43 40 36 45 49 49 45 41 39 37 36 33 23 18 13 6 5 6 9 10 13 15 16 16 17 18 18 17 18 19 16 14 12 9 7 8 9 10 10
78 72 64 60 56 52 48 46 45 40 42 48 54 52 48 43 40 39 37 32 25 20 13 7 5 5 9 12 15 16 16 18 19 19 18 19 18 17 15 16 16 13 12 14 15 16 16
71 65 61 55 50 49 47 45 45 41 45 50 56 52 47 43 42 41 38 32 26 20 14 8 4 4 6 9 13 16 17 19 20 19 19 20 19 19 18 18 18 18 18 19 20 21 21
68 63 57 52 47 46 44 43 45 41 47 52 57 51 47 43 41 41 39 34 27 21 15 8 5 6 5 7 10 14 17 20 21 20 21 22 21 22 21 21 21 22 22 23 24 26 27
65 60 54 48 47 45 42 44 44 42 49 53 58 53 47 45 44 44 39 32 27 23 18 13 9 9 8 7 9 13 17 20 22 23 24 24 25 25 27 26 28 27 23 28 29 30 32
61 54 48 45 44 43 42 43 43 41 50 53 57 54 49 47 46 42 38 34 32 28 22 18 14 12 12 11 11 14 16 19 22 23 24 25 28 31 32 31 35 27 29 32 35 36 34
55 49 43 41 38 41 39 41 41 41 52 55 56 55 51 48 45 44 40 35 33 29 25 21 19 18 16 15 14 15 17 18 19 22 25 28 30 33 36 37 39 37 34 37 40 40 37
49 45 40 38 37 38 39 38 38 42 52 57 56 54 52 48 45 43 41 36 35 32 28 25 25 22 21 19 18 17 17 19 22 23 23 26 30 34 37 40 43 41 40 42 45 46 43
44 40 38 35 36 36 35 35 37 42 52 57 54 52 51 49 47 45 42 36 36 34 32 30 29 27 25 24 23 22 21 20 21 23 26 29 31 35 38 42 46 44 45 45 48 48 51
40 37 31 31 34 33 34 34 36 42 50 55 51 52 50 48 47 45 42 39 38 36 35 34 33 31 30 29 29 28 28 26 25 25 26 30 34 36 39 43 46 44 47 48 49 50 50
38 34 31 32 31 31 32 29 34 40 43 46 50 51 50 48 47 45 42 40 39 39 38 38 36 33 34 34 34 33 33 31 31 33 33 35 35 39 41 42 45 48 49 50 49 49 48

GFSGBSN_500_spd_003.txt.gz
Wind_Speed
49 46 42 42 42 42 39 37 40 42 39 38 38 35 38 30 24 24 27 20 20 16 12 12 16 14 15 9 12 11 13 16 11 13 15 17 22 25 27 26 23 20 16 12 8 7 9
51 50 47 43 42 43 39 39 40 41 40 39 37 34 36 30 23 24 22 23 23 17 15 11 12 9 9 7 11 11 12 5 7 17 23 32 31 32 30 27 21 16 7 11 7 7 5
53 51 48 46 44 43 41 40 40 40 40 38 33 34 34 27 24 24 23 25 19 18 16 13 9 7 7 7 12 11 8 11 20 21 29 30 34 30 29 25 20 17 11 7 6 7 6
54 49 46 44 44 42 43 41 40 39 39 37 31 35 32 24 22 22 26 23 19 18 15 9 12 13 13 12 14 13 11 19 22 33 28 23 21 27 23 27 21 14 9 9 9 10 12
56 52 48 47 45 41 41 40 40 39 37 34 31 34 26 21 20 22 24 17 19 16 14 11 13 15 8 16 14 12 16 24 27 32 29 21 18 14 12 12 7 5 11 9 8 12 13
61 56 53 49 47 41 41 41 40 39 34 32 30 30 22 19 18 22 18 15 16 14 11 10 12 12 15 18 14 13 17 29 26 30 29 26 19 16 10 9 6 9 8 8 7 13 12
66 61 55 50 49 45 42 40 39 38 33 29 27 25 20 18 20 19 15 14 14 12 13 11 13 12 17 21 22 16 19 31 28 30 16 15 12 18 11 6 11 9 11 15 13 12 12
73 66 57 51 48 44 44 40 38 36 33 26 23 21 18 18 18 16 13 13 14 16 17 15 11 15 15 19 23 20 23 26 29 25 20 18 14 13 12 12 12 13 18 9 13 10 9
70 63 58 51 49 46 43 40 38 34 33 23 21 18 15 16 16 14 13 14 18 17 16 16 15 15 15 17 16 21 27 27 30 28 23 17 16 14 13 17 13 23 18 12 8 5 8
72 62 58 54 51 49 46 40 38 35 32 21 20 16 16 14 16 19 16 16 15 16 17 16 17 17 16 16 16 19 24 32 33 29 24 19 14 21 18 19 20 24 20 18 13 11 11
69 67 60 57 53 52 49 42 39 36 30 20 20 16 16 15 16 17 15 15 17 18 20 20 19 18 17 17 17 21 23 33 32 29 26 23 22 18 17 20 24 19 17 17 22 20 17
72 65 63 60 58 56 52 45 42 36 28 21 19 17 13 15 17 16 17 21 22 22 17 18 18 17 18 18 19 18 19 20 32 27 29 24 18 14 20 23 18 18 19 17 17 19 17
75 68 66 66 64 61 55 50 44 36 28 24 19 18 20 19 19 19 24 25 24 23 21 19 18 18 17 16 16 17 18 20 22 25 23 19 18 15 18 22 20 20 18 16 18 18 16
80 75 69 69 68 65 57 53 45 37 29 28 22 22 25 23 23 25 27 27 26 21 20 19 18 16 16 15 14 14 14 14 16 18 18 18 20 19 17 19 20 20 19 18 19 19 18
80 74 75 72 71 67 61 55 46 37 32 30 25 30 29 28 29 31 30 28 26 21 19 18 17 15 13 13 12 13 13 13 14 14 16 16 16 15 15 18 20 19 19 17 18 15 13
79 75 73 73 74 70 64 57 48 40 37 32 28 34 33 34 35 33 30 28 24 20 19 19 15 13 12 11 11 11 12 13 13 14 14 14 16 15 15 17 17 16 13 12 10 8 6
77 73 66 68 77 74 67 59 50 45 42 37 36 39 39 40 39 34 30 26 24 20 19 16 14 13 13 14 15 15 14 14 15 15 15 16 17 16 15 14 13 12 10 9 7 5 4
74 74 65 81 82 76 70 60 54 49 45 41 41 42 44 44 40 35 31 28 25 22 19 15 12 12 14 16 17 18 18 17 16 16 17 17 17 17 16 15 12 10 9 8 7 8 9
88 86 80 80 80 77 69 63 57 51 45 42 44 47 48 47 41 36 33 31 26 24 20 13 9 9 10 10 14 15 16 16 15 15 16 16 17 18 16 15 13 12 11 10 9 10 10
96 90 85 84 81 75 68 63 57 53 49 45 48 51 52 49 42 39 36 34 28 23 19 12 5 3 6 8 12 14 16 17 16 17 18 18 16 17 17 17 18 16 16 14 13 13 15
75 78 83 87 80 74 66 61 57 53 52 47 52 55 52 47 43 41 39 37 31 22 17 10 3 1 3 6 10 13 16 16 17 18 18 18 17 18 21 22 21 20 20 19 18 20 21
71 87 89 80 78 70 64 59 55 55 54 48 54 56 54 49 44 42 42 40 35 26 19 12 5 2 3 4 7 11 14 15 17 19 19 19 19 22 23 23 24 24 22 22 24 25 27
82 89 79 73 71 65 59 56 54 55 53 49 55 55 55 50 47 45 42 38 33 27 20 15 8 4 4 5 4 6 10 12 16 19 21 21 21 23 25 26 28 30 22 27 29 31 33
78 78 76 71 62 58 56 52 52 54 48 50 54 56 55 51 48 44 42 38 33 27 22 18 12 8 7 6 6 5 7 10 14 17 19 20 22 25 28 29 34 28 28 32 35 37 39
75 71 65 61 56 53 50 48 49 47 46 51 52 55 56 52 48 45 43 39 35 30 25 21 16 14 11 9 10 9 7 9 12 14 17 20 24 27 30 32 34 35 35 38 41 43 45
65 63 58 53 50 48 46 45 43 43 46 51 51 55 56 52 48 45 41 39 35 31 28 24 20 18 16 15 14 14 13 10 11 13 17 21 24 27 29 33 35 36 39 41 44 47 47
63 58 53 49 47 45 43 40 42 44 45 49 48 54 56 51 48 45 42 38 33 32 29 27 24 22 20 19 19 18 18 17 17 16 17 20 23 26 29 33 35 37 39 41 43 47 48
58 50 45 44 39 39 39 41 42 42 42 47 49 51 53 51 48 45 42 38 34 32 29 28 28 26 25 24 23 24 23 23 22 21 22 24 26 28 31 35 39 40 42 44 46 48 50
49 44 39 37 37 39 40 39 39 38 40 43 45 48 52 50 47 43 40 38 36 36 33 32 32 30 29 28 28 29 28 28 28 30 30 30 32 35 36 37 40 43 45 46 46 47 47

GFSGBSN_500_spd_006.txt.gz
Wind_Speed
43 42 42 42 43 43 39 36 35 35 37 39 40 36 34 33 36 34 27 24 21 17 17 13 14 14 12 12 9 8 10 10 12 12 12 12 16 20 20 20 21 19 15 12 5 4 12
47 45 46 44 44 43 41 37 37 35 36 40 40 36 34 33 34 28 25 23 20 21 16 13 13 9 12 10 7 8 9 14 10 10 14 17 22 26 27 24 22 21 17 15 13 12 8
52 49 48 45 45 44 41 39 39 36 37 39 40 34 33 32 31 25 22 20 22 22 15 13 12 9 10 7 8 8 7 10 14 16 19 25 34 30 28 26 22 17 10 6 8 11 8
54 52 50 48 44 43 39 37 36 36 37 38 38 34 31 30 28 21 20 20 23 16 14 11 10 12 13 11 11 8 5 15 20 21 30 31 31 31 32 27 21 17 13 12 7 10 11
56 55 53 50 47 43 41 36 34 34 35 37 37 33 30 25 24 20 17 22 17 12 12 10 13 14 14 15 13 12 12 21 19 22 28 27 31 30 27 25 20 16 9 6 8 13 12
58 55 53 50 48 46 42 39 36 32 35 36 35 31 25 24 21 19 18 20 12 11 11 12 14 13 12 10 16 13 21 22 27 21 25 15 20 19 18 17 8 5 7 7 7 11 13
63 59 56 54 52 49 46 42 40 34 36 37 34 28 20 22 20 20 17 15 11 11 11 14 15 15 12 16 19 16 24 25 23 23 23 16 19 12 9 13 13 10 14 10 9 12 16
71 66 63 59 56 52 48 44 41 38 37 37 33 26 19 20 20 17 13 11 11 11 14 15 19 15 11 19 22 19 26 26 20 16 23 20 19 15 13 11 9 9 15 12 10 14 11
77 73 68 65 62 59 51 45 42 39 38 36 33 24 20 19 17 13 9 11 11 14 16 18 19 14 14 22 25 25 32 30 27 19 13 12 14 11 11 11 6 7 16 9 6 4 8
79 77 71 66 64 62 56 47 43 42 40 36 32 21 20 17 16 12 11 13 15 16 16 17 17 15 17 17 23 27 34 29 31 26 20 17 15 13 12 12 12 8 20 15 9 10 6
81 76 72 67 63 60 56 49 43 43 41 37 30 21 20 16 15 13 16 16 19 18 19 18 17 15 18 20 21 28 35 28 27 24 22 20 12 10 14 18 16 18 17 17 13 13 13
82 78 74 70 63 57 53 51 46 45 42 39 33 21 20 17 16 14 16 16 17 19 20 17 18 18 17 18 19 22 29 30 27 25 25 23 21 16 17 16 13 17 14 15 16 19 22
85 78 74 71 64 59 55 54 50 48 44 41 33 24 24 20 17 16 18 18 21 21 18 19 17 17 16 16 17 20 22 26 30 30 27 25 25 22 17 14 18 16 14 16 17 18 18
95 84 80 73 68 61 60 58 54 52 47 44 34 28 26 24 21 20 20 22 23 21 20 19 19 18 16 16 18 18 18 20 23 27 26 24 23 20 16 15 18 21 20 20 21 20 17
98 95 81 76 72 63 64 62 59 56 50 46 36 31 27 28 24 24 25 25 24 24 23 20 19 18 17 16 16 17 16 17 17 20 22 22 22 18 18 18 19 18 20 19 21 20 19
97 94 86 80 75 70 66 67 63 60 54 47 38 33 32 32 29 29 29 28 30 25 23 20 18 18 15 14 14 15 15 15 16 16 16 16 18 18 18 19 21 21 19 19 18 16 13
102 95 85 81 81 77 72 71 69 64 57 49 44 40 39 36 34 34 33 33 30 25 22 20 18 17 15 14 13 13 14 15 15 15 15 16 17 18 19 18 18 18 16 15 13 11 7
77 89 92 81 81 83 78 75 72 66 61 54 48 44 44 40 40 39 38 35 30 26 24 22 19 16 15 14 15 16 17 17 17 18 18 18 18 17 18 18 16 14 13 13 13 11 10
75 82 86 87 83 82 81 79 75 69 63 56 51 47 48 45 45 43 41 37 33 29 26 21 17 14 15 17 19 21 20 21 19 20 20 20 21 19 19 16 15 14 14 14 14 13 11
78 89 91 89 87 83 79 83 77 71 66 60 55 50 50 49 48 45 42 37 35 31 26 19 14 11 13 14 15 17 18 18 18 19 19 18 17 17 17 18 19 18 17 17 16 14 14
81 95 100 94 87 79 87 85 79 73 68 64 57 54 48 54 53 49 44 39 36 31 27 20 12 9 8 11 13 15 14 15 17 18 18 18 16 17 18 20 22 21 21 20 19 20 20
82 97 97 93 90 88 85 82 78 76 71 65 60 55 54 53 52 51 47 42 37 33 28 21 13 7 4 6 8 9 12 13 14 15 18 19 17 18 20 20 23 24 23 22 23 24 26
83 95 90 82 87 92 83 80 77 76 70 66 59 57 55 56 56 53 46 44 39 34 27 21 15 8 4 2 1 5 7 10 11 15 18 20 18 19 20 22 24 26 22 25 28 29 32
93 98 73 70 93 89 84 78 76 73 68 64 60 58 58 58 57 53 47 45 41 35 28 24 18 11 5 2 2 2 3 5 8 10 14 16 18 20 20 23 28 23 24 28 32 34 38
96 67 61 89 89 83 78 74 73 69 66 62 56 58 58 59 58 54 49 47 45 39 32 27 21 15 8 4 1 4 3 2 6 8 12 16 19 21 24 25 27 29 29 32 35 38 42
60 73 83 78 78 74 71 70 67 62 60 57 53 55 56 57 57 53 50 48 46 40 34 29 24 18 13 8 6 5 4 4 3 6 10 15 18 21 23 26 27 26 29 32 35 39 41
65 65 76 75 70 69 67 64 60 55 53 51 50 54 55 57 55 54 50 48 45 41 34 30 25 22 18 13 11 10 9 8 9 9 10 14 16 19 22 25 27 30 31 33 37 41 43
68 67 64 69 65 60 58 57 51 49 47 47 50 53 55 57 55 55 50 46 44 40 35 30 29 25 22 19 17 16 15 15 15 16 17 18 21 22 25 29 33 34 37 40 42 44 45
72 69 62 58 55 53 51 48 46 44 43 44 49 50 51 54 55 53 49 45 42 39 35 34 31 30 27 24 21 22 22 20 21 22 24 25 27 29 31 33 38 42 44 44 45 43 43

GFSGBSN_500_spd_009.txt.gz
Wind_Speed
48 46 43 42 41 39 39 38 38 37 36 33 32 34 33 37 32 32 32 28 23 23 23 22 18 14 13 14 16 8 7 8 8 9 9 10 16 17 18 17 20 21 21 20 21 19 10
49 47 44 43 42 41 41 40 37 37 37 35 32 33 34 37 31 32 31 23 22 21 23 23 16 13 13 13 11 7 8 9 12 11 10 13 20 25 24 19 17 16 18 14 12 13 13
51 50 47 44 44 43 42 42 40 38 37 36 32 32 35 36 30 31 29 22 20 21 25 17 13 13 14 11 9 8 6 10 10 11 10 11 18 26 21 20 22 18 11 14 23 15 9
56 52 50 49 46 45 44 44 41 38 35 31 28 29 33 35 29 29 27 20 17 24 18 11 12 12 13 14 12 9 5 8 13 10 11 17 24 22 26 29 26 17 11 10 4 11 10
60 56 53 52 50 47 46 45 42 38 32 28 27 29 32 32 29 26 24 19 17 22 13 11 11 12 14 15 18 8 5 16 14 15 18 29 29 30 29 25 14 15 9 12 10 11 9
62 59 55 52 50 49 47 45 42 40 35 29 26 28 31 30 28 24 22 19 17 18 10 12 11 12 16 14 8 11 11 15 16 18 22 27 29 28 27 20 13 12 9 7 8 12 12
63 59 56 53 51 50 48 46 45 41 37 31 28 30 31 29 26 23 21 17 17 15 13 14 11 14 14 15 11 15 22 18 15 15 20 21 25 20 16 17 5 4 7 7 12 7 12
67 65 61 56 53 49 48 48 46 44 40 35 31 32 33 28 23 22 19 16 16 14 13 14 12 14 15 16 14 16 23 18 22 8 16 7 17 15 10 13 11 8 9 12 9 8 10
71 69 66 62 58 55 53 52 48 45 43 38 34 33 33 30 21 21 18 15 13 11 14 15 15 16 16 16 20 18 25 22 12 13 13 11 11 10 12 10 9 7 9 12 6 7 11
78 74 70 68 64 58 56 54 52 49 45 41 36 35 34 31 20 22 19 15 14 13 16 17 18 17 16 16 25 25 33 29 20 8 13 22 11 7 2 8 10 9 14 7 11 7 10
84 80 76 72 69 64 59 54 53 49 46 41 38 37 36 30 22 23 18 18 17 17 19 23 19 15 14 17 23 26 34 33 23 16 10 6 16 11 6 10 7 18 6 11 11 7 18
87 84 81 76 71 68 62 56 53 49 46 43 40 40 36 25 25 24 21 21 20 22 20 18 14 13 15 18 21 30 38 35 34 27 21 13 14 13 12 8 11 10 13 9 13 9 16
90 87 84 81 75 71 65 58 55 50 48 45 45 43 35 30 29 25 22 24 23 22 17 15 13 14 15 17 18 24 33 33 25 32 23 18 21 19 18 15 14 14 11 7 10 16 16
97 90 86 83 79 72 67 60 55 51 50 50 49 44 37 32 33 26 25 25 25 15 16 15 16 17 18 18 20 22 24 27 26 18 13 20 16 19 21 18 12 14 11 13 15 11 14
104 98 90 85 83 75 68 63 56 51 52 55 52 47 39 35 34 29 29 27 17 16 19 18 19 20 21 20 21 21 23 17 22 23 18 12 21 17 18 18 17 15 19 21 21 21 21
106 104 97 89 85 79 71 64 59 53 56 59 54 47 41 39 37 33 30 23 22 22 21 21 19 19 17 16 18 20 21 24 21 21 26 21 19 23 17 18 18 21 20 18 20 23 21
104 100 100 94 87 83 76 68 62 57 63 64 56 51 46 43 40 36 31 26 26 25 24 22 21 20 18 18 18 18 17 18 18 18 19 21 19 18 19 19 16 20 21 19 20 19 15
92 102 100 96 89 88 83 75 67 60 70 67 59 55 49 48 43 36 31 33 30 30 27 25 24 23 20 19 18 18 18 18 18 17 18 19 19 21 18 20 19 19 18 18 18 18 15
70 80 92 98 94 91 90 85 78 67 65 69 64 58 54 52 45 38 36 38 38 34 30 27 25 22 20 18 18 18 20 18 19 19 21 19 21 21 21 19 18 17 17 18 19 17 15
55 70 84 90 96 88 91 89 85 75 71 72 65 60 57 54 47 41 43 43 41 37 33 30 26 22 19 19 20 21 23 23 23 24 24 24 24 23 20 15 19 18 18 19 19 18 17
48 57 75 93 93 90 92 91 89 81 78 74 70 62 53 56 52 46 44 43 42 38 35 31 25 20 18 19 21 22 21 21 22 23 24 23 21 21 20 20 20 20 19 21 22 19 22
37 51 66 92 102 97 96 93 89 88 83 77 72 65 60 53 54 48 51 49 45 39 36 29 23 18 17 17 18 17 19 19 19 19 20 21 21 19 19 20 21 22 22 22 23 23 26
42 46 63 91 105 103 98 92 88 86 83 77 70 65 65 57 56 53 54 52 47 43 38 33 25 18 15 12 14 15 16 16 17 19 20 20 20 20 20 19 22 22 19 23 24 25 28
46 49 61 90 105 101 97 92 88 87 85 75 71 69 67 56 59 56 55 51 47 44 39 33 26 20 14 10 8 9 12 14 15 16 18 19 20 21 19 20 23 19 19 23 27 27 31
48 46 61 97 98 97 91 93 87 86 80 75 70 68 57 57 59 58 55 53 48 46 44 37 29 22 15 10 7 5 4 9 11 13 13 15 17 19 20 22 23 22 22 24 27 28 36
44 50 77 98 92 79 85 90 86 80 77 67 71 68 66 59 59 56 58 53 52 48 42 38 32 25 19 14 9 5 3 4 4 6 9 12 15 17 18 21 22 22 23 25 27 31 34
46 61 88 91 61 78 80 83 78 79 75 64 68 67 64 56 57 58 57 55 53 50 44 38 32 28 23 18 13 8 6 5 4 4 5 7 10 13 15 18 19 21 24 27 30 35 37
58 87 77 61 70 81 72 75 80 76 69 65 64 66 58 57 58 58 59 55 54 52 45 38 35 33 28 22 18 14 10 10 9 9 11 12 14 16 19 22 26 27 30 32 35 38 42
76 66 54 79 75 73 71 71 70 67 61 61 57 58 53 57 56 57 59 55 55 51 44 41 37 33 31 29 24 20 18 15 16 17 17 19 21 23 24 28 31 33 35 38 40 43 45

GFSGBSN_500_spd_012.txt.gz
Wind_Speed
51 51 50 48 46 44 41 41 40 38 36 35 33 31 29 31 33 30 31 32 29 29 30 28 29 26 15 19 20 17 10 8 8 6 8 6 11 14 17 21 21 24 21 16 10 13 11
54 52 51 50 47 44 42 42 41 38 38 37 33 30 29 31 32 30 30 30 28 27 28 28 29 19 13 19 19 17 11 10 9 9 7 7 15 19 18 12 15 24 21 20 18 18 14
57 54 52 51 48 45 43 43 42 39 38 37 34 31 29 30 30 29 30 26 26 26 27 27 23 13 12 16 17 19 13 8 18 15 8 7 17 17 23 17 16 19 19 17 18 15 17
60 59 55 52 50 47 45 44 42 40 39 38 34 31 26 28 27 29 29 23 24 24 26 26 18 12 12 16 18 24 10 7 1 4 9 7 12 19 17 22 16 15 9 11 13 14 11
64 62 60 56 53 50 49 45 43 40 39 37 34 30 26 27 27 27 28 21 23 24 24 24 16 13 12 16 18 19 4 3 6 5 8 14 16 19 19 21 19 12 8 9 8 13 5
68 67 63 60 57 55 52 49 44 42 41 37 34 32 28 27 26 26 26 20 22 23 22 21 16 15 11 11 15 13 5 9 8 8 10 19 23 22 21 29 14 10 14 3 5 7 12
70 67 65 63 59 56 53 49 46 43 40 38 35 33 30 28 28 27 24 19 23 22 20 19 15 15 11 11 10 13 5 11 10 9 16 20 24 23 20 17 17 11 5 5 8 5 13
71 69 67 64 61 55 51 50 46 43 39 39 37 35 34 30 30 28 23 21 22 19 18 16 15 13 11 10 10 9 8 13 9 7 11 19 23 17 17 13 9 2 4 11 15 11 8
71 70 67 65 61 57 52 49 46 45 41 40 39 38 36 34 32 30 23 21 21 21 14 13 15 14 14 13 8 8 15 15 7 10 6 10 11 18 7 8 10 6 9 14 10 5 15
76 72 68 65 63 60 57 53 51 49 44 41 40 39 38 36 33 30 26 21 20 19 15 18 16 15 15 15 10 17 24 17 12 14 10 3 14 13 11 11 7 16 14 13 11 8 4
81 78 74 70 66 63 61 57 55 53 51 47 44 43 40 35 36 34 23 22 19 18 20 24 20 17 16 13 11 22 25 28 17 8 8 9 12 8 8 17 12 8 19 9 9 7 16
86 82 78 74 70 67 63 61 57 54 52 50 46 44 42 39 41 32 29 23 21 21 23 23 23 10 13 12 12 18 25 29 24 17 12 15 20 12 20 9 4 9 4 8 13 13 18
88 86 81 78 74 71 67 64 60 55 51 52 47 44 43 44 45 33 28 25 25 24 20 22 19 14 11 11 14 19 25 28 31 22 15 11 14 17 14 9 11 13 7 2 9 15 16
96 92 86 81 78 74 69 67 62 59 53 50 46 45 44 47 45 36 33 29 28 19 22 18 14 12 12 12 13 16 22 28 27 27 20 9 12 9 12 14 16 3 12 12 19 19 16
103 99 96 89 83 78 74 69 65 60 56 51 48 46 43 48 44 37 34 33 24 17 19 16 14 17 14 16 15 17 17 17 19 23 25 23 29 25 15 15 21 12 11 16 22 19 10
109 106 102 96 91 84 77 72 68 62 58 51 48 47 49 51 45 41 38 33 23 24 19 20 18 18 16 17 21 19 19 16 13 19 20 29 24 19 13 14 16 15 17 15 18 21 19
112 107 107 102 95 89 84 76 71 65 58 51 51 51 53 53 48 46 41 31 25 27 26 27 22 18 18 18 18 18 14 15 24 24 23 21 13 14 13 14 15 15 19 18 18 19 19
91 105 106 104 100 94 88 81 75 67 60 54 52 54 57 56 53 48 42 31 30 31 27 23 25 19 24 17 19 20 25 16 20 22 21 25 25 25 14 19 13 18 15 16 22 19 22
66 82 97 102 101 96 91 86 80 71 65 57 52 59 55 58 55 50 40 35 36 33 31 28 25 26 27 26 24 24 22 21 20 21 22 24 20 20 16 16 13 15 17 18 20 16 16
39 63 81 93 103 99 92 89 85 77 69 62 61 64 56 55 54 50 43 39 40 34 34 31 27 27 27 26 24 23 25 24 19 22 20 21 19 21 20 14 15 17 18 18 18 18 16
38 43 68 86 93 98 94 91 89 82 76 73 66 63 61 56 55 53 45 43 43 40 41 36 31 30 26 24 22 23 24 23 24 24 25 26 24 24 24 17 23 25 17 18 21 19 21
38 42 55 78 93 97 94 92 89 85 86 82 66 62 61 57 53 50 47 46 43 42 40 35 34 29 26 24 24 24 26 21 21 22 23 23 25 25 22 22 22 23 22 21 21 21 21
33 37 49 67 86 100 96 92 92 90 90 82 70 66 63 64 55 53 49 47 47 43 40 34 31 29 26 28 24 24 19 15 24 21 22 22 22 23 22 22 22 22 16 21 22 22 23
33 31 42 58 74 97 106 99 95 95 90 76 73 70 58 61 55 53 52 50 48 47 37 39 37 25 30 20 19 19 20 22 22 22 23 21 23 23 23 23 24 17 17 19 21 22 26
35 37 43 41 64 92 105 105 98 89 87 83 76 65 61 61 56 56 52 51 48 44 40 41 41 34 24 20 17 15 16 19 20 20 22 22 24 23 23 23 20 19 18 18 21 25 29
38 34 44 47 54 87 101 104 94 90 89 81 74 58 61 61 62 52 59 54 55 47 52 46 41 32 27 21 16 13 12 12 12 14 16 17 18 20 19 21 21 22 20 21 24 27 26
37 35 41 44 53 85 98 98 93 94 85 79 69 48 59 44 58 55 60 56 55 58 52 46 43 36 29 24 19 15 11 9 8 8 9 11 13 15 16 17 16 18 16 21 24 27 30
40 39 43 45 57 93 100 93 92 89 84 81 67 48 54 58 48 53 56 53 59 58 48 47 45 40 34 28 23 18 14 12 8 9 9 9 10 11 13 15 18 20 22 25 28 31 34
36 38 43 51 78 101 87 86 87 80 79 72 77 53 36 43 56 56 55 58 61 54 50 49 44 39 34 31 29 22 19 17 13 13 13 15 14 16 17 22 23 25 26 29 31 34 38

GFSGBSN_500_spd_015.txt.gz
Wind_Speed
58 56 55 54 53 52 51 48 45 43 40 38 36 35 34 31 28 27 28 30 29 29 27 28 29 31 25 14 19 22 21 18 9 9 8 5 7 11 19 21 25 25 17 4 1 10 7
62 58 56 55 55 53 51 49 47 44 41 38 37 36 35 31 29 27 27 28 28 27 26 26 27 29 19 11 16 21 21 20 11 10 8 7 14 22 26 23 21 19 15 4 2 12 8
62 62 59 57 56 54 52 50 48 46 42 40 37 36 35 30 29 27 27 26 27 25 25 24 26 27 16 13 16 20 24 13 16 6 7 12 17 17 30 23 19 21 22 10 12 16 9
68 67 65 60 57 54 53 51 49 46 44 40 38 36 34 30 28 26 27 27 26 25 23 22 24 23 14 13 18 17 16 12 3 3 8 9 12 13 21 17 8 10 24 17 14 15 12
73 69 66 62 58 55 55 52 51 47 45 41 38 38 34 29 27 26 26 27 25 25 20 21 24 20 14 13 14 15 10 8 1 1 4 8 13 11 12 15 12 15 11 3 11 14 11
71 71 69 65 62 59 58 55 52 48 45 41 39 38 33 27 25 26 27 27 26 23 21 21 22 18 13 12 13 15 14 2 3 1 2 8 11 16 18 15 19 8 7 9 12 11 11
73 71 69 65 65 64 63 59 55 52 49 44 39 38 32 28 26 27 28 27 26 21 20 18 21 16 10 10 12 11 9 2 3 1 3 11 13 15 18 22 14 16 10 9 9 7 8
72 71 70 68 66 65 62 61 61 57 53 49 45 40 33 30 29 29 29 29 25 24 19 16 17 10 8 10 12 8 3 4 3 5 6 13 17 12 14 22 18 15 8 4 8 10 6
68 69 70 69 67 65 63 58 56 54 53 47 40 37 34 34 33 31 31 31 28 22 20 16 15 6 8 9 14 9 4 8 2 5 4 10 15 17 15 21 15 2 9 14 14 16 13
72 69 66 67 64 64 62 59 56 51 47 42 38 37 37 36 34 32 31 31 29 24 22 18 14 12 10 13 15 14 9 13 9 6 9 7 15 21 18 17 8 2 5 19 19 13 9
77 74 72 68 65 61 59 60 54 49 49 46 42 43 41 37 37 32 31 32 27 26 23 20 16 15 16 14 21 16 10 21 16 13 5 8 18 18 22 21 8 2 9 12 10 7 8
81 78 76 73 70 66 61 58 60 51 54 48 48 46 43 40 38 35 36 32 32 28 24 20 18 11 15 16 16 18 16 17 16 17 11 12 11 11 12 6 11 1 2 11 11 14 14
88 84 81 77 74 71 66 61 59 58 52 54 53 46 44 44 41 36 37 36 34 32 24 22 21 15 17 14 16 17 14 25 29 22 17 12 14 4 9 2 6 9 7 12 16 18 21
93 88 86 83 78 73 70 66 63 62 57 54 49 48 48 43 42 39 39 38 36 29 23 23 22 20 16 15 15 14 13 22 26 22 20 15 12 7 5 6 9 11 13 15 15 18 13
97 95 89 86 84 80 73 69 65 65 61 58 54 51 50 44 41 41 41 38 34 25 20 20 23 23 15 16 9 10 13 16 19 16 26 21 21 26 21 21 23 17 11 13 18 22 17
102 99 96 90 88 85 81 72 68 66 63 60 58 52 47 47 46 46 43 37 35 26 26 20 25 19 13 15 18 12 14 12 15 20 23 24 26 23 28 20 19 17 17 18 22 23 18
82 88 100 97 93 89 85 80 73 69 66 62 59 54 48 52 50 49 45 37 32 30 30 29 24 16 16 15 14 12 12 7 16 16 21 23 21 31 27 8 12 17 17 20 20 22 20
52 56 77 95 95 94 90 85 79 74 70 67 58 56 52 54 55 51 44 40 34 35 35 30 27 25 18 20 20 15 17 22 22 22 28 22 24 20 17 8 10 16 16 19 20 16 21
55 54 50 65 85 93 95 90 83 79 74 68 61 56 57 58 53 50 49 42 38 38 39 34 27 25 26 28 27 16 24 22 20 21 21 20 25 22 17 17 17 16 16 19 20 16 14
48 53 50 49 71 88 96 94 89 83 79 74 68 61 62 57 50 51 50 43 40 41 42 34 29 26 33 24 22 20 26 30 27 24 22 21 23 21 21 21 21 19 13 18 20 20 14
49 49 48 45 60 91 94 97 92 87 82 79 75 63 57 51 53 54 54 45 44 46 43 35 34 33 33 35 25 24 31 27 20 18 22 25 25 24 24 22 25 20 18 18 19 19 17
46 48 48 42 49 88 100 99 95 90 86 84 76 65 54 48 50 54 54 48 48 47 41 36 40 37 34 32 32 28 28 25 21 23 26 28 27 28 26 25 27 24 24 22 18 18 19
44 46 43 40 42 68 98 103 99 96 95 88 74 63 58 51 52 53 49 45 48 47 42 37 39 37 35 34 32 30 29 27 25 28 29 28 26 27 26 26 25 27 14 20 20 20 21
43 43 43 41 42 55 81 104 103 101 96 85 74 67 63 56 56 52 42 45 48 47 44 39 39 38 39 32 31 28 26 25 25 25 26 22 23 26 25 25 26 17 21 18 18 22 23
41 43 40 40 40 46 76 100 107 102 94 84 75 74 71 61 53 54 47 47 46 50 45 40 45 42 38 35 30 26 25 24 26 26 21 19 24 26 25 25 22 22 19 19 20 23 24
42 40 35 34 39 46 72 95 106 100 92 84 83 77 60 59 54 50 51 51 51 50 49 46 46 43 40 37 29 26 22 19 24 23 21 22 25 26 24 24 22 22 21 20 22 26 23
38 31 26 30 38 49 68 90 103 99 91 86 82 79 63 51 51 49 54 52 52 53 47 52 42 44 40 27 28 25 20 20 15 15 17 18 18 18 17 18 19 19 18 21 22 22 22
31 26 25 35 37 36 69 91 100 97 90 83 80 78 62 45 39 45 51 51 49 51 51 52 44 49 42 35 31 26 22 17 14 13 11 9 9 10 11 12 13 14 15 18 21 23 25
32 28 31 35 28 43 60 90 99 94 88 85 76 76 57 50 43 41 51 45 51 52 53 52 39 35 41 37 33 29 23 20 16 14 12 11 10 11 13 13 16 16 18 20 23 26 29

GFSGBSN_500_spd_018.txt.gz
Wind_Speed
61 60 58 57 56 54 54 52 52 50 50 46 43 41 38 36 34 30 27 26 24 24 25 27 28 29 28 22 18 19 22 25 11 8 6 5 9 16 23 22 29 23 18 11 10 5 5
64 64 63 61 61 58 57 56 54 52 51 47 43 41 39 37 35 30 27 26 24 23 23 26 26 28 26 16 17 19 22 19 11 11 8 4 11 13 28 27 26 27 24 8 13 7 3
68 66 68 67 65 64 62 60 54 54 51 48 45 42 41 38 35 30 26 26 24 22 23 24 24 27 25 14 15 17 19 14 18 8 8 6 7 11 25 26 20 24 14 18 8 6 6
73 70 70 68 65 67 68 62 58 55 49 48 45 44 42 40 36 30 27 26 24 22 24 23 22 24 23 13 13 16 17 14 15 3 4 9 10 8 19 24 24 19 14 6 5 11 2
74 73 73 75 71 65 64 62 64 57 51 47 44 44 43 41 37 31 28 26 23 22 24 22 21 22 19 12 9 15 18 11 5 1 6 7 10 8 16 17 18 17 15 17 11 13 14
72 73 72 70 73 72 68 65 65 61 55 51 47 43 43 42 36 33 30 26 23 23 23 20 20 20 18 9 9 13 15 7 3 3 4 7 11 12 17 15 17 14 13 9 9 11 4
73 73 73 74 70 71 67 68 63 60 61 53 53 44 44 41 36 36 29 27 24 23 22 19 19 17 14 8 8 9 11 6 1 4 2 6 13 17 17 14 14 23 22 21 13 10 6
65 65 68 70 71 71 70 65 62 60 58 54 54 51 45 39 36 40 33 27 24 24 21 21 18 14 11 6 7 10 8 4 3 3 3 4 10 14 14 17 20 20 16 13 17 14 10
70 68 65 65 65 68 66 65 61 61 58 55 52 53 50 46 41 40 32 28 23 28 23 23 19 12 11 4 7 12 8 6 6 5 2 0 9 10 13 21 17 15 12 15 11 9 6
74 73 70 68 65 62 62 62 62 57 58 55 52 50 53 52 46 38 29 25 29 31 23 22 20 16 13 12 10 17 10 10 12 10 8 4 9 14 15 22 22 14 17 14 12 12 14
80 76 75 71 68 63 59 56 59 57 56 54 51 48 45 46 38 35 32 31 32 27 28 21 20 15 16 15 17 16 15 16 19 13 6 3 8 12 20 20 14 9 10 17 16 13 15
86 81 78 74 71 68 63 58 55 54 49 49 47 43 41 33 33 35 31 33 32 28 27 21 20 16 18 16 15 18 14 16 20 13 9 10 10 20 25 17 9 4 4 9 13 17 19
91 85 82 78 74 72 69 64 59 56 51 46 47 44 45 41 38 37 34 36 34 35 24 23 20 19 20 17 17 17 16 21 24 20 16 17 17 18 21 19 13 7 6 13 16 18 20
95 91 86 83 79 77 71 67 64 60 57 51 50 47 45 47 42 41 37 38 38 33 28 26 24 23 20 17 15 16 16 21 28 24 17 16 15 22 26 21 17 12 11 16 23 25 26
100 95 91 86 83 80 74 70 66 63 62 58 55 53 52 53 48 44 41 43 39 32 26 25 26 29 22 15 15 16 15 19 23 27 23 19 21 21 16 18 18 15 12 13 22 23 21
88 97 97 90 86 83 81 76 69 64 64 64 61 56 54 52 55 51 47 45 41 30 27 28 30 29 21 16 15 17 18 18 20 22 27 23 18 22 21 16 20 20 17 18 20 24 21
52 79 91 95 88 86 83 81 77 70 65 66 65 64 56 57 55 53 52 47 40 30 32 30 31 31 23 20 15 18 10 15 19 24 25 29 26 24 25 20 23 26 25 20 21 23 22
48 48 72 84 90 87 85 83 81 75 73 69 67 65 62 64 61 51 50 45 39 33 35 34 36 31 26 19 22 19 15 16 19 26 27 25 24 20 13 18 21 25 19 19 22 23 25
53 48 43 54 80 83 90 85 83 79 78 74 69 67 67 66 64 52 48 45 39 41 41 38 38 31 28 24 24 24 19 19 22 23 23 22 22 25 21 23 20 20 12 18 24 24 23
55 51 49 45 46 76 83 90 87 83 81 80 77 74 69 70 60 55 52 46 41 42 42 41 40 34 31 27 27 26 23 24 26 25 23 21 24 22 17 16 21 22 18 22 25 23 21
51 55 49 47 48 46 82 83 92 89 86 85 85 79 69 65 65 58 56 50 49 51 46 44 42 36 32 30 32 34 30 26 26 27 24 24 24 22 20 21 22 25 23 24 26 21 25
49 50 50 49 48 49 49 90 95 94 93 92 87 79 69 58 56 56 57 52 54 47 48 47 41 34 33 35 30 31 28 29 27 27 26 26 29 24 24 24 25 28 29 24 23 22 24
48 51 49 48 45 42 47 58 95 100 102 96 85 76 69 60 57 58 56 53 50 48 49 46 39 36 38 37 37 34 26 23 25 29 31 30 28 27 29 28 30 35 27 26 26 28 25
47 47 48 48 47 45 46 49 63 96 104 95 88 79 71 65 58 52 52 51 46 50 50 47 41 36 39 43 38 35 35 31 29 28 27 28 28 30 31 32 34 27 25 29 26 26 25
47 47 47 47 45 44 46 45 54 80 104 99 91 82 74 69 55 52 53 51 44 49 51 46 42 35 41 43 40 39 39 35 33 29 29 28 26 28 30 30 30 24 24 26 25 25 24
43 46 47 48 48 47 48 46 50 70 100 98 90 83 75 69 60 53 56 47 50 55 53 50 46 43 45 47 44 42 41 37 32 28 28 27 26 26 28 26 26 21 24 23 25 27 23
45 46 46 50 47 50 50 46 46 67 94 96 91 86 73 68 66 59 58 48 52 56 52 48 47 48 49 50 45 41 39 33 31 27 23 25 27 27 24 23 22 19 22 23 25 22 23
38 41 43 45 46 45 42 41 46 70 92 97 89 84 70 64 69 65 56 54 54 55 53 50 49 50 50 49 45 40 35 31 29 22 22 19 18 17 18 18 16 16 17 20 19 20 20
36 36 35 34 34 35 38 40 51 74 92 94 87 83 79 64 50 51 57 52 53 51 54 52 48 45 42 48 45 39 36 32 26 22 21 16 14 13 13 11 13 14 13 14 15 17 21

GFSGBSN_500_spd_021.txt.gz
Wind_Speed
59 58 57 57 57 58 57 56 54 53 51 49 49 46 49 45 40 37 36 34 30 26 24 24 26 28 29 32 30 25 19 20 19 14 11 9 9 9 13 17 24 19 16 15 9 8 13
63 63 61 60 60 60 58 58 57 55 53 51 48 50 49 45 41 38 37 35 30 25 24 24 26 27 28 30 29 21 19 19 17 16 11 8 5 5 13 15 15 22 17 15 12 9 7
63 64 63 64 62 62 61 60 60 59 56 53 52 52 50 47 43 40 38 35 31 26 24 25 25 25 26 28 26 19 18 18 18 16 3 5 5 6 13 15 15 20 20 12 12 8 3
68 68 67 65 66 65 65 63 62 62 61 56 55 54 50 48 44 40 39 36 33 27 23 26 25 24 25 26 25 18 16 18 16 6 1 5 7 6 8 18 19 20 9 12 5 4 3
69 69 70 70 68 68 68 67 66 63 61 62 56 55 51 49 43 41 40 37 34 28 22 26 24 22 23 24 22 16 14 17 14 4 2 6 6 6 8 17 15 19 10 11 14 6 8
70 71 71 71 71 71 70 70 69 68 63 59 58 51 57 50 45 42 40 38 36 30 25 24 23 21 22 21 18 12 11 14 8 3 1 3 8 7 12 14 17 20 17 15 17 18 12
73 70 71 73 73 71 71 70 70 68 67 65 58 53 55 52 47 44 43 38 40 33 28 24 23 20 22 20 14 9 8 10 3 3 2 3 8 11 15 14 17 21 19 16 11 14 12
77 74 71 68 69 70 71 70 68 67 64 61 59 58 60 57 54 48 44 43 40 33 29 28 23 21 22 18 13 9 7 7 4 4 4 2 11 15 18 17 18 19 19 16 13 9 9
79 75 73 69 66 63 65 69 68 65 65 64 58 58 56 51 60 50 51 46 40 37 33 30 24 21 22 18 14 11 10 8 8 10 3 5 11 13 14 13 21 21 20 19 16 11 8
84 81 78 75 70 67 63 62 61 62 63 64 59 56 55 52 50 46 47 47 44 38 38 26 25 24 19 18 16 17 14 12 10 10 8 6 10 11 14 15 23 17 14 17 17 13 11
90 86 82 80 77 73 70 66 66 62 60 61 57 51 51 50 46 45 45 48 40 37 37 27 27 23 21 17 20 16 18 16 12 12 13 10 9 12 9 17 18 17 19 19 18 14 14
98 92 85 83 82 77 74 70 67 64 61 57 52 48 49 45 42 39 41 43 43 42 40 27 26 23 19 18 19 20 20 18 18 15 18 14 11 13 17 21 20 17 17 16 16 12 16
97 100 93 86 84 82 77 74 70 65 62 58 54 51 49 43 38 36 38 46 48 51 34 29 24 23 20 22 21 20 19 20 20 18 18 13 10 16 18 25 20 16 14 13 18 19 19
63 84 96 92 85 85 81 77 73 68 65 61 57 53 46 40 42 37 36 42 49 46 32 28 26 26 20 24 21 20 19 20 21 21 24 19 17 13 16 25 20 18 18 18 18 20 22
54 56 73 94 90 85 84 80 75 72 68 65 62 56 50 46 47 44 41 44 43 43 29 30 31 30 26 25 24 22 19 18 19 20 27 25 24 20 22 22 23 22 19 16 19 23 25
63 56 52 74 88 88 85 84 80 75 72 69 65 60 53 50 51 50 48 44 48 34 31 34 35 29 28 26 29 22 18 16 19 19 28 26 23 23 24 20 26 21 18 18 19 22 22
58 61 56 51 77 89 87 87 84 80 76 74 71 67 59 57 57 56 49 44 48 36 36 37 37 34 30 28 24 20 13 17 21 20 24 31 26 24 26 26 17 19 21 22 25 28 28
62 59 57 53 52 81 89 86 87 85 81 78 74 72 65 65 65 55 49 48 47 39 41 40 40 36 32 28 24 20 20 18 21 23 25 25 31 29 25 21 21 19 27 27 27 26 24
67 61 58 55 50 63 85 88 88 88 86 81 76 76 73 71 67 50 46 51 50 42 46 43 39 39 34 30 29 22 23 22 22 25 26 27 31 32 32 25 25 20 17 22 26 28 28
71 63 58 54 51 50 76 88 88 89 89 85 83 82 77 78 62 57 51 50 50 48 45 44 42 40 36 32 30 23 26 26 24 22 23 25 25 24 21 21 23 23 20 24 29 32 24
69 67 58 56 50 46 58 87 90 91 90 90 89 83 77 71 64 58 55 51 48 50 52 47 44 44 39 34 32 25 27 30 26 27 27 22 29 26 21 23 24 23 22 26 25 24 24
55 66 60 55 51 46 48 71 91 93 93 95 90 82 80 67 62 61 60 54 49 49 52 52 48 44 41 37 30 27 29 30 26 27 26 27 23 23 22 24 26 27 25 26 23 24 27
55 63 60 57 52 50 44 54 83 95 97 97 89 84 78 71 66 67 59 53 48 48 48 48 42 45 39 35 30 31 35 32 28 30 26 26 27 26 25 26 31 33 28 27 28 29 31
62 61 58 56 50 51 51 46 55 91 94 93 87 82 76 75 70 61 57 57 51 45 48 47 48 49 40 38 35 37 35 33 34 32 29 27 25 27 30 31 37 31 30 30 34 33 33
59 58 54 54 54 50 53 48 41 61 86 92 88 85 80 77 68 64 59 58 54 51 54 51 53 48 41 43 40 42 41 37 37 31 28 26 27 31 34 34 36 33 27 26 27 29 30
58 53 51 50 54 51 47 48 43 39 55 87 91 86 82 76 69 67 60 58 52 57 51 53 59 53 48 47 43 47 44 39 43 39 32 29 29 31 34 35 29 23 28 28 27 31 27
52 51 49 51 52 53 48 47 45 40 39 63 91 90 85 76 70 68 61 59 55 56 53 56 59 60 53 50 45 48 47 40 42 35 30 29 30 33 34 35 32 25 26 30 30 22 23
45 46 49 50 52 50 49 46 44 42 37 49 74 92 85 78 71 68 65 60 54 57 56 58 62 60 55 51 47 49 47 41 41 36 30 30 31 31 30 30 26 20 25 23 20 20 21
38 42 45 47 48 50 48 45 43 42 40 47 68 87 86 81 73 68 63 58 54 55 56 58 61 56 50 48 49 45 45 41 38 36 32 31 28 26 26 22 20 17 14 14 13 14 17

GFSGBSN_500_spd_024.txt.gz
Wind_Speed
55 56 54 55 54 54 54 56 54 52 51 50 48 48 45 44 44 43 43 44 36 35 35 32 28 26 26 31 34 34 36 27 22 22 21 11 11 9 4 8 18 12 10 6 6 6 10
60 61 60 56 56 57 55 55 57 56 56 54 51 49 47 46 44 41 43 40 38 35 35 32 28 26 26 30 32 33 35 25 21 22 20 9 5 3 2 6 12 16 9 7 3 5 3
63 63 63 62 61 59 59 58 59 59 58 56 53 51 49 47 46 42 42 39 38 37 35 32 28 26 27 30 30 31 32 23 22 22 16 5 4 2 3 9 7 14 4 6 5 3 5
65 64 64 65 64 63 63 61 61 60 59 58 56 53 50 50 47 47 46 43 39 38 35 32 29 24 25 29 29 28 28 19 21 17 8 5 5 4 3 10 8 10 12 9 3 7 5
68 65 65 66 67 66 67 66 64 63 61 60 59 55 52 50 50 49 48 44 41 38 35 32 29 24 27 27 27 25 25 17 18 10 7 3 3 3 7 7 7 12 14 10 11 4 2
72 71 68 67 66 66 67 68 68 66 63 63 60 59 56 51 46 45 47 47 41 40 36 32 29 29 26 25 26 22 21 15 15 10 4 2 4 3 8 9 11 12 18 10 13 15 7
80 78 75 71 70 67 67 69 68 70 67 64 62 59 56 55 51 50 44 41 43 44 38 33 31 30 27 26 25 20 19 14 14 7 5 1 5 3 10 13 12 14 17 19 15 14 17
87 86 82 79 75 71 68 67 69 70 69 65 62 60 60 57 51 53 48 48 42 43 39 36 35 32 29 25 23 19 17 13 12 9 1 3 4 7 11 12 14 15 14 15 15 11 17
96 93 89 83 80 76 73 69 66 69 68 66 64 60 58 56 55 51 47 49 46 49 45 38 34 33 31 26 23 19 19 14 14 12 7 8 10 10 11 11 11 11 17 18 17 12 12
105 98 93 88 84 79 76 71 67 64 64 64 64 62 60 57 53 51 46 46 49 54 47 40 41 37 32 27 22 22 21 16 16 14 10 9 9 11 11 11 12 19 22 20 16 12 8
105 105 101 90 85 82 79 73 69 64 61 59 59 62 61 58 55 50 49 45 47 52 45 39 44 40 32 26 22 20 22 16 15 15 13 14 13 15 13 12 15 17 17 19 17 15 14
71 80 89 97 93 85 81 77 73 69 65 62 60 61 60 60 56 50 51 43 44 48 44 35 36 38 30 26 25 25 21 16 18 21 17 18 17 14 13 14 17 24 20 17 16 14 17
67 64 61 64 74 84 86 82 78 74 71 66 63 61 59 54 44 50 51 44 45 43 37 34 30 33 30 26 25 24 21 16 19 21 18 21 18 16 21 21 19 23 20 19 19 21 20
68 67 67 62 59 75 79 84 83 79 74 70 67 64 59 52 47 49 44 43 48 43 43 32 36 30 33 28 26 27 22 16 19 22 20 24 17 16 21 27 25 22 21 22 23 22 22
67 64 64 64 61 61 84 83 84 83 79 75 71 67 64 55 54 50 50 50 48 41 41 45 39 39 36 30 27 26 22 17 19 20 21 25 20 19 20 25 28 24 25 21 19 20 21
71 66 60 63 63 58 69 90 87 86 83 78 75 72 66 58 57 56 55 53 45 36 36 48 39 36 34 25 28 27 23 17 16 19 22 25 26 24 22 27 29 28 25 21 20 24 24
71 71 66 59 59 61 50 81 91 88 86 83 79 77 68 62 62 63 52 51 45 36 36 48 42 40 34 30 29 28 21 18 17 20 24 28 30 27 25 25 25 28 28 24 22 24 26
75 73 69 61 57 60 53 51 92 89 87 87 82 79 73 69 69 65 51 48 47 38 42 46 42 38 33 30 29 27 19 18 18 18 24 23 33 31 28 27 29 26 28 24 25 26 26
75 73 67 63 56 58 58 51 74 93 89 86 85 80 80 75 72 61 53 52 51 44 45 44 43 42 37 33 32 27 20 18 19 21 23 22 29 35 30 30 30 30 29 22 29 27 26
64 72 69 64 57 56 59 56 49 88 90 87 88 87 86 78 68 66 59 52 51 48 48 48 45 44 40 34 32 27 22 23 21 24 23 26 27 29 31 25 28 29 27 28 32 30 23
53 63 72 68 58 57 56 59 54 67 92 89 90 90 82 80 73 62 61 57 53 49 52 51 47 44 41 36 33 29 25 21 22 28 27 27 27 25 24 21 28 29 28 30 32 30 27
55 51 58 72 64 60 56 60 56 51 81 91 91 88 84 74 71 72 66 57 53 49 52 53 53 41 41 38 33 30 24 22 24 28 28 28 26 25 23 23 28 30 29 26 26 28 27
53 56 53 60 65 62 56 58 54 51 69 91 89 86 84 76 75 75 60 58 53 50 51 54 45 39 47 37 34 33 31 31 26 31 28 27 29 30 25 24 26 30 24 24 26 27 28
48 58 54 56 62 62 58 57 53 49 52 79 87 85 82 81 74 68 65 62 58 50 47 47 47 46 45 40 42 39 34 34 30 30 32 30 27 29 32 30 33 22 23 25 29 29 33
47 48 56 56 66 62 59 55 50 44 44 60 83 86 82 81 74 72 69 64 63 53 49 45 43 45 45 44 45 44 41 38 38 32 29 35 31 32 31 28 29 25 22 28 32 29 30
47 52 56 66 64 58 57 52 46 42 40 49 72 85 82 81 77 73 71 67 61 53 52 47 44 41 49 50 47 48 46 43 41 33 31 34 31 29 27 29 28 26 28 29 28 30 27
50 54 54 60 56 55 54 50 44 41 37 41 66 85 84 81 79 76 71 66 61 52 53 49 46 49 50 52 51 47 48 43 44 36 32 34 31 28 30 30 30 30 27 29 34 22 26
43 50 51 52 52 52 50 45 43 42 38 39 62 81 83 79 77 77 71 66 59 54 53 54 53 56 55 57 57 52 49 48 43 35 34 34 34 34 31 31 31 29 27 27 25 27 26
39 43 45 47 47 46 44 41 41 40 34 41 56 79 82 78 75 74 71 65 58 54 54 52 56 56 56 54 56 55 51 48 41 38 33 34 32 30 30 29 29 27 22 22 20 20 19

GFSGBSN_500_spd_030.txt.gz
Wind_Speed
52 51 52 53 53 52 50 50 52 49 48 45 44 43 41 41 40 40 38 36 35 31 32 30 29 30 29 27 28 26 23 28 28 29 28 29 26 12 9 5 9 10 9 5 5 8 6
55 55 53 53 52 52 52 51 52 52 51 48 46 45 44 43 42 41 40 38 34 33 32 29 32 30 30 29 28 24 22 28 29 28 23 26 24 8 9 6 12 14 10 3 2 4 8
52 54 55 54 52 52 50 50 53 51 53 53 51 50 47 46 45 43 42 40 37 34 33 31 29 30 31 30 28 23 20 26 27 25 21 22 23 9 8 7 14 14 9 9 5 4 9
51 52 52 53 53 53 54 53 52 52 53 55 55 54 52 50 46 46 44 41 38 36 34 32 32 29 33 32 29 24 21 25 21 20 19 17 20 12 7 7 12 15 10 5 5 1 4
55 54 54 53 54 54 55 54 53 54 55 56 54 55 54 53 49 48 46 44 39 36 33 34 32 30 30 31 28 24 22 24 19 19 15 15 14 13 7 5 12 16 6 11 10 6 3
63 62 61 60 59 58 58 58 57 55 55 53 54 56 56 56 54 50 50 46 42 40 33 32 30 29 26 27 28 26 23 24 17 17 13 12 10 13 8 5 9 14 11 8 1 5 3
70 70 70 68 67 66 65 64 63 61 59 58 56 55 52 54 55 53 51 49 46 43 37 33 31 31 23 28 29 26 25 24 18 16 13 10 10 13 11 7 15 21 17 12 13 7 3
76 77 76 76 75 75 74 71 69 67 63 63 61 60 56 55 54 54 52 50 47 47 41 36 33 29 28 29 31 28 26 23 20 15 12 9 9 9 7 6 13 18 20 16 15 13 10
84 85 85 83 83 82 82 81 77 74 68 66 65 65 60 59 57 56 55 51 47 46 47 36 35 30 29 32 29 28 28 24 22 16 13 9 8 5 3 4 11 14 15 18 18 12 12
91 92 92 91 91 90 89 87 84 81 77 70 68 67 64 61 60 58 57 54 50 44 49 41 36 35 33 31 30 28 30 28 23 18 15 11 8 9 7 5 9 10 10 10 14 12 5
85 85 87 89 88 87 85 89 89 88 85 77 72 69 68 65 63 59 58 55 52 46 43 43 38 37 33 32 26 28 30 35 26 21 15 12 11 12 13 13 10 13 12 13 12 12 10
48 49 48 50 53 51 53 59 67 70 74 71 70 68 70 70 66 61 58 56 52 47 45 40 40 34 32 32 30 31 34 33 28 26 18 19 13 14 17 16 14 12 15 13 14 15 13
47 48 48 47 49 51 52 50 49 48 51 58 63 67 69 70 68 63 62 58 54 52 45 40 38 35 32 32 30 33 37 36 30 24 18 17 16 15 19 17 17 17 16 12 12 17 14
47 46 48 48 46 46 49 49 50 52 51 48 64 74 74 71 71 68 65 61 62 51 45 42 41 44 36 34 34 37 42 40 35 26 23 20 19 15 19 22 19 20 23 22 19 18 15
51 51 52 53 54 54 55 54 54 53 53 51 52 61 76 74 70 72 71 68 61 48 47 47 48 44 42 40 37 35 42 37 31 27 24 21 19 18 23 24 24 22 27 25 22 22 20
59 64 65 64 64 63 61 60 59 59 58 57 57 56 59 73 74 74 77 74 58 50 47 53 51 46 42 39 39 38 41 40 37 29 28 23 23 23 25 24 24 24 26 27 25 23 20
67 67 70 72 74 74 72 64 62 62 59 62 64 63 51 62 78 80 84 71 56 57 56 56 54 48 47 43 41 41 43 37 34 32 30 26 25 24 25 27 21 25 30 30 26 26 24
72 72 72 73 74 78 75 72 67 66 64 64 64 63 58 59 80 85 83 66 64 64 62 60 56 51 47 44 42 43 45 32 32 32 31 25 27 27 28 30 27 30 29 34 33 27 30
81 79 79 79 78 72 72 72 72 71 69 64 65 64 68 61 77 85 79 69 72 70 67 63 56 44 48 43 46 47 42 36 34 34 32 30 29 27 30 29 33 33 32 31 31 33 32
79 72 61 59 62 59 53 59 68 72 71 69 67 68 74 71 63 76 77 77 75 73 68 66 50 45 47 47 46 51 44 40 40 38 35 33 30 26 26 20 25 32 33 31 32 35 29
53 49 49 46 48 48 58 53 57 58 66 72 71 70 68 68 60 65 79 76 74 77 69 68 52 49 47 44 45 57 48 42 40 36 35 36 32 27 20 22 27 29 32 33 33 31 32
54 56 56 55 52 53 47 52 54 59 64 67 71 66 66 62 56 65 76 81 81 76 68 64 54 46 43 45 48 55 51 48 42 36 36 38 31 26 21 21 23 26 29 32 31 32 32
56 56 55 57 60 53 48 58 55 57 65 65 61 60 61 62 64 61 77 77 79 75 68 61 50 43 41 39 38 46 42 43 40 38 37 38 32 26 22 21 23 31 25 27 28 27 24
47 44 46 57 53 56 50 66 56 60 62 54 55 54 54 61 62 48 69 76 79 75 66 60 54 48 45 43 39 43 44 47 42 39 40 38 31 29 26 24 29 19 20 25 27 24 24
37 38 39 51 49 53 52 70 58 57 55 49 55 54 51 52 51 50 72 77 78 77 68 63 56 47 44 43 37 47 39 48 45 43 42 38 35 32 31 28 23 22 19 23 22 22 24
25 31 33 43 47 48 58 65 65 57 49 49 54 51 44 46 41 46 73 76 77 75 66 60 59 50 44 48 40 51 44 48 48 47 41 40 36 35 32 29 26 17 15 18 22 17 16
19 30 38 43 42 51 64 66 51 45 44 50 50 47 44 45 31 44 70 79 75 71 64 59 59 50 47 54 48 49 55 47 50 46 42 39 38 38 30 31 22 18 21 19 23 10 24
23 32 35 39 47 49 68 60 61 51 45 47 44 46 42 46 34 44 53 52 69 69 62 60 58 49 50 50 54 48 58 51 49 47 43 38 35 34 32 32 22 16 19 22 18 22 25
27 32 37 38 42 47 60 62 56 46 40 41 41 43 40 42 37 47 63 47 58 64 62 59 52 48 50 53 51 51 49 54 55 47 47 40 37 37 32 27 21 22 25 26 23 24 25

GFSGBSN_500_spd_033.txt.gz
Wind_Speed
55 52 50 51 49 48 48 50 53 51 50 49 47 47 46 44 43 37 35 35 34 33 32 30 30 29 30 29 27 26 26 24 25 26 25 23 25 25 9 4 4 4 6 4 2 5 9
52 52 52 53 54 53 51 51 51 52 51 50 47 48 47 46 45 40 37 35 36 32 32 30 29 29 28 29 26 26 25 24 25 24 22 21 22 21 10 3 10 9 8 6 5 3 1
51 49 51 53 57 56 54 54 51 51 51 50 49 48 48 48 46 44 40 39 35 34 32 31 31 28 28 30 27 27 26 24 24 24 20 18 19 19 14 3 11 11 8 3 4 7 6
51 50 49 51 51 51 51 53 54 52 51 50 48 49 49 48 47 45 44 43 40 35 33 33 30 28 26 29 28 27 25 24 24 25 19 16 16 16 12 2 7 11 2 11 10 12 11
54 54 52 52 52 53 52 52 52 50 51 51 51 50 49 49 49 47 46 44 41 40 34 33 31 28 26 27 27 24 21 22 23 25 18 16 14 12 10 1 0 8 8 16 12 11 8
54 54 54 55 55 55 54 54 53 52 51 50 49 49 49 50 51 51 49 48 44 43 39 33 32 30 27 27 26 24 20 21 20 24 19 17 12 11 9 3 6 12 11 10 15 11 3
61 61 61 62 62 61 59 58 57 57 56 55 53 51 50 49 47 47 48 47 47 46 40 39 33 33 28 28 28 24 20 22 19 23 21 17 11 10 7 10 14 18 19 10 15 5 9
68 68 69 69 69 68 67 67 65 64 62 60 59 58 56 53 53 50 49 47 47 45 42 40 39 33 33 30 32 28 24 21 21 23 23 20 13 10 4 9 13 19 18 12 15 18 12
74 74 74 75 75 75 73 72 71 71 70 67 64 63 61 60 57 54 54 52 49 50 46 38 38 36 32 35 31 32 26 21 22 26 22 18 16 12 7 2 8 13 11 19 19 11 15
79 80 81 80 79 79 79 79 79 77 75 73 71 69 64 63 61 60 58 56 53 54 52 42 35 37 37 35 38 31 28 27 29 24 22 18 17 13 10 5 4 8 10 17 24 19 12
81 81 82 82 83 83 83 81 80 81 81 79 79 74 71 65 67 61 64 58 56 54 53 47 40 38 39 39 35 33 29 33 29 24 26 18 18 15 13 10 9 13 13 19 12 12 14
75 74 72 71 71 73 73 70 69 68 68 68 73 73 72 71 70 63 62 61 59 55 64 52 47 37 37 39 40 35 36 35 29 30 29 26 22 18 14 17 15 16 13 17 11 8 14
52 50 48 48 47 48 48 46 43 42 42 45 51 58 62 62 62 65 65 64 61 66 58 57 51 41 35 38 38 40 38 39 36 33 30 25 22 18 19 18 17 17 15 10 13 14 13
49 48 47 47 46 44 44 44 42 40 41 43 44 43 45 55 65 69 68 65 67 70 62 61 54 41 38 38 39 39 38 39 36 34 29 26 28 21 15 20 16 17 17 17 18 19 10
44 42 41 41 44 45 44 43 44 42 40 41 43 42 41 38 60 69 75 74 71 66 58 52 46 39 40 43 39 38 38 38 35 35 36 27 25 22 24 20 24 21 22 16 20 25 23
45 45 44 45 47 48 48 48 47 48 50 51 49 46 43 43 47 55 69 80 71 60 58 52 49 44 46 44 44 42 40 40 37 38 34 25 25 28 30 24 25 27 22 24 28 21 26
49 49 50 51 52 53 53 56 59 59 57 57 57 54 47 50 54 57 62 72 69 61 60 54 48 52 50 44 42 41 40 41 41 42 41 33 33 28 34 27 23 23 27 26 22 23 22
52 53 55 57 58 59 58 62 59 62 64 67 64 63 58 56 61 62 60 45 58 65 64 62 58 59 56 49 49 45 41 42 43 44 46 38 37 37 34 28 23 21 20 22 29 24 26
55 57 61 63 63 65 66 65 65 66 65 66 71 65 63 62 63 61 53 52 40 64 70 65 65 46 49 52 47 46 44 42 43 46 48 38 44 42 31 27 30 30 30 26 29 25 34
58 62 68 71 71 73 75 72 70 69 67 66 74 75 70 68 61 59 54 52 50 62 69 69 68 62 45 37 59 52 48 48 45 41 38 42 46 41 39 28 23 23 31 31 33 34 32
66 73 79 79 78 77 74 69 69 71 70 68 79 83 75 73 66 56 54 52 57 60 72 71 71 70 54 44 50 51 52 46 41 42 45 48 48 43 38 33 26 25 25 30 30 31 29
77 87 79 65 58 57 58 57 56 64 67 68 76 78 75 67 58 57 53 58 62 55 70 75 75 65 40 43 40 41 51 50 42 46 49 48 46 42 39 38 31 29 29 28 28 29 33
67 55 51 49 49 50 52 48 50 58 64 73 67 61 62 65 63 63 55 56 57 51 67 72 75 63 63 32 41 46 33 50 49 52 52 52 47 45 43 35 34 37 34 29 28 30 29
59 63 60 56 54 54 55 56 46 55 67 67 57 55 57 51 63 55 48 59 55 50 59 74 52 55 63 58 51 51 41 35 51 53 55 54 47 45 41 38 42 25 24 22 24 26 28
54 51 49 51 55 57 57 59 57 58 62 58 45 55 55 51 47 51 59 53 54 49 60 66 59 66 55 58 49 48 47 41 49 50 56 53 46 47 44 42 34 29 25 20 22 26 26
39 40 42 47 49 48 50 56 66 57 63 51 58 52 52 42 47 52 47 53 52 44 65 67 43 54 61 55 53 50 54 46 49 51 52 54 49 47 43 40 37 25 19 17 24 29 28
22 22 30 37 43 46 53 55 67 62 51 47 49 50 48 39 40 39 42 42 48 45 61 49 58 61 59 52 52 50 48 45 52 51 47 46 48 48 43 39 31 25 19 22 27 2 22
13 13 20 30 37 46 48 60 59 56 60 48 49 50 44 32 37 35 37 39 46 49 52 64 59 60 57 58 50 55 44 49 49 46 26 47 48 44 41 37 34 22 20 23 22 28 31
9 10 16 32 40 46 46 59 51 53 51 48 50 46 42 33 37 39 27 25 35 38 51 62 47 53 54 54 51 55 46 48 50 54 34 39 45 42 42 40 27 27 21 20 24 33 33

GFSGBSN_500_spd_036.txt.gz
Wind_Speed
56 56 60 58 56 57 54 51 50 49 49 49 49 47 48 43 39 41 40 38 38 36 33 31 32 30 30 29 30 24 23 22 22 22 22 24 24 25 25 13 6 5 6 8 6 7 10
55 54 49 52 59 58 59 55 50 48 47 47 46 47 49 47 43 40 40 40 39 36 34 32 33 31 26 25 25 23 21 21 22 21 21 21 23 23 23 15 8 7 7 6 5 10 10
56 53 51 50 49 48 49 49 49 49 50 50 48 46 47 48 47 44 41 40 39 37 34 32 33 30 27 23 23 20 22 22 22 19 20 19 20 20 21 19 8 6 3 8 10 14 18
49 50 50 48 49 47 44 46 48 49 50 50 49 48 45 45 46 46 44 42 40 39 35 34 35 31 21 29 21 19 22 22 21 17 19 17 17 19 18 19 6 4 4 2 14 20 19
46 46 46 46 47 47 47 47 47 46 46 46 46 46 47 46 47 46 44 43 42 40 38 35 34 32 24 25 26 20 21 20 20 16 17 16 17 16 18 18 3 6 6 13 22 9 15
44 43 45 46 48 49 50 50 49 49 47 47 46 45 45 46 47 47 45 45 43 43 42 38 37 33 31 27 27 23 22 18 17 17 17 15 15 15 15 15 6 6 10 11 24 12 22
49 49 50 51 51 51 50 51 51 51 50 49 49 48 46 46 44 46 44 43 43 45 44 40 41 33 31 30 27 28 24 22 16 17 17 17 16 13 14 10 6 13 15 11 21 18 14
55 55 56 56 57 57 58 57 57 56 55 54 54 53 52 50 48 47 46 46 45 43 42 38 39 34 34 30 30 30 27 25 22 17 23 21 13 13 13 8 6 19 20 12 19 22 23
59 59 60 61 61 61 62 62 62 62 62 61 59 59 57 57 55 53 52 51 50 46 46 37 36 35 31 33 30 31 30 26 25 23 24 24 16 12 13 11 8 11 22 18 20 20 17
67 67 66 66 65 65 65 65 65 66 68 67 65 64 63 61 57 58 57 56 55 52 49 44 41 37 33 32 31 32 32 27 31 27 25 25 19 16 14 12 11 8 11 21 19 27 15
73 73 73 73 73 73 72 71 70 70 70 71 70 70 68 67 65 58 59 57 56 52 52 47 43 47 35 37 31 29 33 31 32 27 29 22 22 21 16 14 14 8 18 20 17 18 19
72 72 71 71 71 71 73 74 74 73 72 71 74 72 72 70 66 59 58 59 55 53 58 52 50 43 37 36 34 35 36 33 31 33 32 27 26 25 16 17 17 15 14 18 21 17 24
64 62 60 58 56 57 59 60 62 61 59 60 61 66 66 69 60 61 61 60 57 64 56 57 58 54 43 37 33 37 37 39 37 38 37 31 32 27 22 22 20 22 19 13 13 13 13
58 56 52 49 46 44 44 44 42 40 39 39 39 45 44 50 55 60 64 65 68 66 62 53 49 57 50 42 35 36 39 37 40 40 36 35 33 30 22 22 16 21 20 16 21 22 19
50 47 43 41 42 41 41 42 42 40 40 41 42 42 41 38 39 41 55 67 67 64 62 57 57 42 46 42 37 37 38 38 38 40 40 36 36 26 28 22 24 24 21 12 20 28 29
41 41 41 42 41 39 39 39 39 40 42 41 39 39 39 39 43 47 47 51 57 54 60 62 58 49 41 39 38 41 42 38 41 40 39 35 34 32 23 24 26 28 21 21 23 30 32
39 41 42 42 42 42 41 41 40 41 43 45 43 42 40 43 46 49 48 36 29 35 59 59 52 64 58 43 35 41 43 42 39 39 39 36 40 30 27 35 27 26 30 30 22 29 30
42 43 44 44 44 44 46 47 47 48 50 54 55 51 49 53 54 53 43 34 30 32 38 56 57 56 59 47 35 33 40 44 40 38 40 41 42 40 38 31 34 34 27 28 35 28 33
42 43 44 45 46 47 50 51 51 51 54 59 61 61 60 61 61 55 48 43 39 38 39 43 58 60 49 50 41 36 38 41 36 38 42 39 47 47 42 32 30 33 28 33 24 26 32
44 47 50 52 55 55 55 54 54 54 53 59 64 68 66 67 60 59 53 47 45 40 42 45 48 60 58 52 47 41 32 31 38 46 45 40 47 46 47 43 31 32 27 31 32 34 32
49 51 53 53 54 57 58 60 60 60 58 59 67 72 68 66 62 58 60 48 50 46 41 46 48 58 60 56 53 48 38 30 47 54 45 49 48 48 47 40 38 29 29 28 36 30 29
55 57 58 59 60 62 63 65 67 68 66 67 69 72 70 66 63 61 57 53 48 48 45 42 50 45 53 59 58 49 40 38 50 43 55 49 47 44 47 45 46 43 33 29 33 33 34
59 59 61 65 67 71 74 77 78 77 71 66 71 68 67 66 66 65 61 52 48 48 51 37 45 44 52 63 69 57 34 34 41 47 46 47 49 44 56 49 43 47 44 32 31 29 27
61 68 70 68 65 62 59 55 53 55 65 72 76 69 66 63 62 61 56 52 51 54 51 42 45 46 44 58 58 68 52 34 43 51 48 45 50 45 45 45 52 51 43 42 43 41 40
60 55 55 57 62 63 63 59 56 51 53 67 67 61 67 64 55 53 54 56 59 60 56 51 46 46 40 55 38 52 58 30 48 44 52 49 48 53 56 50 49 47 38 41 39 31 29
49 54 60 62 60 61 60 65 62 57 54 54 62 66 60 56 60 39 41 49 56 57 54 48 47 42 43 56 49 51 44 69 48 44 36 45 49 51 55 55 53 48 37 31 31 34 28
49 46 50 52 49 48 48 51 58 58 58 55 52 57 64 48 50 46 44 41 50 50 52 46 47 48 49 59 72 56 53 55 45 47 40 47 50 49 52 53 53 43 34 29 31 11 25
33 35 30 32 34 34 41 48 51 58 60 56 42 52 45 42 45 42 39 40 36 48 50 37 43 50 47 58 55 53 59 65 57 47 39 40 50 48 50 52 51 43 37 37 27 19 26
25 23 22 16 23 32 39 41 47 59 60 61 46 50 46 41 43 40 35 30 33 33 36 40 36 41 44 45 60 52 49 54 55 54 44 40 36 41 47 48 47 41 33 28 21 27 31

GFSGBSN_500_spd_039.txt.gz
Wind_Speed
58 65 63 58 64 61 64 62 57 55 54 53 49 46 45 46 43 41 36 33 34 34 33 33 32 31 29 27 28 19 22 20 19 17 18 17 16 17 18 21 23 9 8 8 6 8 7
63 62 65 62 57 57 63 62 61 57 56 59 56 50 45 43 42 42 41 37 37 35 34 35 34 32 26 23 29 20 21 19 18 17 16 16 15 15 14 19 21 13 6 5 8 8 5
54 54 57 59 60 56 52 53 64 64 58 59 64 57 51 43 42 41 42 39 38 37 34 35 36 32 24 22 27 18 19 16 17 18 17 14 13 14 13 16 19 10 8 8 8 9 24
49 49 50 51 54 52 53 48 48 49 56 56 53 51 51 45 43 43 40 41 39 38 36 35 38 35 20 29 25 20 20 18 16 18 16 13 12 11 11 13 16 8 9 7 4 13 16
38 40 40 42 44 43 41 45 44 44 45 45 43 41 41 42 41 41 41 40 40 38 39 38 37 37 24 27 25 22 20 21 18 17 15 15 12 10 8 11 13 12 9 9 6 14 17
38 39 32 33 35 33 34 36 39 40 39 40 41 36 37 37 37 38 37 38 40 39 41 38 39 36 34 26 27 23 23 23 23 19 15 17 13 11 6 7 8 12 13 6 13 11 13
43 40 40 40 41 40 39 39 39 39 38 37 42 39 40 40 39 37 38 37 41 41 39 36 39 37 33 33 28 27 26 25 24 20 14 22 16 9 8 7 10 12 9 11 12 16 23
47 44 43 43 45 47 45 45 44 44 43 44 43 42 43 43 42 42 40 39 42 43 41 38 39 35 33 33 30 29 30 28 24 21 24 23 12 15 12 9 10 10 10 11 10 15 19
54 54 53 50 49 49 48 47 48 48 49 48 47 46 46 46 47 47 45 44 45 44 41 32 35 38 27 39 26 33 32 30 27 26 26 24 14 21 16 12 10 10 10 12 16 20 17
61 61 60 59 57 56 56 54 54 52 51 50 50 50 49 49 49 49 49 49 50 48 45 40 33 37 33 34 34 26 30 31 32 27 25 27 21 22 20 16 12 11 12 14 29 23 26
67 67 66 66 66 62 61 60 59 59 59 57 56 55 53 53 51 48 48 49 50 48 49 44 43 44 38 37 30 28 30 33 31 28 29 21 22 24 21 16 16 10 17 15 19 31 31
71 69 67 68 69 69 67 64 63 62 61 60 61 62 61 58 52 53 50 50 50 52 51 48 47 44 41 36 35 31 34 34 31 35 35 31 28 27 22 19 19 19 20 17 20 22 28
65 62 62 63 63 62 60 61 61 61 60 59 57 60 64 64 49 55 52 51 52 57 54 51 52 52 47 40 34 36 32 37 36 34 34 32 29 27 28 24 24 24 24 22 21 22 17
60 56 51 50 54 54 50 49 49 51 51 49 48 47 54 55 52 52 52 58 62 55 55 55 51 52 55 48 42 37 36 32 34 33 35 36 34 30 26 26 21 25 24 25 18 17 12
57 52 47 43 44 46 45 42 40 40 40 40 41 40 41 39 40 39 48 58 62 59 59 53 39 52 56 51 43 42 43 39 35 34 35 37 36 26 29 27 26 24 28 15 18 24 26
50 47 43 42 41 40 39 39 39 39 38 40 41 41 36 40 41 40 44 50 50 47 50 53 48 51 40 34 21 35 43 40 37 37 35 36 37 31 31 29 29 26 23 26 26 28 28
46 44 41 41 40 39 38 39 40 40 38 38 40 41 36 39 41 46 37 21 14 30 37 53 54 60 50 50 41 32 45 43 38 38 35 36 36 34 34 37 34 31 32 32 33 33 30
44 42 41 39 38 38 39 40 40 41 39 40 41 38 37 40 41 37 25 21 19 26 26 26 40 51 61 49 49 43 42 47 40 30 38 31 36 41 40 36 40 33 32 33 38 30 30
40 41 38 38 38 39 39 38 40 42 42 42 44 44 41 43 40 33 28 28 28 28 32 32 32 32 43 56 51 47 43 38 43 43 44 33 40 45 45 42 41 40 35 36 32 34 39
40 37 36 37 37 36 37 38 40 43 46 48 50 51 49 47 40 37 35 32 33 35 34 34 30 34 35 53 52 60 55 40 42 43 42 38 40 46 43 41 40 42 39 37 36 38 33
36 35 36 38 38 38 40 42 43 45 47 51 60 59 55 50 41 43 46 42 38 37 37 40 37 35 33 37 58 58 49 50 46 46 48 43 41 44 47 47 43 46 40 37 37 32 37
35 36 37 40 43 44 45 46 47 48 51 56 61 60 59 55 51 49 49 41 38 38 44 42 39 35 33 37 34 50 54 54 56 50 49 48 47 47 50 50 47 52 49 38 36 31 32
39 41 42 44 48 50 51 51 51 55 56 57 58 59 62 61 60 56 50 44 42 45 46 45 42 42 42 31 40 50 54 59 63 41 40 56 52 50 52 51 50 55 50 54 41 34 32
46 47 50 52 53 54 53 52 53 56 59 59 61 60 58 63 64 61 56 51 46 50 49 50 47 45 32 38 39 41 45 57 65 51 38 42 57 58 51 53 56 41 48 52 52 38 38
52 57 59 59 59 59 63 64 65 67 69 64 59 58 54 57 56 54 54 54 49 53 55 53 49 44 46 39 40 44 45 54 55 43 28 27 40 58 58 56 50 48 47 44 48 49 44
56 58 60 63 64 64 62 61 61 61 57 54 55 59 58 60 62 43 40 44 53 58 60 57 51 48 48 44 45 43 47 47 56 50 43 30 27 50 47 48 53 46 48 41 44 49 46
49 45 43 44 48 52 55 57 58 58 59 57 55 55 65 58 35 59 54 50 44 48 52 51 52 52 51 54 48 44 49 43 49 64 61 51 47 39 47 45 40 44 39 37 45 43 36
36 39 41 41 43 45 48 51 52 51 50 53 60 53 57 66 53 47 51 47 45 36 42 43 48 54 51 55 52 51 52 41 46 38 40 44 51 30 43 50 47 45 38 47 38 31 27
37 36 35 39 41 37 38 44 45 50 52 52 51 53 48 51 61 41 33 38 47 41 34 39 46 47 51 53 46 45 50 46 39 39 33 39 44 47 27 49 41 41 38 35 40 37 34

GFSGBSN_500_spd_042.txt.gz
Wind_Speed
54 55 56 59 63 66 58 60 57 64 62 60 59 61 54 49 45 44 43 43 39 37 35 32 32 31 30 20 21 21 21 25 25 20 19 15 15 9 7 11 15 16 15 8 4 7 5
52 54 54 57 62 60 62 58 64 59 64 61 64 56 55 47 48 42 43 44 44 40 37 35 33 32 30 20 27 21 19 22 24 20 18 15 16 11 6 11 13 15 8 9 6 5 6
42 40 48 51 54 56 54 58 59 59 57 63 61 61 55 53 50 54 49 43 43 40 40 39 36 33 28 26 28 17 21 20 22 22 18 16 15 13 7 8 11 12 7 7 6 7 8
37 36 33 34 35 46 48 45 46 46 65 62 67 63 59 49 52 56 57 51 45 42 39 43 39 35 24 33 29 19 23 22 19 21 21 17 16 14 9 8 9 9 8 7 11 14 10
36 35 36 36 37 31 33 35 38 38 44 51 53 53 57 67 62 56 57 59 46 44 41 40 40 36 26 31 31 26 19 23 21 21 23 18 17 15 12 10 10 9 10 10 13 10 6
40 40 38 34 39 35 35 23 28 24 26 35 33 41 40 44 55 50 49 44 46 42 44 40 40 36 31 33 30 28 24 26 24 24 21 20 18 17 14 10 13 11 10 12 19 10 8
41 42 39 39 38 37 33 34 27 30 28 28 27 25 32 35 30 31 30 29 40 46 48 40 41 37 32 33 32 32 29 27 25 23 20 23 18 13 19 14 17 14 12 15 14 9 15
46 46 47 44 42 40 38 36 33 32 34 32 32 31 31 28 26 31 29 31 35 41 39 39 39 33 32 36 33 32 34 31 29 23 27 26 12 20 22 18 17 15 15 14 13 12 19
52 52 50 50 51 48 45 42 39 36 35 36 35 35 34 34 34 36 35 35 37 38 35 28 31 35 29 41 28 34 35 33 33 32 29 28 15 26 21 21 18 17 15 14 13 16 22
59 58 58 56 57 56 55 51 47 43 41 40 39 38 37 36 37 39 39 40 38 37 39 31 33 34 31 35 37 26 30 34 36 33 30 34 26 28 22 21 20 19 20 16 18 21 26
64 64 65 64 64 63 62 59 57 55 51 48 45 44 43 41 39 39 38 40 40 39 40 33 34 40 35 35 29 26 27 33 34 31 36 27 25 28 27 18 24 18 25 19 17 23 24
70 71 72 73 73 70 67 64 60 59 57 54 52 52 50 44 43 44 39 39 38 40 42 38 37 36 35 37 36 31 34 33 32 35 37 34 31 34 29 25 25 23 24 23 22 24 22
75 77 76 74 71 67 64 63 59 57 57 56 56 56 57 50 48 48 44 44 44 43 43 44 45 43 38 37 37 33 36 38 37 36 34 32 33 32 32 30 28 25 27 25 26 27 19
72 73 72 71 63 56 53 52 52 53 53 54 56 56 56 49 54 53 49 49 48 44 42 49 46 46 44 43 41 37 36 38 38 38 39 36 35 32 29 29 26 28 27 28 28 25 20
69 68 65 61 58 54 47 46 47 49 50 50 51 51 49 41 50 52 54 55 50 48 49 50 53 50 50 41 41 46 44 41 39 38 39 37 37 29 30 27 27 27 33 25 30 29 28
55 53 51 50 48 46 43 41 42 42 42 44 47 46 39 40 46 47 52 54 52 50 44 47 46 50 52 52 48 46 47 47 45 44 39 35 36 31 32 33 34 35 27 31 36 34 31
54 52 49 48 46 43 40 36 34 35 35 37 40 42 34 38 43 46 47 43 41 38 41 44 44 49 54 47 54 52 44 50 51 48 46 41 41 34 36 40 36 38 36 35 36 39 35
50 49 46 43 41 38 38 35 31 32 32 34 38 38 36 37 40 39 31 24 28 29 35 29 39 42 55 50 42 45 39 41 53 55 50 51 47 46 37 36 38 39 38 36 40 39 36
46 41 41 38 37 36 37 35 34 32 33 36 41 40 40 38 36 31 27 29 31 32 31 27 23 20 41 49 47 44 43 44 45 52 52 49 45 48 42 41 43 45 43 42 40 39 40
42 41 35 32 33 35 38 34 36 36 36 40 43 42 42 37 32 34 36 34 31 32 30 25 23 23 23 34 55 46 42 43 36 42 43 45 45 47 49 43 42 46 47 41 42 43 39
41 35 32 33 35 37 36 37 38 38 39 41 46 41 41 37 37 35 33 33 33 32 30 29 27 23 22 21 25 28 55 48 51 40 52 45 46 50 50 49 50 47 46 42 42 45 45
35 35 35 36 37 37 37 38 40 41 40 45 45 43 42 42 41 39 38 34 33 37 35 33 30 29 29 26 29 27 31 44 61 60 47 50 45 45 52 52 50 55 52 49 45 46 45
35 37 35 35 35 36 37 39 41 43 45 48 45 46 48 48 47 45 35 28 36 40 41 38 36 36 36 35 32 30 31 34 39 56 67 56 48 54 49 52 50 58 50 53 49 47 47
34 33 35 37 38 41 41 42 40 42 48 51 49 51 54 53 53 41 42 44 41 39 40 40 41 45 41 39 40 38 36 37 39 39 43 59 60 59 42 56 60 52 52 52 51 52 52
36 37 40 41 42 44 46 47 47 47 47 49 49 50 52 56 51 50 46 46 48 46 45 42 41 43 46 42 44 43 39 39 39 40 40 49 54 62 37 47 54 56 49 47 52 51 52
40 43 44 45 47 48 50 52 54 54 52 53 53 51 52 53 52 44 49 50 51 48 49 45 40 42 47 47 45 44 43 42 41 41 43 47 50 56 41 28 15 51 50 45 48 50 47
46 49 50 51 53 55 57 57 57 56 56 58 58 57 56 57 53 52 53 51 46 46 46 44 43 43 46 49 52 51 49 48 46 40 48 43 42 51 60 50 28 32 50 49 51 44 40
50 53 53 50 47 46 46 46 46 47 47 49 49 47 48 54 50 51 46 49 48 46 49 46 44 49 51 54 56 55 52 50 49 44 41 39 36 49 60 50 24 20 31 48 49 49 43
37 40 42 43 43 43 44 45 47 49 50 49 49 42 42 46 58 52 47 47 53 42 44 45 40 38 44 52 55 55 56 54 48 45 40 37 29 31 48 33 26 29 39 43 40 42 41

GFSGBSN_500_spd_045.txt.gz
Wind_Speed
50 49 51 53 54 55 56 56 55 59 57 53 54 55 54 55 56 53 48 44 49 41 43 42 40 36 35 29 25 31 23 23 21 20 21 22 19 21 17 15 11 14 16 14 11 10 5
41 39 42 42 43 44 49 51 53 57 59 53 54 56 53 63 59 52 54 48 57 44 44 42 41 38 36 28 35 31 25 23 23 22 18 23 24 17 15 17 12 14 14 14 13 10 7
34 33 34 34 33 36 35 34 41 46 49 49 51 54 58 56 60 59 52 57 51 45 46 44 40 41 35 30 37 31 29 26 26 23 20 25 26 16 17 19 14 14 15 14 13 13 7
32 33 32 33 32 32 34 34 33 34 37 43 45 48 57 57 59 61 57 47 48 48 48 50 44 40 33 37 35 33 33 29 25 24 24 23 23 20 17 20 15 15 18 16 15 16 7
34 35 35 36 35 33 33 35 32 33 29 30 37 41 46 51 58 61 57 50 53 53 51 50 51 45 31 39 36 33 31 31 29 26 26 23 20 20 19 19 18 17 19 17 18 14 14
36 37 37 37 36 35 34 34 31 30 30 29 19 25 33 41 56 59 54 53 48 49 49 48 47 46 32 37 37 35 33 36 31 30 28 23 20 19 18 17 19 20 20 17 18 20 19
40 41 42 40 40 38 37 37 34 32 31 29 25 26 20 14 27 54 51 50 52 57 59 52 48 49 37 36 37 38 35 36 36 32 29 25 23 13 18 21 22 19 21 18 18 23 23
44 46 46 44 43 42 42 39 36 34 32 30 31 24 26 27 24 16 25 44 47 51 47 52 47 44 36 38 39 37 37 36 36 32 32 30 16 16 27 23 22 17 19 19 18 25 27
48 50 50 50 48 47 46 45 45 41 37 32 33 31 27 30 29 26 23 22 28 44 49 36 37 37 31 45 34 37 37 37 37 38 34 31 23 26 32 27 24 18 17 19 23 25 28
53 54 54 54 53 51 50 49 48 49 47 46 40 35 32 35 32 30 30 27 27 26 34 32 30 32 37 44 41 32 36 36 38 37 35 39 30 32 33 26 24 21 19 23 25 28 29
57 57 58 57 56 56 55 53 55 56 55 53 51 47 38 36 36 36 30 31 33 28 34 26 36 36 36 38 35 30 32 36 35 33 38 35 29 31 36 23 30 20 29 24 27 30 29
59 59 60 60 60 60 59 60 61 60 57 54 50 51 51 41 39 37 36 35 33 33 35 29 29 33 36 37 36 31 37 36 32 34 37 39 34 38 35 32 35 26 31 29 30 31 29
61 61 62 63 62 63 65 63 62 61 59 56 55 53 51 51 46 44 39 38 39 35 36 37 37 33 32 33 37 35 36 34 34 33 33 35 37 38 39 37 34 31 31 32 33 31 25
61 60 61 63 64 63 62 62 63 62 60 56 52 53 53 50 54 50 45 43 39 36 41 45 41 39 39 37 35 33 36 40 39 38 36 35 35 34 35 35 30 31 31 37 33 31 27
60 57 57 59 61 61 61 60 59 57 50 47 49 52 51 50 54 53 52 49 44 42 45 46 48 46 39 38 41 36 37 39 40 42 42 41 40 35 34 36 36 35 39 31 37 37 33
58 54 54 55 56 55 53 50 46 46 45 46 49 52 50 50 54 54 56 51 49 50 50 48 44 46 47 44 41 42 41 43 44 44 44 44 43 40 36 38 40 40 34 36 40 40 33
55 51 52 52 54 51 48 46 43 43 41 43 41 44 45 45 49 55 54 52 54 49 48 43 44 47 46 48 47 46 44 46 47 48 48 46 45 40 38 44 42 40 39 39 39 41 37
51 50 51 53 51 49 49 46 43 41 39 37 34 39 39 38 44 47 48 51 46 45 40 36 39 46 50 51 50 48 47 49 52 51 51 51 49 47 42 42 41 43 44 42 45 44 41
49 50 50 50 49 49 42 39 38 36 36 35 35 36 34 33 40 38 41 39 41 38 33 35 37 44 48 53 51 51 44 46 49 53 55 55 55 53 49 44 46 47 47 46 45 46 44
48 48 50 50 45 38 41 38 34 34 37 40 39 38 36 31 30 31 34 33 34 33 30 33 33 32 35 46 55 49 43 46 44 48 52 55 55 56 58 53 50 53 51 50 48 47 47
45 46 48 44 39 42 37 35 35 36 37 42 44 36 34 28 28 29 31 31 31 30 27 27 27 27 27 27 35 56 49 45 47 44 48 47 49 57 58 58 53 54 55 52 51 49 50
42 45 45 42 42 37 31 30 34 37 41 45 44 43 42 37 32 30 30 27 30 32 30 27 29 29 31 27 29 35 57 49 49 48 52 45 51 51 60 56 53 53 54 54 53 53 49
42 46 42 41 36 34 32 33 37 40 44 43 41 44 44 40 33 28 29 31 30 30 27 28 29 30 30 30 31 30 31 45 55 51 47 52 55 50 46 47 51 54 46 55 56 55 53
43 42 40 36 35 36 36 38 39 42 44 44 45 45 45 41 34 33 32 31 31 28 28 28 29 33 31 33 34 33 32 32 32 33 40 45 53 59 55 53 57 51 45 52 53 57 57
41 37 36 36 38 38 39 41 41 41 42 42 41 42 43 44 42 38 37 37 37 37 35 33 31 33 39 38 40 38 36 34 31 33 35 37 42 45 44 54 72 47 37 38 54 54 55
36 37 38 38 39 39 40 43 44 45 47 47 47 46 45 48 45 45 43 42 40 39 42 40 34 36 42 46 45 44 42 38 38 38 37 38 38 40 41 42 53 50 45 40 50 57 46
31 34 37 39 41 43 45 46 46 47 49 51 51 49 47 45 50 49 46 46 46 46 46 44 38 39 42 45 47 47 46 45 43 42 42 40 39 39 38 43 43 53 47 34 39 48 47
32 35 38 40 43 45 47 50 51 51 51 52 52 54 51 49 50 50 50 50 49 49 47 47 43 43 45 48 49 48 47 46 47 46 45 43 42 39 38 36 39 48 46 34 34 44 50
36 39 42 45 47 50 52 54 54 54 54 55 54 53 52 56 52 52 51 49 48 48 46 47 48 46 44 47 48 48 48 48 47 48 48 47 43 41 35 33 26 30 48 41 25 35 37

GFSGBSN_500_spd_051.txt.gz
Wind_Speed
55 56 51 50 47 45 43 43 44 46 43 41 43 44 45 47 49 50 54 51 51 49 48 50 48 43 42 34 32 34 33 29 27 27 27 26 27 27 25 18 16 16 22 16 18 16 15
53 52 51 49 47 43 41 40 39 39 39 40 41 42 41 43 47 44 43 44 49 50 48 44 49 50 35 34 37 38 34 28 29 29 28 28 28 28 27 19 15 17 21 18 18 17 14
51 49 49 47 45 42 39 37 37 37 38 38 39 39 37 36 40 43 36 38 43 47 48 48 46 44 43 39 43 36 34 32 30 30 29 31 29 27 27 24 18 17 19 17 19 17 15
51 48 48 45 41 39 40 40 39 38 40 39 36 34 35 34 36 36 38 35 38 41 45 46 42 47 39 45 38 34 35 33 31 30 31 34 29 28 25 26 23 20 16 17 20 17 16
50 48 44 40 40 40 41 41 40 39 38 38 37 33 32 32 35 31 33 33 32 36 41 44 38 36 41 44 43 37 36 35 34 36 35 34 33 29 26 24 26 21 17 20 18 17 17
47 45 42 41 42 43 43 42 40 40 40 39 36 34 34 33 32 30 31 27 29 33 38 40 40 41 38 43 46 40 40 40 38 39 39 34 33 32 23 24 21 22 25 19 17 17 18
46 45 44 45 46 47 45 43 42 42 42 40 39 37 36 32 33 30 27 31 26 22 27 34 43 41 40 47 41 40 45 43 40 43 39 35 35 28 21 21 27 27 23 19 18 20 20
47 47 47 48 49 48 46 44 45 44 43 43 42 39 37 34 33 33 27 29 27 23 12 28 30 37 44 43 40 40 44 45 42 42 39 41 33 27 28 28 29 25 23 19 23 22 24
49 48 50 50 50 49 48 47 46 45 45 45 45 43 39 36 34 35 32 27 26 25 12 12 24 25 38 39 38 42 47 43 43 43 42 41 30 34 32 29 28 27 23 24 24 26 26
51 51 52 52 51 51 50 49 49 48 49 48 48 46 41 38 36 35 31 30 29 24 21 15 21 21 27 34 38 39 49 43 40 43 39 43 38 37 36 33 32 28 24 26 26 30 27
54 54 54 54 54 53 53 51 50 51 50 50 49 47 42 40 37 35 34 31 30 25 28 17 16 18 21 26 32 41 45 43 39 42 42 39 35 37 39 31 33 26 28 28 30 32 28
58 57 56 56 56 56 55 53 52 52 51 51 50 48 44 43 39 37 37 34 31 30 29 23 21 16 18 22 28 30 41 45 42 44 45 43 40 41 39 34 34 32 33 34 35 32 30
61 60 59 58 58 58 57 56 56 56 56 55 53 51 48 46 44 40 40 38 35 34 31 29 26 24 19 20 27 28 34 37 35 40 43 40 41 41 39 39 40 37 34 36 39 35 28
66 64 63 62 62 62 62 61 60 58 57 56 56 55 52 49 47 44 42 43 42 40 35 34 33 30 23 25 22 29 31 32 34 35 34 31 33 38 38 38 35 35 35 36 37 33 32
71 70 68 67 66 65 65 63 60 58 56 55 56 57 52 51 50 48 47 47 47 44 39 39 38 35 33 23 30 23 31 33 39 35 36 34 33 32 34 35 38 38 40 32 36 37 38
72 70 68 67 66 65 64 60 57 56 54 55 55 55 52 50 52 53 54 53 50 48 47 42 43 37 34 33 29 30 28 30 33 43 41 40 38 37 35 38 40 39 35 37 39 39 37
73 72 70 68 64 62 60 56 54 53 52 54 54 53 48 50 50 54 57 54 52 47 51 49 43 41 38 34 33 36 35 34 34 36 38 43 41 39 41 38 37 37 38 39 38 39 40
74 72 70 70 68 65 61 56 54 52 52 52 51 51 47 45 48 52 53 53 48 44 49 51 46 40 39 38 36 37 40 38 39 39 39 41 43 43 41 39 38 40 41 41 42 41 42
69 70 70 69 68 64 60 56 54 52 52 51 49 47 43 45 49 52 52 50 46 40 46 49 46 41 41 38 39 39 41 44 42 43 41 45 48 47 45 42 41 43 43 43 45 45 43
66 69 69 67 65 61 57 54 52 51 51 50 47 45 44 48 48 46 45 43 40 33 37 41 38 37 40 43 45 44 43 44 44 45 43 45 44 45 43 44 46 47 47 48 49 49 49
57 59 64 66 63 59 56 52 50 50 49 48 46 42 44 40 37 34 37 37 30 27 30 30 30 28 35 43 50 49 49 48 47 47 48 47 47 45 42 40 40 44 45 46 47 48 50
38 38 47 53 57 56 54 52 49 49 47 46 43 42 39 36 37 37 36 30 25 24 27 25 25 27 34 38 42 52 52 52 52 50 48 50 49 48 45 42 43 43 42 44 44 47 49
33 31 35 42 45 49 49 48 48 46 46 43 41 40 35 33 31 32 28 25 22 25 25 23 25 27 28 34 38 38 44 50 50 49 48 49 46 45 44 40 40 46 42 43 43 44 48
33 31 30 35 41 44 45 46 45 44 43 42 40 38 36 30 30 28 26 25 25 23 22 19 22 24 26 28 31 35 35 37 41 43 47 45 44 45 46 44 44 43 35 32 42 44 50
29 29 31 31 32 37 40 41 41 41 42 41 38 36 32 30 29 28 22 21 21 20 20 18 17 18 27 24 25 29 32 31 29 28 29 34 45 51 44 43 42 38 35 35 35 38 43
27 27 27 29 32 34 36 38 38 39 39 39 36 32 31 31 31 25 22 20 19 20 18 16 18 21 23 25 24 26 27 27 26 25 23 19 18 23 28 26 15 15 23 25 23 29 34
23 23 24 26 28 31 33 35 36 36 38 36 35 31 30 35 27 22 21 21 21 20 19 19 19 21 24 24 24 23 26 26 26 25 22 20 20 19 20 19 13 19 22 23 22 23 26
20 20 20 22 24 27 30 32 34 36 36 39 35 32 31 31 23 22 21 23 23 22 22 19 20 21 24 26 26 24 25 25 26 27 26 26 25 24 23 18 17 21 25 26 25 24 26
18 19 20 22 25 27 30 32 33 34 38 40 36 33 31 32 25 24 26 27 26 27 28 25 23 24 25 29 29 27 27 26 27 28 29 29 28 28 26 24 25 29 33 33 32 28 30

GFSGBSN_500_spd_054.txt.gz
Wind_Speed
50 49 50 51 51 53 52 49 45 42 41 40 39 38 39 40 42 43 45 48 49 51 48 47 46 44 43 48 45 40 35 37 35 33 31 31 31 28 24 23 22 19 23 22 25 21 13
51 49 50 53 51 52 51 48 45 42 41 39 38 38 37 39 40 41 42 44 47 45 41 39 41 43 43 43 49 38 37 38 36 34 32 32 31 29 26 22 21 20 23 22 22 23 15
55 55 51 50 51 49 49 48 45 43 40 40 38 37 38 40 39 40 42 40 41 42 39 35 37 41 40 45 49 41 40 40 37 34 34 34 32 29 26 25 22 21 23 22 20 23 17
56 53 51 48 48 47 49 48 46 43 40 38 37 37 37 37 39 40 37 36 37 37 39 33 35 40 40 46 43 38 39 43 41 38 35 35 32 28 26 24 22 22 24 22 22 24 18
55 53 50 46 47 48 49 47 48 43 40 40 37 37 37 38 38 39 38 37 34 32 37 29 31 35 37 43 40 38 36 41 48 42 38 37 33 28 26 25 24 21 22 22 26 25 20
55 50 49 48 48 49 47 48 45 41 43 42 40 39 39 39 39 38 37 36 35 32 27 32 28 29 35 39 36 46 39 40 44 41 40 38 35 29 27 26 20 21 22 27 26 26 19
50 48 51 50 48 49 48 45 45 45 45 44 43 42 41 40 38 37 37 37 34 29 24 29 25 25 31 36 33 34 39 38 40 44 41 37 37 32 23 26 25 24 23 23 26 25 21
50 50 49 50 49 50 50 50 48 47 48 45 44 43 43 41 40 39 36 37 34 30 19 32 30 19 27 32 31 34 37 36 40 44 41 42 40 27 33 31 29 28 27 24 25 25 23
54 54 51 50 50 50 51 51 50 50 49 47 46 45 44 43 40 40 37 38 35 29 23 25 28 27 22 28 33 37 38 39 38 44 48 44 35 32 36 33 31 27 26 26 24 26 27
55 54 52 51 51 51 52 52 51 52 51 49 47 47 46 44 42 41 39 39 36 27 24 24 25 24 23 18 23 39 43 40 36 43 49 51 41 39 40 36 31 29 27 30 29 29 25
56 56 56 53 54 53 53 53 53 52 52 51 50 48 47 44 42 41 39 38 37 29 27 23 22 16 18 18 18 27 34 39 40 44 48 39 42 40 39 32 34 27 34 32 33 31 30
58 59 59 59 57 57 54 54 55 54 53 52 52 49 48 45 43 41 38 37 36 31 29 25 23 21 18 19 18 21 28 35 36 44 48 44 43 42 43 36 37 37 36 36 34 35 32
63 63 63 62 61 59 57 55 55 55 54 53 53 50 50 49 47 43 41 38 38 33 30 29 26 25 23 21 17 19 23 26 34 43 45 39 41 43 43 41 38 40 38 36 36 41 33
72 71 68 68 65 63 62 58 56 56 55 55 54 53 52 50 49 45 43 41 40 37 32 31 28 29 27 24 22 18 22 23 23 40 37 36 38 42 43 41 37 34 33 37 40 41 33
76 76 75 73 70 67 65 62 60 59 58 57 56 55 53 51 50 48 47 45 43 42 35 34 32 31 32 28 22 23 20 23 24 24 36 33 36 39 43 41 41 40 42 38 40 41 39
77 76 75 71 69 67 64 61 60 59 59 58 57 55 50 50 50 51 51 49 45 43 42 37 34 34 33 33 31 27 26 25 23 24 31 32 35 32 29 33 37 40 42 42 44 44 42
57 59 64 68 69 66 64 62 60 57 57 56 54 53 50 48 51 53 52 50 46 42 45 42 38 34 35 37 34 33 34 28 27 26 26 34 31 34 31 33 31 33 37 39 43 43 41
51 51 51 55 58 61 64 63 61 58 58 55 52 50 50 49 50 51 49 47 46 40 44 42 39 38 35 38 39 37 36 36 31 27 27 31 38 33 35 35 33 32 34 34 38 42 40
53 51 53 55 56 58 59 59 60 59 59 56 53 48 48 49 50 46 45 45 44 39 40 43 43 38 36 37 40 40 40 38 37 34 32 31 34 38 41 39 38 38 37 36 37 36 39
48 47 49 50 51 53 56 59 57 56 55 54 53 50 48 49 45 43 42 40 40 40 43 43 42 40 37 36 41 41 41 42 37 37 35 34 34 35 38 42 42 40 40 40 38 38 38
46 46 45 47 55 56 57 57 57 55 53 51 49 45 46 46 43 41 39 38 41 40 36 36 39 34 32 36 41 43 45 44 44 37 31 33 38 38 37 38 39 40 40 41 40 40 42
43 41 40 42 41 40 43 52 54 52 51 50 45 42 43 43 42 39 38 36 34 28 30 30 31 30 28 30 38 49 48 48 47 45 45 43 37 31 35 35 32 36 39 42 44 43 44
39 39 39 38 36 37 35 43 47 49 49 47 44 43 43 40 38 37 35 32 30 29 27 26 29 26 27 30 36 43 52 51 48 47 43 43 42 41 39 37 37 39 35 34 35 36 38
36 35 36 34 32 32 30 37 43 45 45 44 41 40 39 36 34 31 28 26 25 25 24 27 25 24 26 28 30 36 41 46 51 50 48 46 37 38 37 32 42 42 35 36 35 35 40
32 32 31 29 29 28 28 33 39 41 41 41 40 38 35 35 31 28 26 25 27 27 28 29 23 21 17 24 25 29 31 34 36 38 46 48 45 44 42 44 44 41 37 32 34 35 37
28 27 27 25 26 25 28 30 35 39 39 40 36 35 36 34 28 26 29 28 26 29 28 23 15 16 20 23 25 26 26 27 28 29 32 36 37 37 38 41 41 39 31 28 31 34 41
25 23 22 22 23 24 26 31 32 35 37 36 34 33 33 29 24 31 31 30 28 26 22 17 17 15 24 23 26 26 25 25 23 26 27 26 25 21 19 20 22 21 24 23 22 23 22
22 20 19 19 19 21 24 27 30 33 35 35 31 32 30 25 32 34 32 28 24 22 19 17 16 21 26 24 25 25 23 24 25 23 25 24 21 19 17 17 16 17 19 21 19 18 18
18 18 16 15 17 20 22 24 27 30 31 32 31 28 27 32 34 34 33 22 22 24 23 20 17 20 27 26 26 24 23 23 23 25 24 24 20 18 19 19 23 23 22 21 21 21 23

GFSGBSN_500_spd_057.txt.gz
Wind_Speed
51 52 54 52 50 48 46 49 49 45 45 48 45 43 42 40 39 38 40 41 42 43 41 43 47 49 48 44 47 48 44 48 45 42 37 35 35 35 33 30 31 27 23 24 25 24 23
51 49 50 54 51 50 49 50 49 48 46 43 44 43 41 41 41 39 40 41 41 38 38 41 46 50 48 37 40 47 44 46 52 44 41 37 34 35 33 34 33 26 24 23 24 24 25
49 50 51 53 54 50 51 52 50 48 44 44 44 41 43 41 41 39 40 40 38 38 38 38 41 45 46 36 37 42 46 44 46 44 41 38 38 38 35 33 31 28 24 24 21 24 23
53 52 53 51 53 52 51 52 51 49 45 44 45 43 43 42 41 39 39 40 37 37 38 39 40 43 41 34 38 40 46 41 41 43 43 42 41 39 37 32 30 28 23 22 21 24 22
51 50 52 49 51 49 52 51 48 48 46 45 45 43 42 42 40 40 38 40 38 37 37 37 38 41 40 33 35 37 42 42 43 50 42 42 42 39 36 33 30 28 21 21 19 25 24
52 51 50 50 49 51 49 49 47 48 48 46 43 43 43 41 40 41 41 40 38 36 37 36 36 37 38 37 31 30 34 40 38 52 48 46 43 39 38 36 27 26 24 19 18 20 25
53 52 52 50 49 49 47 47 48 48 49 48 46 45 42 42 44 43 42 41 40 37 36 36 37 35 39 40 32 27 31 36 36 49 50 48 44 42 37 30 27 29 20 20 20 22 27
54 54 51 51 50 49 49 49 48 47 49 50 49 47 44 44 44 45 43 40 39 39 33 35 36 36 36 38 31 27 27 29 38 35 48 54 50 42 36 34 35 30 24 26 25 30 23
51 52 52 52 52 52 51 52 51 50 50 50 51 49 46 45 45 45 43 41 40 37 36 36 36 35 32 33 28 28 27 31 36 38 41 47 47 41 38 39 38 32 28 28 29 26 24
51 52 52 52 52 52 53 51 51 51 51 51 51 50 48 47 46 45 43 40 38 37 37 37 35 36 29 22 25 27 23 29 32 37 40 45 45 43 41 42 36 33 28 30 33 29 26
52 52 53 53 53 53 53 54 53 53 53 52 50 50 49 48 47 44 43 41 37 35 35 35 32 32 28 22 22 25 19 25 30 34 41 43 48 47 45 46 34 29 35 37 37 31 29
54 56 57 59 59 58 56 56 56 56 55 53 51 51 49 48 48 46 44 42 38 36 38 32 30 30 28 26 21 24 21 16 25 36 40 46 46 50 49 42 41 33 39 40 36 31 35
57 58 59 60 63 64 65 61 59 59 57 56 53 51 50 49 48 47 45 43 39 37 35 33 28 28 26 25 20 22 23 26 17 32 40 41 47 46 46 47 44 39 41 39 34 35 34
60 61 62 63 66 67 68 68 66 64 62 60 56 53 50 48 47 47 47 46 43 39 36 31 29 26 27 24 23 22 24 23 24 19 30 36 41 47 43 43 47 43 37 37 35 30 28
63 65 68 69 71 71 71 71 69 67 64 63 59 56 52 49 48 49 49 49 43 40 37 32 31 27 28 26 25 24 24 26 22 20 15 33 36 29 38 39 46 40 44 35 32 24 25
64 67 69 70 70 68 67 65 67 66 61 59 58 56 53 52 51 52 53 50 43 39 38 35 32 30 29 29 27 27 30 27 26 22 20 24 34 33 38 36 40 43 33 38 42 39 32
65 67 67 61 57 53 51 53 57 60 59 57 55 53 53 51 51 53 54 46 40 40 38 35 34 32 30 30 31 30 35 33 30 26 24 20 26 27 35 39 35 39 41 44 36 40 29
63 64 56 52 50 50 49 47 48 52 55 56 55 51 50 49 51 52 51 44 42 39 39 35 35 32 30 31 32 32 34 34 32 29 23 23 28 26 23 26 32 32 37 37 40 27 31
67 57 51 50 51 50 49 47 47 47 50 52 55 52 50 51 51 49 47 44 42 39 37 38 37 35 32 30 31 33 35 38 34 32 28 27 24 23 18 28 30 30 28 28 34 34 29
60 51 51 50 48 45 43 42 42 43 45 50 52 52 51 52 49 46 45 44 41 39 37 37 37 37 36 34 34 34 35 38 36 34 33 32 25 23 27 20 20 25 30 29 30 32 31
49 48 47 42 40 41 41 41 41 42 44 47 51 49 48 49 47 46 45 42 40 38 36 36 36 36 35 36 37 36 37 40 38 33 31 33 31 26 29 35 35 28 32 30 31 30 29
44 40 39 40 41 40 39 38 39 42 44 53 49 47 46 44 43 45 44 42 38 36 33 34 33 33 35 36 36 34 38 43 42 42 35 34 31 35 34 31 30 33 34 35 34 34 32
36 36 37 37 36 37 37 37 37 38 40 43 47 46 46 45 42 42 40 38 35 33 32 30 28 26 26 23 31 34 42 46 47 46 45 37 32 35 30 27 30 35 31 32 32 34 35
34 34 34 33 34 33 35 36 36 36 34 37 42 44 45 42 41 38 37 35 33 31 29 27 27 25 26 27 29 32 38 45 49 47 47 50 40 33 30 30 28 26 33 29 29 28 29
32 33 31 30 31 32 32 32 33 31 30 36 36 35 41 40 37 34 32 31 30 30 31 31 29 27 27 25 27 32 32 37 42 47 49 50 50 51 47 47 39 40 40 32 31 28 35
29 29 28 28 29 29 30 29 29 27 31 37 37 34 38 36 33 32 32 31 29 28 30 31 30 28 28 30 26 27 25 24 27 32 44 51 49 48 38 39 41 39 40 32 32 30 42
25 25 25 25 27 26 26 26 26 27 30 35 35 35 37 35 31 30 29 27 28 31 31 30 30 32 21 17 24 23 24 25 23 24 27 37 40 44 46 43 41 43 46 36 35 34 41
20 22 23 23 23 22 23 24 25 28 30 34 32 34 34 30 28 30 29 31 33 34 27 30 27 28 22 24 24 21 23 23 24 19 20 23 26 27 29 26 32 24 24 26 32 39 34
17 19 20 19 19 19 20 21 24 28 30 31 32 31 29 26 29 29 32 35 36 31 30 29 22 24 26 28 20 21 21 21 20 24 18 21 21 23 24 23 18 19 21 19 23 25 24

GFSGBSN_500_spd_060.txt.gz
Wind_Speed
56 55 59 62 59 56 51 49 51 50 47 46 46 46 44 44 44 43 41 40 40 41 42 41 42 44 47 45 44 45 45 39 39 41 42 45 46 42 40 38 35 36 33 31 27 29 27
53 52 49 54 58 57 50 49 49 51 48 47 47 47 45 45 43 42 40 39 41 42 42 42 43 45 43 41 44 42 43 37 39 40 44 45 42 42 40 39 39 34 33 31 30 29 26
55 49 46 48 46 49 46 46 49 51 50 48 49 47 44 42 41 40 41 41 41 42 41 42 43 42 37 40 43 40 39 37 38 38 43 42 49 47 42 42 39 38 38 34 30 26 25
48 47 47 46 45 46 49 53 54 51 50 47 47 47 46 42 40 40 41 42 42 41 41 44 41 40 36 39 39 40 39 36 37 39 43 41 44 45 46 42 41 39 36 31 24 28 21
48 45 45 45 45 47 47 46 47 47 47 46 45 45 44 41 42 41 41 42 43 43 43 42 39 39 39 38 36 36 39 36 34 40 44 42 52 49 43 38 37 36 32 27 26 23 22
48 47 45 47 46 47 46 46 46 46 47 45 44 43 42 42 43 43 43 43 45 43 42 40 39 39 37 38 34 34 36 36 31 34 39 40 54 47 43 43 42 33 29 26 21 16 18
47 48 48 49 50 49 45 46 45 44 44 44 44 43 44 43 42 43 43 45 45 43 41 39 40 40 41 35 34 35 36 37 29 32 39 41 49 51 46 43 36 35 31 20 17 13 18
48 49 50 51 52 51 48 47 45 46 46 44 45 45 44 43 44 45 46 44 44 43 39 39 39 38 35 34 33 34 35 36 31 32 36 39 48 45 45 45 43 39 35 29 15 16 22
48 49 49 49 49 49 48 47 48 47 47 46 46 46 44 45 44 46 46 47 43 41 41 40 39 37 34 31 33 34 31 32 30 31 39 36 45 48 51 48 44 40 37 31 31 28 20
43 46 49 47 47 46 47 46 47 46 46 46 44 45 45 46 44 44 45 44 42 41 40 40 38 34 32 29 31 30 29 30 31 26 37 36 41 47 50 45 43 41 32 28 31 30 29
41 43 45 46 47 48 49 49 49 49 48 47 46 45 45 46 45 45 44 43 41 38 38 40 37 32 29 26 26 25 27 28 31 22 31 39 41 41 50 48 42 41 29 32 32 35 31
42 45 47 47 48 49 51 52 53 52 52 52 51 48 48 46 46 45 43 43 41 39 40 38 34 31 30 28 25 26 25 26 27 24 26 32 39 40 47 49 47 42 37 37 38 38 40
44 47 49 50 50 51 53 54 56 56 56 55 55 53 52 48 47 46 45 42 41 39 38 38 32 31 28 28 26 24 24 23 21 26 18 24 35 44 44 49 47 48 43 38 40 43 41
47 50 51 52 55 57 59 60 61 61 61 61 59 57 56 52 49 48 46 44 45 40 37 39 33 32 29 27 25 24 23 23 21 20 22 16 30 38 43 50 49 47 46 42 41 33 26
50 52 55 56 57 58 60 62 65 66 66 65 63 61 57 55 51 50 48 48 44 39 41 40 32 33 30 28 22 24 24 24 21 17 17 21 18 29 37 37 46 48 47 40 21 27 28
54 55 58 60 60 60 60 63 64 65 65 64 58 57 53 53 52 52 52 48 44 42 43 35 33 33 30 28 23 23 24 24 21 21 17 18 16 24 26 33 39 43 41 41 42 33 27
59 63 64 63 63 63 60 63 65 62 54 52 48 50 49 50 51 53 53 47 45 44 42 37 33 34 33 30 27 23 27 27 25 24 22 18 20 18 24 36 32 35 39 42 44 43 31
67 67 65 65 64 63 62 68 58 49 47 46 44 41 46 48 51 51 47 45 46 42 42 36 34 34 33 32 30 26 27 30 25 24 21 22 22 20 15 21 18 34 37 39 40 36 34
66 66 67 66 66 64 64 55 47 45 45 44 42 37 40 42 45 48 45 45 47 44 41 36 35 35 33 33 31 28 27 29 26 26 25 24 24 19 17 20 17 21 33 39 42 34 31
67 69 70 69 68 61 50 45 44 43 41 39 38 37 36 41 42 41 42 44 45 42 38 37 36 36 35 34 32 30 29 30 26 25 28 28 24 23 17 17 24 18 18 29 38 34 36
71 71 75 61 48 43 41 39 37 35 35 36 35 31 33 28 40 42 41 37 33 40 37 36 37 36 35 34 32 32 30 31 30 28 31 29 26 27 27 20 27 24 16 20 36 33 30
76 63 46 40 37 33 32 32 33 35 38 39 35 30 30 32 27 26 35 38 37 22 29 34 34 32 31 30 30 28 31 32 33 31 34 30 32 29 29 27 30 26 27 28 28 31 32
45 40 37 32 30 29 30 31 33 35 37 37 32 30 33 33 31 31 25 28 36 33 25 24 28 28 29 24 28 31 32 32 34 33 36 33 34 34 29 32 35 29 32 30 18 24 29
38 31 28 29 29 29 30 30 31 33 35 34 31 28 32 31 35 25 31 20 21 31 33 31 21 24 25 23 25 27 29 31 35 35 36 39 34 27 32 32 32 27 32 34 36 27 28
30 29 28 27 27 27 28 28 30 30 33 32 29 27 27 31 30 28 23 30 24 17 28 31 32 24 23 25 21 25 27 31 32 35 37 40 48 45 29 22 17 24 29 29 29 27 25
29 28 26 25 23 24 26 26 28 29 31 32 26 27 28 25 29 27 26 22 25 29 24 28 29 19 25 22 26 25 20 18 21 24 30 37 47 53 45 29 30 18 18 19 25 17 23
22 22 21 17 18 22 24 25 26 26 29 28 24 26 34 32 27 27 23 29 28 25 19 18 21 22 25 26 26 18 12 16 17 15 20 21 36 53 49 38 33 29 25 35 31 29 35
15 16 18 16 25 27 24 23 24 24 24 24 23 32 35 27 26 29 30 31 31 25 19 19 23 22 24 25 21 20 17 20 20 15 10 16 20 37 54 47 47 41 35 41 42 41 42
11 11 12 16 23 26 24 24 23 21 22 22 27 29 29 25 26 29 31 30 33 31 27 26 24 20 22 25 25 15 18 20 19 21 18 21 12 20 33 44 49 49 51 50 49 37 36

GFSGBSN_500_spd_066.txt.gz
Wind_Speed
57 55 56 58 59 62 63 63 63 63 64 61 59 60 56 55 56 54 52 53 51 48 47 43 42 41 43 41 42 39 35 35 37 38 41 42 44 41 41 38 41 44 39 38 35 38 36
58 58 58 59 59 59 60 59 57 58 57 58 57 56 58 57 57 52 51 49 47 46 45 43 41 40 41 40 38 40 38 37 37 37 41 41 42 39 39 37 41 41 39 35 36 36 38
61 60 60 59 59 58 59 59 59 56 56 55 54 53 54 53 53 49 41 41 42 41 41 41 40 39 38 38 38 36 35 37 36 37 39 40 38 38 36 30 38 38 38 36 29 35 39
58 55 57 58 55 57 58 56 56 52 53 53 51 49 49 50 49 42 43 40 39 39 40 41 40 40 36 36 36 34 35 36 35 38 38 36 36 36 35 33 36 37 36 28 29 36 34
44 49 51 51 54 51 50 50 49 49 50 50 47 46 41 40 42 41 37 35 37 37 38 39 39 38 37 36 32 33 35 35 36 38 35 33 35 36 35 34 31 37 33 27 25 30 33
46 45 47 50 49 48 45 44 45 46 45 43 39 35 34 34 35 36 36 35 38 36 37 37 38 37 37 35 34 32 34 35 37 36 33 31 35 36 34 31 29 32 30 29 24 25 34
47 49 48 47 45 46 45 45 45 43 41 38 36 33 33 33 33 33 33 32 35 33 33 35 37 34 36 36 32 34 35 34 34 35 32 33 34 34 34 26 27 31 31 30 27 24 37
46 49 48 46 44 42 41 42 41 39 36 33 32 32 32 32 31 32 33 33 33 36 32 34 34 33 33 37 33 35 34 33 33 32 31 32 33 33 33 30 30 30 34 30 28 28 36
44 43 42 42 43 41 38 35 34 31 29 30 28 29 31 33 31 32 31 31 33 35 36 27 33 34 35 34 34 35 34 33 31 30 28 31 35 32 35 32 32 32 36 33 33 35 39
42 42 40 35 32 26 23 25 25 26 27 28 28 29 30 30 31 32 32 32 33 33 34 31 29 32 33 32 32 31 32 33 30 30 27 27 33 33 32 30 31 35 31 35 39 41 47
35 33 25 21 22 24 26 27 28 29 31 32 32 33 34 32 34 32 33 33 33 33 34 29 26 24 26 28 29 29 30 30 29 30 27 27 29 29 28 23 28 31 33 42 48 51 46
18 19 21 23 24 26 28 31 32 33 35 36 37 36 37 38 37 35 35 36 35 34 37 31 29 26 26 27 28 28 29 28 29 31 21 29 23 26 23 21 29 31 34 43 45 45 46
21 22 23 26 28 30 32 34 35 35 38 40 41 41 42 43 42 39 37 37 37 37 32 31 31 30 28 29 27 26 26 27 27 27 22 25 19 18 20 19 22 28 31 46 48 48 44
23 26 28 30 32 34 36 37 39 40 42 43 45 46 46 46 46 45 41 38 41 39 34 37 37 36 33 27 25 27 26 26 28 25 21 22 15 16 14 17 18 25 29 43 49 50 46
28 29 32 34 36 38 40 41 43 45 47 49 50 49 46 47 47 46 45 44 40 35 39 36 35 37 38 28 32 32 29 28 25 24 21 20 18 15 11 15 15 26 35 33 41 44 42
30 33 36 38 40 42 44 46 48 51 53 53 52 49 46 47 48 49 49 45 40 36 37 38 38 39 40 34 31 32 33 30 25 24 22 20 16 13 9 7 17 23 28 37 41 44 48
33 37 39 41 44 46 48 51 54 55 54 51 49 50 56 56 55 54 51 47 43 32 38 43 45 43 41 33 36 36 33 29 23 22 24 23 16 17 11 3 10 26 29 31 41 42 35
37 40 42 45 47 49 51 54 52 52 54 56 57 58 64 63 60 56 53 44 38 35 39 44 43 47 49 37 37 36 38 34 27 21 22 24 20 19 15 11 7 20 27 32 38 43 34
40 43 45 47 50 53 53 52 53 58 61 64 68 64 54 49 49 41 33 30 32 32 37 45 47 45 48 45 44 40 37 34 30 27 25 24 21 20 20 17 13 13 27 28 32 47 43
42 44 46 50 52 52 52 55 57 60 57 47 39 28 27 26 24 23 19 21 23 27 33 40 45 51 47 41 44 43 40 38 33 31 29 30 26 26 21 20 18 11 18 23 31 31 44
43 46 49 52 52 52 55 58 58 46 36 34 28 19 18 16 20 24 25 23 20 20 22 32 37 44 44 44 42 43 44 40 37 34 32 30 27 28 26 24 26 18 14 23 26 32 40
45 48 51 50 51 54 59 51 42 36 33 28 22 15 16 15 16 17 30 30 24 21 20 21 31 34 37 39 37 42 42 41 37 34 32 31 28 30 28 27 28 26 23 11 23 28 39
46 50 49 51 54 56 43 35 30 27 25 20 16 16 17 17 20 19 18 31 32 28 26 24 15 24 31 33 31 33 36 41 37 33 31 30 28 30 29 29 30 28 24 19 16 22 24
47 48 49 52 52 40 33 28 26 25 24 22 20 20 21 18 21 22 23 21 22 27 36 22 19 14 26 32 30 23 28 35 34 32 32 31 29 29 28 28 29 25 23 28 26 23 30
47 46 50 49 40 36 31 28 26 25 24 23 21 21 21 20 23 25 29 29 22 21 28 31 24 20 11 27 26 29 24 30 29 28 31 30 30 29 28 29 27 24 23 28 22 24 23
43 45 47 38 35 29 23 22 21 21 21 20 16 19 21 21 23 27 27 24 28 22 21 33 30 21 24 20 23 23 24 23 26 27 27 29 30 30 29 30 30 22 26 27 29 33 25
41 46 37 31 28 22 19 17 15 12 12 15 17 17 21 21 24 27 26 27 23 32 18 24 35 31 25 22 24 23 22 21 21 19 23 27 29 29 28 31 31 31 29 30 29 29 30
42 37 29 24 22 17 13 16 17 11 12 12 13 17 20 21 21 27 26 23 28 44 29 17 22 23 32 29 25 25 26 23 19 17 16 11 17 17 19 29 34 32 29 26 33 30 28
38 28 23 18 17 16 12 12 15 13 16 16 13 16 19 22 22 24 23 37 26 41 25 19 19 14 11 23 27 27 21 20 17 22 19 9 9 11 13 14 23 31 37 24 25 34 30

GFSGBSN_500_spd_072.txt.gz
Wind_Speed
56 58 58 57 58 58 59 61 62 62 62 62 62 61 60 60 61 61 61 60 62 65 62 60 57 57 57 56 59 56 51 46 46 45 44 42 39 42 40 38 38 40 35 40 41 44 44
61 63 64 64 62 64 64 65 65 65 63 64 64 60 58 58 60 63 63 64 64 65 63 58 55 52 56 57 60 57 49 44 45 44 44 42 40 43 41 38 38 36 38 39 41 43 42
66 68 67 68 71 69 69 68 66 64 63 62 57 55 55 56 58 62 65 61 62 61 57 52 49 49 49 55 57 54 46 40 42 42 41 40 40 41 41 37 38 36 38 39 39 38 39
70 69 72 73 73 72 69 65 64 60 56 54 52 53 56 58 59 60 54 55 57 53 50 50 49 47 45 48 49 49 39 38 38 37 37 40 41 40 38 37 37 37 38 37 35 37 36
73 73 73 73 72 72 66 59 54 52 53 54 54 54 53 56 53 48 44 46 48 48 45 43 40 40 39 43 46 41 35 35 37 37 34 38 38 38 36 35 36 36 38 36 38 36 39
70 70 68 65 60 56 51 49 50 52 54 54 54 56 53 52 45 42 42 43 43 41 37 36 34 35 36 35 39 41 41 37 35 33 35 36 36 36 31 31 35 38 36 35 35 34 38
66 64 61 57 54 51 50 51 50 51 51 52 51 48 44 40 37 38 39 40 38 36 32 30 29 31 29 34 32 32 32 32 34 34 34 35 36 32 30 35 35 34 35 35 32 33 34
54 55 54 54 54 53 52 50 47 48 49 45 40 40 41 39 41 40 36 34 31 31 24 29 27 27 29 29 26 29 31 32 33 33 34 33 33 32 35 32 33 34 34 30 33 30 32
49 47 45 46 45 46 46 48 46 44 41 39 38 37 38 37 34 31 31 30 29 28 26 19 29 30 26 30 30 28 33 32 31 34 34 34 31 31 32 31 32 33 34 30 34 29 31
45 42 39 43 43 45 46 42 38 38 37 35 34 29 28 31 28 27 28 30 30 28 31 27 24 29 30 26 28 29 33 32 32 32 33 33 30 30 30 30 31 32 31 31 34 30 35
40 40 41 44 44 41 38 35 34 34 32 28 26 25 27 28 28 28 31 31 31 29 31 27 24 24 28 28 28 30 30 30 30 32 32 31 28 30 29 29 30 30 32 30 32 28 36
43 44 45 40 36 33 30 29 29 29 27 28 26 29 32 31 29 31 32 31 32 32 32 29 29 25 24 27 27 29 31 31 32 32 31 28 31 30 29 30 29 31 29 28 30 29 35
43 40 37 34 31 29 29 28 29 28 28 28 29 33 35 33 32 33 34 35 37 37 35 34 31 29 28 29 29 29 30 31 31 32 32 31 30 31 29 28 30 29 27 28 31 31 36
38 35 33 30 30 29 29 27 27 28 29 31 33 37 37 35 37 38 40 41 44 44 41 38 36 35 34 33 34 34 34 34 34 33 34 32 29 31 28 27 29 27 26 26 30 31 35
37 33 30 29 28 26 27 28 30 31 31 33 35 38 39 40 41 42 45 47 47 47 46 40 34 37 38 37 38 39 37 35 37 38 37 35 30 29 29 28 25 26 24 27 29 30 35
33 32 30 27 26 27 29 30 31 31 33 36 39 41 42 43 44 47 49 48 47 47 44 41 36 38 38 40 40 40 37 37 36 36 38 34 29 29 28 25 22 25 25 24 24 27 31
30 25 25 26 27 28 29 30 32 33 36 38 41 44 46 46 49 50 51 50 50 52 52 50 46 42 41 41 40 39 40 38 34 36 37 35 34 28 27 21 23 24 23 22 18 25 23
28 26 27 27 28 29 30 31 34 35 38 40 43 47 50 51 53 53 54 57 59 59 60 59 56 52 46 45 42 42 40 39 36 36 35 33 35 30 25 24 23 24 24 22 18 15 18
28 28 27 27 29 30 31 33 35 38 40 43 47 51 52 54 56 59 58 52 50 49 48 50 55 56 51 48 44 42 36 38 34 31 34 31 27 28 25 28 22 25 25 25 25 21 18
31 29 28 29 31 31 32 34 37 40 43 46 49 53 57 56 53 46 36 33 34 27 20 31 37 46 49 49 46 42 36 33 30 34 41 27 29 28 23 25 25 24 24 23 10 16 17
33 32 31 31 31 31 33 35 38 42 45 48 50 52 49 42 38 33 29 26 19 15 5 11 14 23 39 46 47 44 46 31 34 32 43 37 36 33 28 25 25 25 28 25 23 16 17
34 33 33 32 33 32 33 36 40 43 47 48 48 43 36 33 29 25 23 20 16 18 15 11 11 18 24 37 41 39 52 51 33 24 44 37 35 35 32 32 29 25 27 29 29 27 24
37 36 34 34 33 33 35 38 41 44 44 44 40 34 27 23 21 18 18 17 17 20 19 13 17 9 18 24 33 37 39 40 27 29 21 31 39 38 35 34 29 27 29 29 30 24 26
39 38 36 35 34 34 36 38 41 41 42 37 32 25 23 22 21 20 15 15 18 20 23 20 20 20 16 19 25 32 45 37 33 33 34 33 30 28 29 26 26 22 29 28 29 28 23
41 38 36 35 34 34 37 38 41 40 36 29 22 22 23 20 20 20 19 16 16 13 22 24 20 16 16 6 16 26 41 41 34 33 27 28 41 40 34 29 28 21 27 27 28 30 28
41 38 36 35 34 35 36 38 39 38 31 25 23 25 24 21 20 21 21 21 18 15 15 27 28 25 16 2 10 23 27 38 31 29 28 30 34 35 37 32 29 20 26 25 25 25 27
41 38 37 35 35 34 36 37 37 32 27 21 21 20 18 18 18 19 19 22 21 19 14 15 13 13 14 9 6 24 26 26 26 29 27 25 27 30 30 30 28 18 22 26 23 22 26
40 38 36 34 33 34 35 35 33 28 23 19 16 14 13 12 13 15 16 20 22 22 19 16 13 10 18 7 6 8 22 26 26 26 26 25 23 22 23 25 23 19 22 25 24 22 22
40 38 35 33 33 33 33 33 28 23 19 13 14 12 10 6 8 11 13 19 23 24 25 22 16 5 10 13 10 7 13 17 18 18 17 16 16 13 17 18 18 16 20 23 22 23 23

GFSGBSN_500_spd_075.txt.gz
Wind_Speed
55 51 51 53 53 53 52 53 55 56 59 59 57 57 59 60 58 61 59 58 55 52 56 56 60 60 58 58 54 52 50 50 51 54 55 48 46 44 43 42 40 40 36 37 37 38 37
60 57 56 57 59 59 58 58 58 60 60 60 62 61 62 62 61 58 56 56 52 53 55 57 58 61 56 50 47 46 49 51 54 53 55 46 44 45 43 42 40 39 41 37 38 35 35
68 64 65 65 64 63 63 63 64 63 63 60 64 64 66 63 56 55 53 51 54 56 57 57 55 53 48 44 41 44 47 48 50 53 43 42 39 41 42 41 42 39 38 38 35 34 37
74 72 69 66 66 66 66 65 66 67 67 65 66 63 57 51 50 52 52 53 54 55 52 50 47 43 42 40 39 42 47 46 47 46 40 42 40 39 39 39 38 37 38 37 34 35 35
79 77 74 71 68 68 69 67 68 67 66 62 58 50 49 48 48 52 53 54 54 52 48 43 40 39 37 35 36 39 45 43 43 31 31 37 37 36 35 34 35 36 36 37 38 34 33
76 77 73 70 69 66 63 63 62 58 55 49 49 48 49 47 49 53 54 51 46 40 37 36 36 36 34 32 34 37 35 39 32 33 40 38 40 40 35 30 33 35 39 35 34 29 33
70 70 68 68 63 63 60 57 53 51 52 51 51 50 49 49 51 50 44 41 38 37 37 35 34 30 32 32 33 32 33 31 37 30 33 42 41 34 30 33 36 35 33 33 32 33 34
56 55 57 57 55 53 52 52 52 49 50 49 48 49 51 50 45 41 37 38 37 34 27 32 31 30 28 29 29 28 28 29 26 33 38 36 36 32 33 33 33 32 34 34 34 31 34
49 50 49 49 49 49 47 47 44 44 45 46 48 47 47 42 38 36 35 33 32 31 29 28 24 27 28 24 24 28 29 24 28 26 27 30 30 31 34 32 33 33 35 32 32 29 30
41 45 45 43 41 40 40 41 42 43 45 44 43 41 38 38 36 33 32 31 30 31 30 29 29 24 29 30 29 25 30 27 27 28 34 36 32 34 36 31 32 32 31 30 29 29 26
45 41 42 40 37 37 39 40 43 42 42 38 36 35 35 33 33 33 30 29 27 27 30 25 24 20 20 22 25 26 26 28 27 28 28 32 31 29 27 30 32 29 29 29 28 28 30
40 40 39 39 38 41 40 42 42 38 33 33 33 31 31 29 30 30 30 29 29 29 30 28 28 28 26 28 25 24 23 28 29 30 29 27 28 28 29 28 29 26 28 28 28 29 26
36 37 37 39 42 43 42 41 35 32 30 31 31 31 30 28 30 31 32 32 34 33 34 34 33 33 32 30 30 30 28 26 28 30 30 30 31 29 28 27 27 27 27 27 29 27 24
38 38 39 41 43 39 37 34 32 30 30 30 29 29 29 31 32 33 34 37 38 39 39 38 38 38 39 35 34 34 34 32 31 30 30 30 29 29 28 27 27 27 28 26 29 26 23
39 39 37 39 40 36 32 31 27 27 27 27 29 31 32 33 34 36 38 40 41 43 43 43 44 45 42 42 39 37 37 37 36 34 33 33 30 30 29 28 26 26 26 27 26 24 25
38 38 40 41 34 30 29 26 27 26 26 28 30 33 34 36 37 39 41 43 46 47 49 50 49 48 45 41 40 41 39 41 41 37 36 37 35 31 30 28 26 27 27 24 21 21 21
34 36 38 34 33 26 23 24 23 25 26 28 31 34 35 37 40 43 45 48 50 51 51 51 51 49 48 45 42 43 42 41 40 30 38 38 37 29 27 25 27 26 26 22 18 18 16
32 34 36 27 23 23 22 23 24 27 27 29 33 36 38 41 44 46 48 52 54 55 55 54 53 54 52 50 48 46 44 41 41 36 31 31 34 31 26 26 28 26 24 20 19 16 7
35 34 26 24 21 23 24 25 26 27 28 30 34 37 41 43 46 49 52 53 50 44 38 33 35 40 43 47 51 50 46 41 38 36 37 35 30 28 27 28 28 27 23 16 17 21 16
30 26 26 24 23 25 25 25 25 27 28 32 36 40 43 46 49 50 48 42 35 30 27 28 26 19 22 35 44 49 47 43 35 28 31 36 25 22 19 28 28 28 23 22 17 17 19
28 29 25 25 26 26 26 26 28 27 29 33 37 41 43 46 45 42 38 33 25 23 21 18 6 11 15 19 22 39 45 43 34 19 30 27 32 31 21 24 20 22 25 25 24 19 21
33 30 26 28 28 27 26 27 26 29 32 34 38 41 42 40 38 31 25 22 21 18 15 13 10 9 18 16 16 20 41 42 39 30 22 29 31 24 25 31 29 23 23 26 29 28 18
30 28 30 30 30 28 29 28 28 30 32 35 38 39 37 33 25 23 23 21 20 15 14 15 16 15 10 12 11 13 28 36 45 35 21 19 24 34 34 32 31 28 25 25 28 29 29
30 32 33 32 30 30 29 29 29 31 33 36 38 36 30 24 20 22 23 21 19 15 12 19 17 19 16 17 12 12 20 29 43 33 25 23 21 18 26 29 32 26 26 26 27 28 28
36 36 35 33 32 31 30 30 30 33 34 36 37 32 25 23 24 25 24 21 19 16 11 19 19 14 16 15 14 10 16 23 32 29 25 21 21 16 26 26 25 20 23 25 23 23 24
38 38 37 35 34 32 31 31 32 33 34 35 34 28 24 22 25 26 23 22 19 15 13 12 21 19 20 16 11 9 9 17 29 26 19 26 20 22 21 24 21 20 20 23 20 17 23
40 40 39 36 35 33 31 31 31 32 33 32 28 24 21 18 18 16 17 17 17 15 14 10 15 18 19 12 10 8 15 14 28 34 24 21 16 19 24 28 26 25 25 23 21 19 21
40 40 38 36 35 32 31 30 31 31 31 28 22 18 15 14 12 12 15 15 13 13 15 15 11 7 9 5 6 13 15 15 18 27 28 19 17 14 15 22 26 24 23 23 20 19 20
40 38 37 35 33 31 30 30 30 30 27 22 19 14 10 11 11 11 12 13 12 12 15 17 13 5 4 7 5 6 8 13 14 19 25 20 19 16 19 22 21 18 18 20 17 18 19

GFSGBSN_500_spd_078.txt.gz
Wind_Speed
57 55 53 53 53 54 58 55 52 49 49 50 51 51 52 50 52 52 53 55 58 55 51 46 48 48 49 51 54 57 58 60 48 45 46 47 49 50 53 52 51 49 46 45 45 43 40
63 62 59 57 55 56 55 58 58 58 58 55 53 51 51 53 54 56 57 61 58 50 49 45 49 49 48 53 56 57 54 48 42 44 46 47 49 52 54 52 48 49 47 45 44 42 39
68 70 68 65 63 62 62 62 62 62 59 59 57 58 56 55 57 58 58 54 52 45 46 47 50 48 51 54 51 47 41 38 39 43 45 45 48 50 50 50 49 47 47 45 42 40 40
70 70 70 71 68 69 70 69 66 65 63 63 61 61 59 58 59 55 52 52 45 47 48 47 50 51 49 47 44 39 36 35 38 43 44 47 50 50 46 44 42 41 44 43 41 38 39
71 74 73 70 71 73 73 68 66 65 64 63 63 61 61 58 49 49 47 46 45 43 44 49 50 50 45 44 39 36 34 34 38 41 42 44 42 41 34 39 39 39 39 42 41 36 37
75 75 73 71 69 71 73 72 66 59 60 59 57 55 50 47 45 43 42 42 43 46 46 44 43 44 43 39 35 34 32 33 36 40 38 37 35 32 31 31 37 36 38 39 37 33 34
74 72 73 73 70 70 72 69 65 58 51 47 45 45 43 44 43 41 43 45 44 42 41 41 42 38 35 34 32 32 31 31 34 34 34 33 32 35 28 37 35 36 39 36 32 32 35
75 74 72 70 68 60 58 57 54 52 46 45 46 46 42 43 43 44 43 41 40 37 33 35 34 31 31 30 30 31 29 29 29 28 29 33 34 27 33 36 34 34 36 39 39 31 35
75 57 48 48 49 49 48 47 46 46 47 47 45 41 42 42 43 43 38 34 32 32 31 31 32 32 31 31 29 27 26 27 26 26 26 29 34 35 33 32 33 34 32 32 33 34 33
45 42 42 43 43 42 41 42 44 43 40 40 40 41 41 41 43 39 34 31 31 32 32 31 30 29 25 25 29 31 27 27 27 26 29 30 27 26 25 29 33 35 34 31 33 31 32
44 41 42 39 39 38 40 39 39 39 39 39 39 40 40 40 36 32 31 30 30 29 30 29 27 24 21 19 22 23 24 24 28 27 29 29 27 33 32 28 34 35 30 29 29 31 30
49 45 39 37 40 39 38 38 38 41 41 39 38 36 35 32 31 31 30 30 27 29 30 28 28 28 28 26 27 28 28 27 26 26 28 30 31 26 32 29 26 24 25 27 28 26 28
48 49 45 39 37 39 39 38 40 43 41 39 35 32 29 29 28 29 28 28 30 28 30 31 32 33 34 33 31 30 29 29 30 29 26 27 31 32 26 26 24 24 23 23 25 26 23
39 40 40 39 38 36 36 38 40 41 41 36 33 28 26 27 26 27 27 29 30 32 33 34 35 36 38 37 36 34 33 33 33 34 33 28 27 27 27 24 23 22 23 22 25 25 21
37 37 36 36 34 34 35 37 38 36 35 35 27 25 24 25 25 27 29 31 34 36 37 38 39 40 41 41 40 39 37 35 36 35 36 36 32 28 26 25 24 24 24 24 24 23 23
36 36 34 34 34 33 35 35 32 34 30 25 22 23 23 25 26 28 31 34 38 39 41 41 43 45 45 46 44 44 40 40 37 37 39 39 36 33 28 26 25 24 24 22 20 20 22
33 33 34 32 31 33 36 33 32 26 22 21 20 22 23 25 27 30 34 37 41 42 43 46 49 51 52 52 51 46 43 44 39 37 38 39 39 37 29 24 24 25 23 22 21 20 20
32 31 30 30 31 32 34 31 24 20 18 20 22 22 23 26 29 33 37 40 43 46 49 51 52 53 53 52 54 52 48 47 44 38 37 36 35 34 31 31 27 24 22 20 21 18 18
29 27 26 26 30 29 27 21 17 18 21 21 22 23 26 28 32 35 38 42 45 47 47 41 37 35 33 32 38 42 49 49 45 39 36 35 37 32 25 26 30 27 22 21 20 21 21
22 23 25 27 25 26 22 17 17 20 21 20 22 24 25 28 32 35 38 38 40 35 28 24 23 24 25 19 18 27 39 45 43 44 31 32 33 36 28 21 27 27 26 23 22 22 22
23 25 26 27 27 22 19 18 19 19 20 21 23 24 25 30 32 34 34 33 28 22 23 21 20 21 14 12 16 14 16 33 42 41 39 27 30 29 34 25 33 27 26 25 25 27 24
23 27 28 30 23 21 20 20 20 19 21 22 24 23 27 30 32 32 30 25 19 19 20 19 18 15 14 10 11 11 13 15 31 32 32 26 19 26 29 32 24 25 22 22 27 30 28
29 28 29 27 25 22 22 21 20 20 20 21 24 25 30 31 33 32 25 21 18 20 18 19 17 13 13 12 9 13 12 16 26 36 42 27 12 31 32 34 24 22 21 20 23 28 30
25 23 26 28 23 22 23 21 21 20 21 23 24 27 31 31 32 28 25 24 23 20 19 17 15 13 17 19 17 19 14 14 26 41 42 21 12 26 27 30 24 24 23 24 24 26 27
24 23 27 27 24 23 24 23 22 20 22 24 26 29 31 31 29 24 23 26 25 23 19 16 13 8 16 19 19 13 8 11 20 36 44 12 13 13 16 23 27 24 22 25 23 26 26
27 27 26 26 27 28 26 24 22 22 24 26 27 30 30 30 24 23 22 22 20 19 17 14 10 9 14 18 17 13 8 9 16 25 31 25 18 11 15 16 16 16 16 23 26 25 23
30 31 30 31 31 29 28 25 24 24 26 26 27 29 28 24 21 18 15 14 15 15 14 14 11 12 16 13 9 8 4 10 14 18 26 22 18 18 17 14 14 18 16 15 26 23 21
32 32 32 33 32 30 28 27 25 25 26 25 26 26 24 21 17 14 13 14 16 15 11 14 11 7 9 11 11 10 18 7 12 19 29 15 17 16 12 15 19 21 19 16 20 25 20
33 32 32 31 30 29 28 26 25 25 25 24 24 21 20 17 13 11 9 12 13 12 10 14 12 8 7 4 1 8 8 10 9 18 28 26 18 17 13 12 18 19 19 20 19 20 20

GFSGBSN_500_spd_081.txt.gz
Wind_Speed
56 57 57 55 54 52 50 51 51 51 54 52 50 52 52 50 50 50 50 48 47 47 47 47 48 49 50 48 45 46 46 46 49 49 51 51 51 52 52 50 51 53 52 52 52 54 55
57 59 58 60 57 56 55 54 55 55 53 54 54 53 55 56 54 54 53 54 53 53 52 48 48 47 47 43 45 47 48 50 49 50 49 46 48 50 51 53 53 53 55 54 53 55 54
63 64 63 63 63 62 60 61 60 60 61 58 59 60 59 59 55 53 55 54 54 54 51 48 46 44 42 45 45 48 50 47 42 42 40 38 44 48 51 51 50 49 51 54 56 53 52
66 68 68 66 68 68 68 66 66 67 68 64 64 62 58 56 56 56 57 56 55 53 50 48 45 43 43 46 48 42 38 39 39 38 37 41 45 49 47 48 47 48 54 55 49 51 48
74 71 70 70 67 67 65 64 66 66 65 66 63 61 60 55 53 54 55 53 50 49 46 42 39 40 44 42 39 38 36 38 37 36 37 42 45 43 43 45 47 55 55 49 39 42 44
76 74 71 68 73 69 68 66 68 70 69 65 64 64 58 51 49 47 46 45 45 43 41 39 36 37 38 38 37 35 33 35 36 38 38 40 42 42 41 40 35 25 30 31 34 41 39
76 75 71 70 74 74 71 67 65 67 67 65 62 56 45 40 39 39 41 39 40 36 36 32 32 34 36 33 32 31 30 33 35 37 36 39 39 37 32 33 30 33 32 32 40 34 38
86 80 73 75 73 71 70 71 67 66 62 60 61 49 43 37 38 38 36 36 34 33 31 30 31 30 30 30 31 31 33 35 37 36 37 37 35 29 33 32 35 30 33 36 38 37 40
74 78 76 76 76 75 78 71 58 51 50 50 49 45 41 41 38 36 36 34 33 30 30 29 30 30 30 30 31 32 33 34 36 36 33 32 28 33 25 33 31 34 34 31 32 29 30
69 69 75 72 81 69 55 46 45 46 45 45 43 43 42 39 37 36 36 34 31 27 27 30 31 31 29 29 30 32 32 33 34 31 33 35 29 32 29 28 36 35 33 32 32 33 28
76 70 70 70 51 44 43 44 43 42 41 42 42 41 38 37 36 35 36 33 28 27 24 28 25 26 26 26 27 26 28 27 27 27 26 28 31 29 30 29 33 32 34 31 32 34 36
58 51 52 44 42 41 38 37 38 40 40 40 40 39 39 39 36 35 34 31 27 26 27 24 25 26 28 28 29 29 29 30 29 30 29 26 27 26 28 32 29 34 30 29 26 22 33
36 38 38 37 37 37 38 39 42 42 41 41 43 42 40 38 35 33 32 27 26 25 27 28 27 27 28 30 31 34 33 33 31 30 28 27 27 26 26 27 28 27 25 20 16 18 16
36 35 37 38 38 39 40 42 42 43 44 40 42 42 36 32 31 30 27 26 24 27 26 26 28 30 32 35 35 37 34 34 34 36 32 28 20 30 27 24 25 23 19 23 12 13 17
40 38 39 39 41 39 40 41 39 40 38 36 38 33 31 29 24 23 24 24 25 27 28 29 31 34 35 40 38 38 39 38 36 30 34 22 20 33 31 26 23 23 20 18 22 20 22
31 31 32 33 31 29 31 34 32 30 31 31 30 30 28 22 19 20 22 24 25 27 30 32 34 36 38 42 43 42 41 41 42 40 36 34 33 28 34 27 25 24 24 19 18 17 17
29 27 27 26 28 25 28 29 28 29 30 28 30 27 23 17 18 20 22 24 27 29 32 33 36 39 43 46 50 49 49 43 50 41 32 33 35 29 30 31 23 25 26 26 22 20 17
24 23 26 26 27 24 26 27 28 28 31 30 25 21 16 16 19 21 23 26 29 30 32 35 39 42 45 47 50 52 52 50 50 52 40 37 37 33 29 27 21 27 25 20 22 20 23
25 26 27 24 24 23 25 29 30 29 23 22 15 13 15 18 20 21 24 27 28 30 33 36 37 37 36 33 34 32 36 40 45 52 40 40 38 33 28 25 30 32 29 26 28 25 21
23 24 23 23 26 27 29 30 28 22 18 15 13 17 17 17 19 21 25 27 28 31 33 32 31 29 25 22 27 28 27 31 37 44 48 43 42 36 29 20 28 25 24 28 31 28 24
23 23 22 23 25 29 26 25 19 16 13 14 16 17 17 19 18 22 25 26 29 29 27 27 26 23 22 21 22 16 19 19 18 30 42 40 37 38 36 36 31 22 24 24 28 27 26
20 20 22 25 26 28 27 20 16 15 15 16 16 16 18 19 19 23 23 26 26 25 24 25 23 22 22 20 11 11 14 18 17 13 29 40 35 28 29 33 34 34 29 27 30 30 28
19 20 23 24 29 31 22 17 16 16 15 15 15 18 17 18 21 23 23 25 23 24 26 26 25 25 24 20 14 13 14 14 18 22 27 33 40 21 24 28 27 32 30 36 33 33 32
19 21 24 30 32 29 22 19 17 17 17 16 16 17 18 20 22 23 22 23 23 25 29 30 28 24 22 21 15 15 19 21 16 24 32 32 39 38 15 33 30 37 25 18 24 24 27
20 21 24 29 30 26 24 19 18 18 17 18 18 18 19 21 23 22 23 24 24 25 28 27 24 20 17 14 12 13 16 13 10 21 37 34 25 18 6 27 27 22 29 16 14 18 20
22 22 20 23 25 25 23 20 19 20 20 19 19 20 20 22 22 22 22 23 22 22 22 22 21 16 11 7 14 16 13 8 7 19 33 29 19 9 15 20 18 19 22 20 19 24 22
25 24 23 22 25 26 23 23 22 22 22 21 21 20 21 21 21 20 21 20 20 20 22 22 17 15 16 10 10 10 11 7 6 12 25 30 13 10 18 17 26 26 18 16 20 24 24
27 27 27 25 25 24 24 24 24 23 23 21 20 21 21 21 20 19 20 19 19 19 17 15 11 13 14 15 10 13 12 6 11 13 14 24 17 11 13 15 18 18 19 18 15 16 23
27 27 27 28 28 28 27 25 25 24 22 21 20 20 21 20 19 17 15 15 14 15 13 8 10 10 11 9 10 6 10 7 10 11 17 20 19 14 14 14 14 15 13 19 17 14 18

GFSGBSN_500_spd_084.txt.gz
Wind_Speed
57 58 58 56 54 53 55 55 54 52 51 50 49 49 48 48 47 49 47 48 51 51 53 54 51 51 52 50 50 50 51 50 51 50 48 49 49 49 49 49 48 52 54 55 56 54 55
59 59 59 59 56 57 56 57 56 56 53 52 53 52 55 54 53 53 54 52 51 52 53 51 50 50 51 52 52 52 50 49 51 49 47 48 48 48 49 46 49 48 51 53 57 60 58
65 65 70 60 63 62 62 63 59 57 57 57 55 58 60 61 59 57 58 57 52 51 52 51 52 53 53 51 50 51 49 48 46 47 47 45 44 44 45 44 43 46 50 52 53 55 55
70 71 71 68 66 67 65 61 60 60 59 59 57 59 59 61 59 57 57 54 52 51 51 50 51 53 51 50 50 49 49 45 42 42 44 41 39 36 38 41 43 46 52 53 49 49 50
76 75 73 72 72 71 67 69 65 63 63 61 59 60 60 59 60 62 62 57 52 51 49 50 48 46 47 46 44 42 43 43 40 39 36 31 32 36 39 40 41 47 47 48 48 48 46
77 78 80 74 77 70 70 63 62 61 61 62 61 61 61 60 61 59 56 54 46 47 48 45 43 43 42 40 37 39 38 35 33 28 28 31 33 36 35 38 41 41 44 43 46 28 34
74 74 77 81 75 77 77 74 70 67 63 61 64 64 62 60 58 54 52 44 41 40 42 43 41 39 36 33 32 32 29 26 28 29 30 32 35 33 35 41 44 46 42 41 40 33 32
68 70 72 73 76 79 82 80 80 65 65 63 64 63 61 61 56 50 42 38 38 40 39 35 33 33 32 30 28 27 28 28 28 28 30 33 36 32 36 39 39 42 37 38 38 30 36
63 65 63 65 65 70 72 76 78 73 76 69 70 69 59 53 51 45 41 38 37 36 32 28 30 30 28 28 27 27 27 26 26 28 29 32 33 36 39 32 31 33 33 36 35 34 33
60 61 62 65 66 69 69 74 73 72 70 69 58 52 48 46 44 44 38 36 35 31 28 30 30 28 28 27 26 25 24 25 25 26 28 31 29 30 34 39 30 34 29 31 38 34 38
58 58 61 63 65 61 66 62 65 67 65 51 41 43 46 45 43 41 37 36 31 28 24 33 28 23 23 24 24 24 22 23 25 26 26 27 31 31 30 28 30 33 29 31 33 37 37
53 70 76 77 73 68 63 56 60 45 40 44 45 43 43 42 40 39 37 32 27 25 23 26 27 22 22 23 24 28 23 24 26 28 31 30 31 34 33 30 29 28 29 29 27 30 37
56 47 44 47 43 44 42 43 43 41 41 40 43 42 40 38 39 39 38 27 24 21 27 32 26 25 25 25 25 27 28 28 30 33 33 31 33 32 33 29 27 23 25 26 21 19 4
46 33 38 33 35 36 38 40 38 39 38 37 39 39 40 41 39 40 35 28 22 22 33 22 24 25 25 25 27 29 29 32 31 33 35 31 29 18 30 34 26 24 21 23 21 15 19
41 36 31 33 32 31 32 32 37 37 36 39 42 42 43 41 35 36 29 25 27 25 21 23 23 24 24 28 31 32 31 33 34 31 25 31 27 27 33 29 22 22 22 18 21 14 23
40 38 37 37 37 40 39 38 42 43 38 36 36 37 37 31 29 26 24 22 23 21 21 22 22 24 26 28 32 35 35 37 40 42 44 41 44 36 31 31 28 25 21 21 22 11 17
32 32 32 34 36 37 37 38 38 33 33 35 32 31 26 25 22 19 19 19 21 19 22 23 25 27 28 31 34 37 41 43 49 48 46 48 46 36 32 31 29 27 26 23 25 26 24
28 26 27 28 28 29 31 33 33 29 31 30 23 22 21 20 19 15 15 17 19 20 22 24 25 27 30 33 36 39 41 45 48 52 52 50 46 39 35 29 26 24 18 22 21 20 22
25 25 26 28 27 27 28 28 29 29 27 25 22 21 19 16 15 15 17 19 20 21 23 23 26 28 31 33 34 35 35 38 40 40 42 50 47 41 34 30 29 30 27 23 27 26 21
23 24 23 23 23 25 27 30 26 26 26 20 20 16 14 14 15 16 17 18 20 22 21 23 26 28 29 30 31 30 30 34 33 32 35 37 39 45 40 26 32 30 30 27 32 32 30
19 20 22 22 24 27 28 28 26 24 21 20 18 14 14 13 16 16 17 18 20 20 21 23 25 26 27 28 29 28 30 30 26 24 24 29 35 42 45 39 33 25 32 35 32 28 33
19 20 21 22 24 27 26 25 27 24 21 17 13 13 14 14 16 16 17 18 20 20 22 25 24 27 28 29 28 26 31 28 22 24 24 23 16 34 42 46 42 30 21 28 26 24 28
20 21 21 23 24 25 28 29 28 21 16 14 13 13 13 14 15 16 16 18 19 20 23 24 25 27 30 31 28 27 28 23 21 21 23 23 16 24 32 33 43 43 28 29 21 8 11
20 22 22 24 27 29 31 31 24 19 17 14 13 13 13 14 16 15 17 18 18 21 23 24 24 25 27 27 22 15 9 16 22 20 20 25 18 20 28 24 29 35 32 34 25 24 25
18 20 22 22 27 34 34 28 21 21 18 16 14 14 14 15 16 16 17 18 19 21 22 22 22 23 24 19 8 7 12 18 21 13 17 24 21 18 22 17 16 23 34 31 28 26 30
20 18 19 22 31 32 32 26 23 20 18 17 15 14 15 16 16 16 17 18 20 21 23 23 23 25 23 14 12 8 8 17 8 8 3 26 23 20 22 7 18 18 28 29 33 29 17
21 19 21 26 32 33 30 26 24 21 19 17 16 15 16 16 16 17 18 18 20 21 22 24 23 23 15 12 9 8 14 6 7 5 4 21 20 10 9 1 7 20 27 24 29 32 21
24 23 22 25 27 25 24 25 21 20 19 17 17 16 17 16 17 18 18 19 19 20 20 21 21 14 12 13 8 6 3 2 7 3 8 19 8 4 7 4 5 9 18 15 12 15 14
26 26 24 23 22 21 26 25 22 21 19 19 17 18 17 17 16 17 18 18 19 18 19 19 15 11 10 14 18 9 4 5 5 8 12 9 13 11 9 9 11 11 11 12 14 15 12

GFSGBSN_500_spd_087.txt.gz
Wind_Speed
57 58 55 56 56 55 54 55 54 55 54 51 51 51 50 48 47 47 46 46 46 46 45 47 45 48 51 51 54 57 54 53 51 50 50 51 51 52 52 54 51 50 44 44 46 45 48
65 59 63 58 58 60 57 57 56 57 55 54 54 53 52 53 51 49 51 50 53 51 50 51 52 52 50 49 52 51 53 54 53 52 52 52 52 51 51 49 48 42 45 44 46 46 50
71 69 68 66 62 64 63 59 62 61 58 58 56 59 57 52 55 54 54 55 54 54 53 52 51 50 51 51 50 52 52 53 53 52 49 50 50 47 45 45 40 41 42 42 44 45 48
76 74 74 72 68 68 67 66 68 65 64 61 61 60 56 54 56 57 54 53 55 54 53 54 55 54 51 51 51 51 51 50 51 49 46 42 41 42 41 41 36 42 40 40 37 45 47
78 74 77 77 74 73 74 74 70 66 66 60 64 62 58 57 58 59 57 55 54 54 55 57 52 49 48 49 48 48 48 46 45 43 40 36 38 40 34 32 37 35 37 41 38 47 48
85 77 76 78 75 74 76 75 75 73 69 63 58 57 54 56 54 52 52 52 52 53 53 53 50 48 47 44 43 43 43 41 39 38 32 32 35 34 26 31 33 33 36 36 39 40 42
81 78 72 73 72 75 74 76 75 77 77 68 66 58 58 57 51 51 51 48 52 52 51 51 47 47 44 40 41 38 37 35 35 34 29 32 32 24 28 30 29 31 36 40 40 40 39
68 67 68 66 66 70 70 72 70 70 74 74 71 65 69 65 66 57 60 56 51 51 48 44 42 41 40 42 38 33 33 33 32 29 29 29 26 26 28 29 32 34 37 40 39 36 37
66 66 65 64 65 65 64 65 65 67 68 68 69 64 63 64 58 58 57 55 47 47 42 39 40 40 36 35 33 32 31 30 29 28 27 28 23 28 29 29 30 29 33 37 42 37 36
55 61 65 65 63 62 61 63 63 60 62 66 67 59 61 63 58 57 50 46 43 41 41 38 37 36 32 31 32 29 29 28 26 25 26 25 23 23 24 26 29 33 32 33 37 38 38
55 57 58 57 59 57 59 61 62 61 65 63 61 63 54 50 51 44 43 43 43 40 38 35 32 31 28 29 27 27 24 25 25 24 25 20 20 22 24 25 30 32 36 34 33 34 37
42 43 44 50 47 52 54 60 65 71 60 54 47 47 51 47 42 44 43 43 41 38 33 34 31 26 22 23 25 26 25 26 27 26 23 21 24 26 28 31 34 38 38 33 31 29 35
39 44 52 44 52 55 62 65 64 52 58 60 46 39 40 42 44 41 42 42 35 33 28 32 34 24 22 22 23 26 30 24 25 26 25 28 28 30 29 33 34 34 29 29 29 25 27
28 25 30 38 39 38 41 43 42 41 42 43 39 43 41 39 43 39 37 36 33 29 30 33 22 21 23 22 23 25 27 23 25 29 32 34 32 24 31 35 37 37 31 29 30 23 22
41 36 33 30 32 31 34 32 32 31 35 35 38 42 42 39 38 36 35 33 32 32 30 25 19 23 20 25 27 25 24 23 30 35 35 37 36 34 34 32 34 28 30 25 28 22 25
34 34 32 35 33 32 31 29 26 24 27 28 30 33 36 32 35 35 34 33 32 28 25 19 18 22 20 23 24 25 24 28 33 35 37 39 40 34 35 32 34 33 24 27 28 26 21
31 31 32 32 31 34 36 35 31 29 29 28 30 30 31 30 30 31 29 29 21 14 16 16 17 19 20 21 23 26 28 29 36 39 42 45 47 42 38 39 37 32 29 29 29 30 27
28 25 23 26 28 27 33 32 31 30 29 28 27 27 25 29 26 25 22 15 12 11 15 16 18 19 20 22 24 27 31 34 37 39 39 42 47 48 44 42 41 37 27 24 29 30 25
24 25 24 24 25 26 26 27 27 29 29 29 27 28 23 22 20 18 13 12 12 14 15 16 18 19 20 24 27 30 32 34 35 35 36 38 41 44 41 37 42 40 37 36 28 30 30
22 22 23 21 22 24 24 23 21 25 27 28 26 23 22 19 16 14 14 14 13 15 15 17 18 19 22 26 28 30 31 32 31 32 34 36 34 36 40 37 38 46 43 32 28 28 25
20 18 20 19 19 20 19 21 25 29 28 25 21 17 17 14 14 14 13 13 13 15 16 18 17 21 24 27 27 29 30 30 30 33 34 32 23 25 34 32 44 42 46 36 37 38 36
21 18 17 17 19 19 20 25 27 24 21 20 20 20 20 16 15 14 13 14 14 14 17 18 20 23 25 25 27 27 28 29 30 30 27 25 25 27 24 29 47 45 47 40 42 26 34
21 19 18 18 18 20 22 24 20 21 20 21 19 18 17 17 14 13 13 13 15 16 15 18 21 22 23 24 24 25 26 25 24 18 18 25 29 28 12 11 35 53 31 31 23 20 33
20 20 20 20 21 22 22 22 26 25 23 22 18 16 15 15 13 12 14 14 15 14 16 18 20 22 21 22 23 24 20 15 16 15 23 25 24 20 9 12 26 43 31 26 23 19 22
16 20 21 19 20 21 28 29 28 26 25 21 16 15 14 13 13 13 14 13 13 14 16 18 19 20 21 24 24 15 13 14 16 19 16 18 9 15 7 11 18 19 22 23 25 24 28
17 17 20 20 21 29 33 30 27 27 23 21 18 17 15 13 12 12 12 12 13 15 17 18 19 20 22 23 14 13 12 13 14 11 15 8 19 17 12 13 20 19 22 25 28 26 22
21 19 18 19 25 32 33 30 31 26 24 21 19 17 14 11 11 11 12 13 15 17 18 19 19 21 21 15 8 10 8 4 9 10 9 5 9 10 7 9 6 7 24 41 41 36 31
21 20 20 20 22 34 32 32 31 27 25 22 18 16 13 11 12 12 13 14 15 16 17 18 19 20 19 6 12 6 1 2 15 7 11 9 6 4 1 10 6 7 21 25 26 26 27
22 22 20 23 26 30 32 31 28 27 24 18 16 14 12 13 13 14 15 15 15 15 16 17 18 19 10 8 13 10 3 9 13 14 6 4 11 9 6 14 10 12 24 20 16 12 10

GFSGBSN_500_spd_090.txt.gz
Wind_Speed
66 65 64 63 62 59 58 56 55 55 55 54 52 53 52 49 52 50 49 49 48 49 48 48 45 43 41 41 43 45 45 47 51 54 58 55 53 54 54 53 53 54 47 48 50 50 46
68 69 71 69 68 66 64 62 61 57 56 56 54 55 55 55 53 51 51 52 53 53 51 49 49 48 45 45 47 46 47 50 50 52 54 55 54 56 57 54 53 47 48 49 43 41 38
76 76 76 77 75 71 70 68 65 64 60 60 58 57 57 54 55 55 54 51 54 54 54 52 50 49 49 46 48 46 49 51 51 52 53 56 56 56 55 51 48 48 49 42 37 34 36
84 84 84 83 83 80 77 73 71 70 64 64 62 60 63 59 57 58 57 56 55 55 51 53 52 47 46 51 50 52 50 49 51 52 53 53 53 52 47 45 40 42 42 39 30 36 38
89 92 91 89 90 88 86 83 76 74 72 61 65 65 65 63 58 55 53 57 56 56 55 55 49 44 45 48 49 48 48 48 48 49 48 48 49 45 39 38 39 32 37 32 31 35 38
93 93 90 89 90 90 90 89 78 73 74 74 75 70 69 70 63 56 52 54 53 52 46 47 44 44 43 43 41 44 49 49 48 46 45 42 43 37 33 35 33 34 31 32 33 30 38
81 86 85 88 87 83 85 83 77 74 71 71 70 72 68 71 70 66 51 48 44 47 42 43 37 40 43 46 46 43 45 48 45 41 37 41 38 29 33 32 31 31 30 31 28 32 39
68 70 71 72 71 71 71 69 70 72 71 69 68 69 75 75 72 73 76 58 52 53 61 62 55 47 48 45 43 43 42 43 43 38 37 35 28 29 32 30 30 30 30 28 29 30 37
62 60 60 59 59 60 67 67 64 67 66 61 63 64 64 66 65 66 66 67 65 60 54 50 47 43 43 42 41 40 40 39 37 37 36 34 27 29 30 30 27 27 28 31 31 29 32
49 52 55 59 57 59 60 60 62 57 57 55 56 57 59 60 63 62 58 53 51 45 50 51 48 45 42 41 41 41 39 37 35 34 33 32 29 28 30 28 27 30 28 28 29 33 35
51 48 55 58 50 43 55 53 54 55 55 53 52 53 53 48 51 52 52 51 45 47 46 40 42 42 42 39 37 35 36 36 34 33 31 25 25 29 27 29 30 27 28 29 32 36 39
47 46 42 50 32 39 50 40 45 42 47 52 56 57 55 49 42 43 42 45 43 45 43 38 37 33 35 36 35 34 32 30 30 27 28 25 30 30 29 29 28 28 30 32 33 36 39
42 37 32 34 33 29 39 41 41 50 47 57 53 52 48 47 48 41 44 45 43 51 38 38 34 32 32 31 30 26 28 29 30 29 31 32 30 30 31 30 30 30 31 34 33 36 35
36 35 36 26 21 35 44 39 39 49 54 48 42 44 42 42 49 43 44 51 45 42 40 41 33 30 23 27 28 30 32 34 29 33 34 31 28 29 30 30 30 30 31 32 30 32 33
34 33 29 32 30 26 25 32 38 30 33 44 39 41 43 45 48 44 46 46 43 40 34 32 31 28 33 33 31 29 30 28 29 30 30 29 29 26 29 30 30 30 34 24 31 29 33
34 32 27 26 31 29 32 34 28 29 30 29 25 33 40 43 45 42 42 41 38 31 30 30 31 30 30 30 27 23 24 26 28 29 28 30 29 29 27 29 32 33 29 28 29 33 35
33 31 28 26 25 28 30 27 29 34 27 23 28 25 32 41 38 37 33 34 30 31 32 33 30 27 23 21 22 22 26 26 28 29 29 29 32 33 31 33 35 34 33 35 34 34 36
31 29 28 28 25 24 26 27 28 29 25 24 25 30 29 34 34 35 35 27 24 23 28 32 23 18 16 17 21 23 26 26 27 30 33 35 38 38 38 37 35 36 40 41 38 35 33
30 27 24 25 24 21 21 24 23 23 23 24 27 28 30 28 25 27 24 19 22 21 14 15 15 17 19 20 22 24 26 29 31 33 33 35 40 42 42 40 38 42 48 46 46 39 35
26 24 21 20 22 20 18 18 20 17 18 20 25 26 26 28 25 19 21 20 16 16 18 16 16 17 19 20 22 23 26 29 30 33 35 38 38 40 43 38 38 43 52 54 48 46 43
26 23 19 16 20 19 16 16 16 17 20 26 29 30 27 20 19 22 16 14 15 16 15 14 16 18 19 20 21 24 26 27 30 33 37 36 34 38 37 32 33 41 49 57 55 47 36
24 20 17 15 17 17 15 17 18 23 26 29 30 24 20 22 20 18 18 17 13 12 14 15 16 16 18 20 22 23 25 29 29 30 32 31 30 27 22 23 33 37 45 54 60 50 46
22 19 17 15 15 16 16 19 22 27 28 26 25 25 20 16 15 15 14 13 12 14 14 13 14 15 18 21 21 22 25 27 26 21 23 22 23 29 28 20 21 25 30 46 40 46 44
21 20 19 18 15 15 19 21 28 29 27 23 23 23 19 19 17 14 13 13 13 13 13 12 11 16 19 19 20 23 25 24 16 16 19 20 27 25 21 14 12 8 13 33 37 41 27
21 20 21 21 19 19 21 31 28 27 24 23 25 23 20 16 16 15 14 14 12 12 11 11 14 16 17 18 20 22 23 14 12 17 24 24 22 19 10 8 7 11 16 16 24 28 28
21 20 23 23 21 21 25 27 27 27 26 26 23 20 18 18 16 13 13 13 12 11 11 12 13 15 17 18 20 19 10 6 14 17 15 15 13 12 12 9 4 11 21 22 24 27 35
23 20 22 23 22 24 28 30 28 27 28 26 21 19 20 16 14 14 12 11 10 10 11 12 14 15 16 18 17 6 7 6 7 4 2 10 6 6 4 3 4 8 20 23 22 33 27
25 21 21 21 21 32 32 29 26 29 28 27 22 19 19 17 15 13 12 11 11 11 11 12 13 15 16 16 9 12 8 7 10 4 6 3 2 2 6 7 2 2 26 11 32 21 38
25 23 21 22 25 34 31 30 28 30 27 26 21 20 18 14 13 13 13 12 11 10 11 13 13 14 14 13 12 16 10 11 10 12 4 7 12 5 1 12 6 2 16 16 26 29 18

GFSGBSN_500_spd_093.txt.gz
Wind_Speed
58 59 60 60 60 61 63 62 62 61 59 61 58 56 55 56 57 56 53 51 48 48 51 54 53 50 49 46 44 51 46 43 45 44 44 46 47 49 50 52 54 52 50 52 53 53 49
66 65 65 65 68 69 69 70 68 67 67 65 64 64 60 57 57 59 58 53 54 53 49 53 54 55 51 49 49 49 48 47 48 46 47 49 50 51 53 53 53 52 54 54 53 51 51
73 72 73 74 75 76 77 78 78 76 74 72 68 68 64 64 60 59 60 58 56 54 55 53 53 50 50 50 52 47 44 48 50 48 49 51 53 54 55 54 55 55 56 57 49 46 53
79 80 80 80 81 80 79 81 83 85 85 78 75 74 70 66 66 65 63 62 62 58 57 57 55 55 49 50 53 49 48 44 48 49 51 51 51 51 52 53 54 54 54 48 41 47 48
86 88 89 87 88 89 85 86 91 87 88 86 80 76 74 74 65 66 65 62 63 62 59 62 57 57 53 51 54 51 48 46 47 48 49 49 48 48 50 50 50 47 47 47 42 42 43
92 90 91 94 91 91 91 91 92 94 92 85 82 78 76 72 66 70 67 67 69 67 60 56 54 57 56 51 47 47 45 44 43 43 44 46 46 48 47 47 47 44 49 44 40 35 37
89 97 93 92 88 89 88 89 88 87 83 79 76 78 73 74 71 69 71 76 66 66 70 56 51 48 45 44 44 35 35 40 45 46 46 45 47 40 38 47 47 44 43 41 32 36 35
70 73 77 79 73 72 72 73 73 69 65 68 73 72 71 71 70 69 66 67 71 69 64 61 61 48 44 46 49 47 46 47 49 45 44 46 42 34 42 41 42 43 39 35 32 34 33
61 62 61 61 62 65 65 64 62 62 62 63 64 68 65 61 65 66 64 61 67 70 76 66 69 67 65 57 54 51 51 52 50 46 44 45 35 39 37 39 39 37 38 33 34 29 30
54 55 57 56 56 57 57 58 58 60 60 57 56 56 55 51 56 57 58 63 64 63 62 64 62 63 59 58 52 49 48 48 45 40 43 44 35 36 38 38 36 38 34 34 29 30 30
52 52 53 55 54 55 55 58 60 59 52 52 52 51 50 47 45 46 49 49 52 49 51 54 53 54 51 52 49 47 47 47 44 41 43 36 34 36 37 31 36 34 31 30 31 32 31
47 48 49 50 49 50 52 57 45 45 36 41 48 50 45 45 43 45 47 48 40 41 44 41 46 46 47 47 46 47 47 45 43 40 40 35 36 37 32 33 32 31 32 33 33 34 30
42 42 41 40 38 40 39 23 29 39 38 53 36 36 46 46 47 43 45 42 43 43 40 40 39 42 41 41 44 46 45 44 43 40 38 35 35 32 31 30 31 31 32 34 35 32 31
43 40 38 37 35 35 33 26 39 33 41 43 37 41 41 44 46 41 46 46 41 40 45 46 40 37 39 42 41 40 41 40 40 37 33 33 29 31 31 30 31 31 32 34 35 33 32
43 40 36 33 33 30 29 29 23 25 30 33 35 39 35 37 46 42 40 43 46 47 45 48 38 36 37 38 37 36 37 37 35 33 32 31 31 27 28 31 32 33 32 32 35 33 36
43 40 36 33 32 28 28 27 28 27 26 30 34 33 32 31 35 38 40 42 48 45 43 36 32 39 39 34 35 33 30 31 32 30 28 31 30 28 28 31 34 35 35 34 35 34 37
44 41 36 32 31 28 28 28 27 28 29 30 32 28 26 30 30 34 36 43 45 40 38 36 29 28 34 34 31 29 28 29 28 25 23 26 28 31 31 31 33 35 39 39 39 38 38
44 40 34 31 30 28 28 30 31 29 29 28 28 28 29 27 25 33 41 44 47 38 29 35 34 31 30 27 22 25 26 29 26 22 24 27 31 35 34 35 36 36 40 43 43 41 46
41 39 33 30 28 27 28 28 29 27 27 24 24 24 24 22 27 36 37 33 33 35 38 32 33 33 26 23 23 22 21 23 21 23 29 30 33 34 37 40 40 40 42 46 50 52 47
39 35 30 29 25 25 26 28 25 24 22 21 23 24 25 22 28 32 31 25 21 22 26 29 30 23 19 20 21 21 21 23 27 28 31 34 36 38 41 44 44 43 45 48 50 53 50
35 32 28 26 24 24 24 25 22 20 19 19 21 21 22 25 28 22 18 20 24 21 15 13 15 18 17 17 19 21 24 26 29 32 34 34 36 39 42 42 43 46 47 48 53 53 52
32 30 25 23 23 22 22 23 21 18 18 19 22 25 26 25 23 21 24 21 17 15 16 17 16 15 18 20 22 22 24 27 29 32 33 34 37 37 35 35 33 38 39 43 50 54 52
30 28 23 23 23 20 21 21 21 17 19 27 30 27 23 22 25 26 19 17 17 15 13 14 15 16 18 18 19 22 24 25 26 28 34 35 31 30 24 26 29 36 27 19 24 40 50
30 25 22 22 20 19 19 21 23 24 25 27 26 24 24 24 22 20 18 17 17 15 14 13 15 16 15 17 19 19 20 23 26 29 28 22 24 25 23 26 28 14 13 10 18 18 35
28 24 22 22 21 20 20 22 22 20 28 30 31 28 23 21 17 17 16 16 14 13 14 15 14 14 14 14 16 18 19 23 24 23 20 21 25 27 25 19 10 14 17 2 9 13 21
27 22 21 23 22 20 18 19 23 32 32 31 29 26 22 20 18 17 16 14 14 14 13 12 12 13 11 12 14 17 20 19 18 16 16 20 19 12 11 11 9 13 16 18 6 14 25
27 24 25 24 22 20 21 30 35 30 27 27 26 23 21 19 20 17 16 16 14 13 13 11 10 11 11 12 14 16 13 11 9 11 10 5 0 5 5 6 6 8 11 13 7 21 20
28 25 25 24 23 23 30 36 33 31 30 27 24 20 20 21 19 18 16 12 11 11 10 11 11 11 11 12 13 13 9 5 7 7 4 2 5 10 7 9 5 2 2 7 11 16 12
29 27 27 26 22 27 35 35 32 32 30 28 24 22 22 18 15 14 13 11 11 10 11 13 12 12 11 11 12 11 15 8 7 2 5 6 1 8 3 7 5 5 13 8 19 21 12

GFSGBSN_500_spd_096.txt.gz
Wind_Speed
52 53 55 54 52 54 54 55 54 55 57 58 60 62 61 60 58 58 56 57 59 58 55 57 56 52 50 49 45 50 49 48 48 48 49 47 45 48 48 46 45 46 46 47 47 48 48
59 59 61 59 60 61 62 61 63 65 64 65 64 64 67 66 69 65 65 63 59 61 60 58 59 58 55 55 51 52 52 52 51 52 51 50 50 50 49 48 47 48 49 50 51 52 53
66 67 66 66 66 69 68 67 66 69 71 72 71 70 71 73 71 72 70 68 66 63 60 62 60 60 56 54 55 49 49 49 53 50 50 50 49 48 51 48 50 51 52 52 52 52 54
74 73 73 74 76 75 74 75 75 77 77 79 76 78 75 75 76 75 76 72 66 68 63 62 62 63 56 54 57 57 56 49 46 51 52 49 49 46 45 49 49 49 49 48 46 50 53
83 81 80 79 81 84 81 82 83 81 81 84 83 83 84 80 79 76 74 67 71 69 68 65 62 63 62 62 57 58 58 50 51 50 52 53 50 46 48 48 47 45 45 47 49 50 48
86 87 87 87 86 88 87 84 87 89 89 86 87 87 86 87 86 78 74 70 71 56 67 67 66 63 66 65 63 57 60 54 50 52 52 48 46 43 43 47 43 43 46 50 49 40 44
81 79 80 88 86 88 87 87 84 88 88 88 85 80 81 83 83 79 75 71 67 66 67 72 64 66 64 66 63 60 58 56 50 48 45 46 49 43 41 46 48 50 49 46 40 41 44
80 78 75 79 86 79 84 87 85 84 82 77 77 76 75 69 69 65 65 70 68 70 64 47 67 67 69 61 62 59 52 52 45 43 42 41 38 43 46 47 49 49 47 40 37 38 45
83 79 73 68 75 83 74 73 72 69 68 68 64 62 59 58 57 58 61 61 66 68 74 66 65 58 50 61 56 58 55 53 45 44 47 48 49 49 50 51 49 43 42 36 39 39 38
76 74 64 59 63 63 62 62 63 63 62 57 55 56 58 56 54 50 53 56 57 56 64 58 68 59 53 54 62 56 58 60 61 52 49 50 50 45 47 49 46 41 38 40 39 38 36
61 61 57 56 56 59 61 61 60 57 55 56 57 57 57 53 48 43 44 42 38 43 51 47 51 60 63 63 58 57 53 57 54 47 49 48 45 45 47 40 40 40 38 38 36 35 35
55 53 50 51 51 53 54 55 54 51 48 53 54 58 46 47 43 42 48 40 37 40 43 42 41 42 46 45 49 50 50 50 49 50 50 49 49 46 42 41 41 41 35 34 34 34 35
54 52 48 47 47 46 44 43 42 42 44 48 37 35 35 34 31 44 44 40 47 47 43 39 37 36 40 41 39 43 45 46 47 48 49 46 44 41 39 34 34 32 31 33 35 34 32
54 50 47 46 44 43 40 37 37 32 29 38 37 41 39 46 48 38 40 43 40 48 46 44 41 42 42 43 42 42 44 46 46 47 46 41 39 37 35 31 29 30 33 32 34 35 35
55 51 49 45 42 41 38 35 34 30 32 30 37 39 36 31 30 30 35 38 36 37 40 42 42 43 42 42 42 44 46 47 47 46 42 38 33 30 29 29 29 27 30 32 35 36 37
58 54 51 47 43 41 37 35 34 30 30 29 27 29 32 29 32 36 35 35 38 39 37 38 37 34 37 37 41 42 41 43 42 38 35 37 32 27 26 24 28 30 33 34 36 39 40
60 56 53 50 46 42 37 36 34 31 32 31 31 28 27 30 28 30 31 31 35 38 36 38 37 38 35 35 38 36 34 33 32 30 26 24 27 27 27 29 32 34 37 38 38 40 42
57 56 54 49 46 41 36 35 33 32 31 32 32 31 34 34 32 28 28 31 34 36 39 36 37 36 32 35 34 34 36 34 28 15 16 20 25 30 30 31 33 33 36 39 43 43 43
51 50 50 47 44 39 34 33 32 31 31 33 35 34 34 34 30 28 26 22 30 30 33 38 34 30 30 31 32 32 27 22 15 15 20 23 30 31 32 33 34 35 38 41 44 47 48
45 47 45 43 40 37 34 31 29 27 29 30 32 32 31 26 25 23 18 21 31 33 32 28 31 28 27 24 24 28 21 15 19 24 26 25 26 30 32 36 37 39 41 43 46 49 51
41 42 41 40 39 35 31 28 26 26 26 27 24 25 24 17 15 15 15 17 27 29 31 27 29 24 29 29 26 17 18 20 19 19 21 25 29 32 35 39 41 42 44 44 49 51 56
39 39 37 36 31 31 27 26 25 25 23 23 21 20 15 14 16 18 16 19 20 23 24 23 22 19 17 16 17 16 16 17 21 24 28 31 32 33 35 39 43 45 46 48 47 48 53
34 34 35 32 31 28 25 24 24 24 20 19 18 18 16 16 18 21 18 19 22 19 14 13 12 13 13 14 14 15 18 21 23 27 29 29 32 35 38 39 40 43 36 37 37 31 27
32 32 31 30 28 26 25 25 23 22 21 21 21 22 21 22 21 21 24 22 18 17 14 12 12 12 13 15 16 17 19 21 23 25 28 31 35 36 35 35 34 33 28 22 10 15 22
31 30 29 26 26 25 25 22 22 22 24 27 27 23 24 26 25 24 21 20 14 13 13 12 11 12 14 14 15 16 17 19 22 25 28 29 27 27 31 34 33 25 16 19 23 21 16
29 28 27 25 24 24 22 22 24 27 23 26 26 28 25 26 24 19 16 16 15 14 11 12 12 12 12 13 13 14 16 18 21 23 21 16 17 15 10 4 3 6 13 14 17 11 11
28 27 26 23 23 25 24 27 23 23 25 31 31 29 28 26 22 20 18 16 15 14 13 13 13 12 12 12 12 14 16 17 19 14 10 8 7 6 6 5 7 7 7 12 10 11 7
27 26 24 25 27 26 26 23 22 27 34 33 30 27 25 21 20 17 16 15 13 12 12 11 11 10 9 11 13 13 14 14 13 9 5 3 8 8 4 13 8 5 2 5 4 5 8
26 26 24 26 26 27 24 27 33 36 33 31 29 24 20 18 18 17 15 14 12 11 11 11 10 10 11 11 11 12 13 10 9 11 8 3 3 2 1 1 3 2 2 4 4 8 16

GFSGBSN_500_spd_099.txt.gz
Wind_Speed
50 52 50 50 48 47 47 47 47 48 49 50 51 52 52 52 54 55 53 52 55 55 56 57 54 50 47 47 48 50 50 47 45 47 47 48 48 47 46 44 46 47 46 46 45 44 43
57 59 59 59 57 56 56 54 55 54 56 57 57 57 56 58 58 61 60 60 61 59 58 60 61 60 56 52 48 53 53 52 50 51 53 51 52 53 52 48 46 48 48 48 48 47 47
67 67 67 70 66 64 64 61 62 61 61 64 64 66 65 63 62 65 66 68 67 68 67 68 67 66 64 58 56 54 54 55 54 55 52 52 53 52 53 50 45 45 47 48 47 48 50
69 71 73 71 71 69 70 70 69 69 69 69 70 69 71 71 72 73 73 74 75 75 75 76 76 77 74 68 62 58 60 59 59 56 55 58 53 48 49 51 49 45 45 44 46 48 50
74 74 71 75 73 75 74 72 71 72 73 73 72 72 73 74 76 76 74 75 74 74 72 71 74 77 76 69 67 64 64 61 61 62 59 60 61 54 52 49 47 48 46 47 49 49 48
76 75 74 75 74 73 73 70 68 67 68 72 72 74 75 76 75 76 74 73 73 76 74 74 74 77 81 74 72 65 65 63 64 64 64 63 62 54 55 51 45 45 45 44 42 44 45
76 78 75 72 71 71 73 72 73 73 73 74 76 76 75 73 74 73 75 77 75 72 70 69 71 73 69 63 63 67 64 61 64 65 64 61 60 60 51 49 48 47 45 45 42 43 44
79 76 72 69 67 71 73 74 74 74 73 74 74 69 69 70 72 73 74 68 64 66 67 63 61 60 64 72 65 61 55 59 65 63 57 60 59 54 45 47 49 45 41 40 43 46 48
76 76 75 71 65 69 71 70 69 67 69 71 71 68 67 69 71 67 57 56 56 56 62 52 52 51 51 63 62 43 60 50 53 55 51 53 49 49 50 47 47 44 44 43 46 47 47
73 74 74 71 63 60 61 62 61 58 61 61 63 65 65 67 62 56 52 53 52 52 58 45 46 46 48 56 64 67 63 52 55 59 54 58 52 52 49 44 48 45 42 43 45 46 44
72 72 71 68 64 55 54 55 52 53 54 57 59 61 64 58 54 51 51 52 46 46 49 40 32 32 36 46 48 50 59 60 59 43 49 40 41 44 46 45 43 41 42 44 43 42 41
70 68 68 65 56 53 52 50 51 51 53 54 57 56 50 49 46 45 43 44 48 44 47 35 35 36 35 34 38 40 43 53 49 49 47 39 44 43 44 44 41 41 43 42 41 39 43
69 67 64 60 54 51 50 50 49 50 51 49 45 43 41 42 40 34 36 34 36 40 40 39 38 35 35 31 33 34 38 42 46 44 45 48 48 48 44 42 40 38 37 37 38 38 37
71 67 64 59 55 52 50 49 49 49 45 40 37 34 38 43 49 38 39 41 40 41 48 42 41 40 39 37 36 35 35 37 40 41 42 42 45 43 39 34 33 33 35 33 34 34 36
71 68 64 61 57 53 50 49 49 45 41 36 33 31 34 35 37 35 37 36 29 30 33 37 42 37 37 41 40 38 40 40 45 47 46 39 34 32 31 33 29 30 32 33 37 38 37
70 69 64 62 58 54 52 51 46 42 36 33 33 32 36 32 35 40 37 32 32 33 35 36 33 34 34 37 40 41 39 40 44 38 35 29 28 29 29 26 26 30 33 34 35 36 35
72 68 63 60 58 56 55 52 46 41 36 35 33 34 34 34 33 33 34 30 31 34 34 33 33 34 31 35 33 34 35 34 31 27 37 38 35 31 30 32 33 32 31 28 30 33 34
56 65 62 59 57 56 55 51 45 40 37 35 32 34 34 37 34 30 28 27 29 30 32 35 31 32 34 39 32 33 34 30 33 37 32 29 28 27 28 27 27 28 29 30 32 34 35
45 46 51 50 52 52 51 47 42 38 36 33 31 34 32 34 36 30 30 30 32 34 25 29 26 32 35 40 34 36 33 36 35 33 26 27 23 22 24 25 24 26 27 29 33 35 37
36 37 38 44 46 44 44 40 38 35 35 31 31 32 32 32 35 33 28 28 29 24 16 25 23 31 28 33 35 34 35 36 32 29 25 20 21 22 22 23 24 26 28 33 36 39 40
34 32 33 37 39 40 38 35 34 33 32 30 29 28 29 30 28 27 26 25 21 14 18 25 25 33 24 20 26 22 20 20 22 19 18 16 16 18 22 25 28 30 32 36 39 41 44
28 40 31 33 33 35 34 32 32 32 30 28 26 24 24 25 26 25 20 14 12 14 20 22 23 23 23 23 23 24 22 23 18 13 13 16 20 22 25 28 30 31 34 38 41 42 47
27 29 30 30 28 29 29 30 29 30 27 25 22 21 23 22 20 16 14 13 14 16 19 24 23 23 21 21 22 22 21 15 11 13 17 19 23 25 25 28 33 36 36 36 38 37 39
32 36 31 28 28 29 30 29 28 26 24 22 20 21 21 20 17 18 19 22 24 23 22 22 20 22 19 19 17 14 10 11 15 17 18 20 22 26 28 32 34 37 37 36 33 32 34
27 30 24 26 28 28 28 26 26 24 21 21 20 20 21 18 22 22 24 28 27 21 18 15 12 12 11 9 8 11 12 14 15 16 18 21 25 27 27 28 32 34 31 27 24 22 17
22 24 26 26 27 27 25 24 24 23 24 24 26 24 21 23 25 28 29 23 19 15 14 11 9 8 9 9 10 10 11 12 14 15 18 20 20 19 17 9 9 8 7 8 10 11 15
21 24 25 26 26 24 24 25 25 26 28 28 24 24 25 27 27 27 24 19 17 14 11 9 9 9 9 9 10 10 10 11 13 15 16 12 9 7 3 4 9 12 13 7 6 7 7
21 24 25 25 24 24 24 25 28 29 27 26 30 30 29 27 28 24 20 18 15 13 11 9 9 10 9 8 7 8 10 11 12 11 8 8 3 9 12 13 9 6 2 3 3 4 5
24 23 24 24 24 23 27 27 26 26 27 34 34 32 27 22 20 20 16 15 13 11 9 9 8 7 7 7 8 9 9 10 11 5 5 4 2 2 2 2 2 2 1 4 4 2 5

GFSGBSN_500_spd_102.txt.gz
Wind_Speed
51 50 48 46 48 46 43 46 45 44 42 43 45 44 45 45 46 46 46 45 47 50 51 51 50 50 49 47 46 47 49 48 45 46 46 47 47 47 48 49 49 48 47 46 45 44 42
52 51 53 52 51 52 53 52 52 53 53 51 53 51 52 52 52 54 54 54 53 54 54 55 56 52 52 52 53 51 52 51 50 50 50 51 51 51 52 53 51 54 51 50 49 48 47
56 58 59 59 59 62 59 60 62 61 63 62 59 56 57 56 59 60 58 59 60 61 62 60 60 60 57 56 59 58 59 58 58 59 59 56 55 55 55 55 54 50 54 54 51 49 49
64 66 64 68 70 68 66 64 65 64 64 64 64 61 56 52 55 59 60 58 61 61 64 67 67 66 62 62 65 64 63 62 60 59 61 64 62 60 58 59 57 54 51 48 51 48 50
70 69 67 67 67 67 66 69 67 64 63 63 62 58 54 52 56 57 58 60 64 66 69 68 68 67 70 70 67 66 66 66 66 66 65 66 67 66 63 61 59 59 55 51 53 50 53
70 70 70 71 69 67 68 65 64 61 61 61 58 57 59 56 55 58 59 62 66 67 67 68 68 71 72 71 70 69 71 70 70 69 70 70 73 68 65 64 61 57 52 52 56 57 54
75 75 73 72 73 71 68 66 63 62 60 56 58 59 57 59 58 57 58 62 66 68 66 66 68 67 70 70 69 69 71 75 73 71 69 68 72 72 65 64 59 53 55 55 57 56 53
76 76 76 74 72 71 69 67 64 64 62 61 59 59 58 58 56 56 61 62 62 65 65 63 64 67 65 64 61 62 63 64 69 68 59 60 63 63 67 63 58 55 57 57 56 49 52
77 77 76 73 69 66 65 63 63 62 61 59 57 53 53 53 53 53 56 59 59 62 60 58 59 59 56 56 52 52 51 55 57 52 57 58 51 62 58 59 56 58 58 56 51 49 48
76 76 75 73 70 68 66 65 63 61 61 53 51 50 51 49 54 54 56 56 57 56 58 56 54 48 44 45 44 45 46 51 51 52 62 57 36 63 72 65 60 56 47 48 48 46 44
78 75 75 73 70 67 66 64 62 58 56 54 50 49 49 51 53 53 54 56 54 49 55 54 36 32 31 27 27 31 38 43 44 47 56 51 54 51 49 54 51 45 47 46 48 46 43
77 75 73 72 70 69 67 65 61 58 53 52 49 49 50 51 51 52 51 47 45 47 49 41 33 37 30 33 33 31 33 34 32 37 39 41 43 45 41 38 44 38 42 48 44 41 43
77 75 73 72 70 67 65 63 59 56 53 51 50 51 50 50 49 46 43 41 39 48 41 41 40 37 37 34 34 34 28 28 30 31 33 41 41 42 43 44 43 38 37 36 36 39 36
77 74 73 71 69 67 65 62 58 54 52 52 51 51 49 46 40 40 36 42 45 48 43 35 33 31 34 41 37 37 36 32 32 32 32 44 42 42 40 38 37 34 30 25 22 20 21
79 76 73 70 68 66 64 61 56 54 52 52 51 49 44 39 38 39 42 39 41 42 44 41 40 39 34 33 36 36 35 33 33 32 32 38 34 33 30 27 23 23 25 20 28 29 30
80 79 76 73 68 67 63 60 57 54 52 51 50 44 40 37 36 37 40 39 39 39 33 35 33 29 32 37 35 34 32 35 32 32 34 37 31 29 24 21 21 23 24 23 26 26 26
78 75 74 74 70 66 62 58 56 54 51 49 47 42 37 36 35 37 38 36 34 41 39 34 35 31 31 33 34 38 35 28 28 31 36 33 28 25 26 27 30 29 31 32 31 31 28
66 65 57 56 60 63 60 56 52 51 50 49 44 40 37 36 36 36 35 35 31 30 32 32 30 31 31 33 36 34 31 26 24 22 21 28 31 27 26 28 31 34 35 34 34 34 34
47 43 36 49 44 48 51 49 49 47 48 46 41 38 37 37 35 34 32 36 33 30 29 29 29 30 30 32 34 30 30 26 24 18 27 33 33 28 26 30 33 34 33 31 31 33 35
30 34 40 38 33 36 41 42 43 44 41 38 36 36 37 35 33 32 30 30 31 30 30 30 33 31 28 28 32 28 32 31 28 29 32 28 24 27 29 30 27 25 25 25 26 28 29
32 32 44 35 34 38 39 40 40 38 35 34 34 35 33 32 31 31 32 29 29 29 29 29 30 22 23 24 26 29 30 29 35 29 37 35 32 32 28 20 18 16 19 22 25 27 33
33 45 29 28 30 30 35 34 35 33 32 32 34 33 30 30 30 30 29 28 27 26 25 24 23 20 22 24 20 26 30 24 24 25 23 23 19 16 13 13 18 22 25 28 29 30 34
46 40 31 29 36 28 28 32 33 31 31 32 31 28 29 28 27 25 24 24 23 22 22 25 21 23 20 21 20 21 23 23 20 18 14 11 9 15 18 21 23 26 27 30 33 36 40
28 26 29 31 31 28 29 29 30 30 29 28 26 26 25 25 22 21 23 24 25 26 24 29 24 21 17 23 25 24 23 19 15 11 10 13 15 16 18 22 26 26 29 31 34 38 38
26 24 28 20 20 25 29 30 29 26 26 25 25 24 24 22 21 24 24 25 27 27 23 21 21 21 20 22 21 18 14 12 9 11 13 13 14 17 18 21 24 23 22 20 22 23 22
30 26 31 28 26 26 27 28 27 25 27 24 22 22 21 22 24 25 27 28 26 23 22 22 21 19 18 16 13 11 10 10 10 10 11 13 14 15 15 14 13 14 14 17 16 9 9
31 29 26 26 23 23 26 25 26 29 26 24 23 24 24 22 27 29 29 26 25 24 22 20 15 13 12 12 12 10 9 9 8 9 11 12 12 8 6 7 11 17 17 15 7 9 7
22 22 21 23 23 24 26 26 27 28 26 29 27 27 24 27 31 29 26 28 23 21 18 15 14 13 13 12 11 10 8 8 8 9 9 9 6 5 9 13 15 12 8 6 6 3 6
21 21 23 21 22 26 25 24 25 30 35 28 28 30 30 29 26 29 29 24 20 17 15 14 13 14 13 11 9 8 8 8 7 7 7 8 10 8 7 6 8 5 3 5 1 4 4

GFSGBSN_500_spd_105.txt.gz
Wind_Speed
58 58 55 52 51 51 49 48 46 43 45 43 40 41 43 43 42 43 44 44 45 45 45 45 45 46 46 45 45 47 43 43 43 44 44 43 42 45 45 48 49 47 47 48 48 47 48
56 56 55 52 51 52 53 51 50 49 49 49 46 50 47 50 52 50 52 53 51 50 53 54 54 51 50 50 48 46 46 45 48 48 50 50 51 53 54 53 52 54 56 54 51 53 50
56 56 56 54 54 55 53 53 53 54 53 54 54 56 54 54 56 60 59 56 55 56 58 59 57 56 54 51 51 53 50 52 54 55 57 59 60 62 61 59 60 59 56 60 59 58 52
57 58 57 57 57 56 57 58 57 60 60 63 61 61 59 59 58 59 60 56 58 55 53 59 58 60 58 53 53 54 57 58 59 59 60 60 63 64 65 64 63 63 62 61 63 63 57
61 62 60 62 61 60 63 62 64 62 64 63 63 62 60 60 60 58 56 52 52 54 53 52 55 54 57 57 57 57 59 60 63 64 65 65 68 70 69 70 69 66 68 66 65 63 59
69 69 67 70 70 67 65 67 68 67 64 64 63 62 60 59 56 56 53 50 51 54 55 52 50 53 55 58 62 64 65 66 69 71 68 69 73 74 72 77 76 70 70 68 65 55 64
66 71 72 68 67 68 68 66 65 66 66 65 63 60 60 58 56 54 55 56 55 54 52 49 55 54 56 61 64 64 69 68 71 73 75 71 74 73 75 73 73 74 71 66 63 58 60
74 72 73 72 72 72 71 71 71 70 69 67 62 59 57 56 56 54 56 53 48 52 51 49 49 51 56 60 63 64 67 65 66 67 65 68 74 66 66 67 65 58 69 69 61 59 59
77 76 77 76 73 73 73 72 69 68 66 64 59 55 54 54 55 55 51 52 51 57 59 49 52 53 57 62 59 56 59 62 60 58 54 59 58 56 57 54 63 62 71 71 67 67 68
81 81 80 78 77 76 74 71 67 65 64 62 59 57 54 54 56 54 54 52 53 59 62 53 54 57 58 54 57 51 49 49 48 46 47 52 46 52 53 54 48 46 43 64 65 69 65
82 82 80 78 75 74 72 70 68 65 63 62 58 56 55 56 56 53 52 53 55 57 58 58 59 56 54 50 44 39 36 32 32 35 39 37 41 45 48 51 59 53 45 51 43 50 62
79 77 78 76 74 74 72 70 67 65 63 61 60 58 59 58 55 53 53 53 54 54 59 56 55 51 44 33 35 39 33 36 34 32 31 31 33 35 32 34 37 39 36 39 50 29 41
78 78 76 76 76 72 71 69 67 65 64 62 61 60 58 56 54 53 52 52 51 56 55 54 50 43 33 36 39 39 38 34 34 31 31 30 29 29 33 42 39 35 23 29 34 27 37
78 76 76 74 74 73 71 70 68 65 64 63 62 61 57 55 54 53 50 50 51 51 49 48 43 40 36 37 36 35 38 40 34 32 34 32 31 30 33 38 35 37 30 32 35 33 24
81 79 78 78 77 75 72 71 67 65 63 62 61 58 56 53 52 50 49 49 48 45 44 45 37 42 42 43 38 39 41 38 32 32 32 30 32 34 33 36 31 23 29 17 22 23 19
83 82 83 83 81 79 75 71 68 64 61 59 56 55 54 52 51 48 47 49 50 48 47 46 41 39 38 41 41 36 34 35 34 32 28 31 32 33 35 31 28 24 15 13 23 24 19
80 81 82 82 80 78 80 74 67 64 61 58 55 53 52 50 48 46 45 46 47 45 43 40 38 44 31 34 33 34 32 38 32 27 25 24 30 32 33 29 26 20 18 21 26 28 24
70 71 72 70 69 62 63 69 66 63 59 57 53 51 49 46 45 44 42 44 42 40 40 42 38 37 41 37 37 35 37 37 24 23 23 21 24 27 23 23 21 30 32 31 31 28 21
57 55 53 52 47 37 43 41 50 54 54 51 49 48 46 45 46 41 41 41 39 39 39 37 34 34 35 34 36 37 38 29 29 25 21 19 21 30 24 22 22 28 32 31 37 36 36
40 41 40 38 32 37 45 39 29 35 40 45 45 44 45 45 41 39 38 38 36 36 36 36 35 34 34 34 32 34 33 30 28 25 22 20 24 30 21 23 29 27 31 34 36 37 37
34 36 35 34 45 39 35 35 34 34 35 40 42 40 38 35 35 37 37 35 33 34 32 32 35 35 33 32 31 33 29 27 25 25 22 23 22 34 34 30 32 28 26 29 31 28 30
29 35 33 48 40 36 29 26 31 37 42 42 38 34 34 34 37 37 35 33 32 32 31 33 32 33 32 28 28 22 24 23 26 34 33 28 31 30 30 32 31 26 21 20 19 20 26
30 34 35 55 33 29 32 27 28 38 39 40 38 38 37 37 36 33 32 29 29 31 30 31 31 32 28 26 23 20 22 22 23 30 26 31 25 24 24 17 13 17 18 21 23 27 32
29 36 49 50 36 32 30 19 23 30 35 34 31 35 33 32 30 28 29 28 29 31 30 29 31 27 23 21 20 22 21 21 24 23 21 20 21 13 13 14 21 19 21 24 26 31 33
37 42 48 41 36 33 28 30 25 29 27 27 33 28 28 28 26 27 28 27 31 32 33 32 28 22 21 19 24 26 23 21 21 22 19 12 11 15 17 18 22 21 21 21 21 26 26
31 45 34 37 28 30 26 25 28 27 28 31 29 30 29 27 26 26 28 30 32 35 33 29 29 26 23 21 25 28 24 21 19 13 11 15 15 16 16 17 18 14 14 16 21 20 13
30 34 32 27 27 21 19 24 27 28 30 31 29 30 28 27 25 28 31 29 33 31 27 24 21 22 24 24 23 20 16 16 14 15 14 13 13 13 14 12 10 11 14 15 10 9 11
29 31 31 31 30 26 23 22 28 30 29 29 28 28 27 27 29 30 33 34 29 25 23 24 23 22 22 19 18 18 17 16 14 12 10 10 10 9 7 8 13 13 12 9 10 14 9
33 30 26 25 25 22 22 28 30 29 32 31 28 29 26 27 29 33 32 26 23 24 25 22 20 20 19 18 17 16 15 13 11 10 8 9 9 9 9 9 10 10 7 6 12 4 4

GFSGBSN_500_spd_108.txt.gz
Wind_Speed
63 63 62 63 63 63 60 58 57 53 49 49 49 45 43 39 46 42 38 42 42 42 43 43 45 45 45 46 36 41 42 40 40 41 39 38 37 39 40 41 42 44 46 47 47 47 46
63 62 63 63 63 60 58 56 55 54 54 51 49 48 45 44 49 48 48 48 49 48 50 50 54 54 54 53 44 44 46 44 43 43 43 44 44 45 46 48 51 53 53 54 55 58 58
63 60 58 57 58 59 56 60 56 55 53 51 53 51 50 47 53 51 50 52 54 53 56 58 60 61 60 52 53 50 50 49 49 45 48 48 48 50 51 55 55 57 60 59 59 61 60
66 59 55 54 56 58 59 57 56 55 55 54 55 55 54 54 53 58 56 58 63 60 58 59 60 62 65 55 55 48 47 51 51 49 49 49 51 55 57 59 61 62 66 69 62 64 64
62 57 57 58 57 57 59 57 57 57 56 57 56 56 57 56 63 63 65 63 61 63 62 60 61 56 55 59 52 53 51 49 51 52 55 57 58 59 62 65 68 70 74 73 72 68 67
63 63 64 63 61 60 59 58 59 59 59 60 60 61 60 60 61 59 59 61 62 64 61 55 51 52 51 56 56 56 51 50 51 54 56 58 62 67 69 71 73 70 74 75 76 71 68
71 70 67 69 66 66 66 65 68 69 67 69 68 65 59 61 60 60 60 63 63 59 58 53 54 51 51 52 50 49 50 51 51 54 58 64 68 67 67 68 72 74 75 78 78 76 70
68 68 68 66 64 65 69 70 67 67 65 66 65 64 64 64 63 62 63 61 57 59 56 50 49 49 47 52 51 50 53 54 56 58 61 62 66 64 65 67 67 65 69 71 65 66 58
72 70 70 69 73 71 70 72 71 68 67 68 71 69 68 64 62 61 59 57 55 59 58 52 53 48 52 55 51 48 55 55 58 59 60 63 61 55 59 60 51 50 55 49 53 49 55
73 73 72 71 72 73 71 72 72 72 72 69 67 67 64 63 61 57 57 57 58 62 62 51 53 52 55 55 52 50 55 56 57 57 54 57 45 43 42 44 45 49 46 48 49 51 40
79 78 79 78 76 78 77 74 72 71 72 69 68 65 63 60 58 55 55 56 59 61 61 54 57 56 55 54 53 53 50 51 50 47 48 37 37 34 36 34 37 45 45 42 45 51 52
87 86 84 83 84 82 82 80 77 74 72 70 66 63 62 61 56 56 56 58 61 61 63 57 57 56 53 51 50 49 49 47 41 40 44 36 38 37 33 33 33 39 37 37 45 39 46
77 76 76 76 75 75 76 74 72 71 70 69 67 64 62 59 56 57 58 60 59 64 59 58 56 54 51 50 49 47 43 41 41 41 38 36 35 36 34 33 31 30 31 40 40 34 29
76 76 75 75 74 73 72 73 71 69 67 67 66 65 62 61 59 60 60 60 60 60 57 55 53 54 48 46 42 40 39 40 41 38 39 41 41 34 29 29 31 28 31 33 30 28 26
74 75 74 73 72 71 70 69 68 68 67 65 64 63 62 61 60 60 57 60 59 53 53 54 50 48 42 36 38 36 39 39 39 35 39 35 31 30 31 33 29 27 26 20 21 17 14
76 76 76 74 74 73 72 72 71 69 67 68 65 63 61 58 53 54 55 57 55 52 49 47 47 42 36 36 37 36 38 43 48 42 36 28 26 25 28 33 29 24 19 16 18 18 21
74 75 75 75 75 74 73 73 73 74 73 71 69 66 62 59 57 57 54 59 51 48 44 43 43 43 43 46 45 36 33 35 36 41 32 25 26 24 27 32 31 30 23 20 20 21 20
74 74 74 74 74 75 74 73 73 75 76 73 69 65 61 57 55 52 53 50 49 42 46 41 44 45 43 41 39 39 36 31 35 37 28 28 28 26 23 27 29 26 25 20 24 22 17
63 63 63 63 65 66 68 68 62 58 57 63 59 59 57 57 55 53 48 48 46 44 47 42 44 43 40 39 41 37 39 41 40 39 34 32 27 23 25 30 18 16 17 23 25 29 23
54 55 57 57 58 57 56 55 47 46 42 42 41 45 51 52 50 48 46 45 45 42 43 43 42 40 39 38 37 35 39 40 40 41 34 28 27 23 23 26 25 17 19 28 31 32 33
50 51 48 43 49 49 47 38 48 46 40 38 40 38 38 44 44 41 43 42 43 42 41 39 39 37 37 36 36 35 37 39 35 33 31 29 26 26 25 30 30 26 28 29 30 33 34
42 41 39 39 39 36 38 52 40 41 35 39 38 37 37 39 40 40 41 39 39 38 37 35 36 35 35 35 36 34 34 34 33 32 29 25 24 28 26 25 34 38 38 35 35 33 34
34 32 32 33 35 36 52 41 37 34 41 34 37 40 32 39 38 40 37 37 36 35 36 35 35 35 34 34 36 33 33 31 29 25 25 25 25 25 27 30 35 40 37 31 22 22 27
27 29 30 28 31 43 54 38 32 32 30 32 36 41 41 36 33 36 37 35 33 31 30 33 33 34 34 34 31 26 24 23 23 24 22 24 28 29 32 27 24 29 20 20 23 26 28
24 27 28 33 44 51 39 37 31 27 29 28 29 33 34 27 27 29 32 30 27 28 30 35 33 33 35 31 26 25 23 21 22 23 22 21 23 22 20 17 24 22 15 20 23 22 24
19 21 32 42 54 44 40 39 29 23 28 28 28 27 27 24 24 26 28 29 30 30 35 36 32 34 30 25 24 24 24 24 24 24 24 22 19 18 17 17 20 17 18 15 20 21 20
15 20 40 53 43 38 35 34 29 24 24 26 31 30 29 24 28 26 28 29 27 32 38 35 31 32 26 24 24 24 31 30 27 22 19 17 17 16 16 19 19 15 12 16 20 17 11
16 29 46 47 37 34 34 27 22 23 29 30 32 29 30 27 26 27 26 26 32 33 33 37 29 27 28 27 23 23 22 28 24 19 16 16 15 17 17 16 13 12 13 16 13 12 15
30 32 42 36 29 29 26 22 24 29 27 26 30 32 38 36 26 33 35 30 32 31 26 23 27 24 23 25 26 27 22 17 17 17 16 15 15 12 14 8 9 10 11 9 7 10 6

GFSGBSN_500_spd_111.txt.gz
Wind_Speed
62 60 60 59 58 57 57 58 58 59 59 60 58 56 53 50 47 48 50 48 43 42 40 36 40 43 43 40 33 45 41 42 41 42 41 39 39 40 40 39 39 39 39 40 40 41 42
68 67 65 64 64 63 63 63 63 62 61 60 56 52 46 47 55 50 48 46 44 45 46 43 45 47 48 42 44 44 49 46 45 47 48 46 45 45 45 42 43 44 46 45 46 49 53
69 66 65 67 65 64 63 64 63 61 58 53 50 50 54 54 53 51 49 51 48 46 49 48 49 50 51 44 49 50 53 54 52 45 47 45 45 46 46 47 46 47 50 49 50 54 57
71 74 75 71 66 66 67 69 64 58 53 57 55 53 54 53 54 54 52 56 54 50 52 56 56 57 55 52 52 53 52 51 55 54 48 49 47 47 48 52 53 54 54 55 52 56 60
67 66 61 58 57 59 58 57 54 51 51 54 54 55 54 54 54 55 55 57 56 56 56 58 59 58 56 55 54 53 50 48 49 51 52 49 49 48 50 54 54 53 57 59 59 60 65
66 64 61 58 58 61 59 54 52 55 56 55 56 57 53 54 55 55 55 57 60 61 55 56 53 57 57 57 52 49 47 46 46 48 50 50 51 53 52 53 56 59 60 60 65 65 70
64 64 64 62 61 62 60 57 57 58 58 58 59 57 55 56 57 58 63 66 69 70 69 57 59 58 53 53 50 48 46 43 43 45 47 48 50 52 53 58 59 57 61 64 63 65 71
66 65 66 66 65 64 63 64 64 64 62 62 63 61 59 65 66 64 67 62 60 61 61 58 57 52 49 53 50 47 48 48 47 46 48 49 51 55 57 58 61 62 62 63 66 67 67
68 68 67 68 66 65 65 66 62 59 59 58 61 64 66 67 63 61 59 60 61 62 65 57 51 47 51 55 48 48 53 51 50 52 52 54 53 57 59 60 58 57 58 57 60 59 59
70 69 70 72 72 71 71 70 68 67 67 66 65 64 66 65 66 63 62 59 59 61 59 52 53 51 52 51 49 51 52 52 53 53 54 56 54 55 58 53 40 51 46 47 44 48 51
73 72 72 72 71 68 66 65 68 67 67 66 66 66 65 66 67 66 62 60 60 59 57 51 56 54 52 49 50 48 49 51 50 52 56 50 51 55 50 40 40 40 40 42 44 45 47
78 77 74 73 72 72 71 71 69 69 68 68 68 69 70 70 67 63 60 58 57 57 57 54 56 55 55 52 51 53 50 50 49 51 53 51 49 46 40 37 36 40 41 37 40 42 43
82 81 81 80 79 77 77 76 75 74 73 72 72 70 70 67 61 60 60 58 58 63 60 56 58 57 54 54 53 53 50 50 47 48 48 44 41 40 39 35 32 34 36 36 38 39 40
77 76 76 78 78 77 77 77 76 75 73 71 69 65 64 62 58 59 59 60 65 62 59 56 55 54 54 52 52 51 48 45 46 47 42 40 37 38 37 36 38 37 33 31 34 35 31
76 74 73 74 74 74 74 74 72 70 69 68 65 65 62 60 59 59 60 64 65 57 54 52 50 54 49 50 51 49 47 46 40 37 36 36 41 37 32 31 33 34 30 30 29 26 26
74 74 74 73 72 72 72 71 70 69 68 67 65 64 62 61 59 58 59 61 60 55 53 53 53 51 46 44 36 41 42 40 38 34 32 36 42 34 28 29 33 34 30 24 22 21 21
75 74 72 71 71 70 70 69 67 66 65 65 66 66 62 62 61 62 63 62 53 50 50 47 48 47 43 40 40 38 38 37 37 37 37 39 35 28 28 27 29 33 31 24 21 22 22
73 72 71 71 71 72 71 69 68 68 67 68 68 69 65 65 67 66 62 58 51 50 49 51 49 43 44 40 36 38 41 44 42 36 30 35 30 27 24 25 29 32 31 26 20 17 24
72 72 70 68 68 67 67 66 65 65 65 64 67 66 67 67 67 64 61 57 54 54 47 47 45 44 42 39 45 42 43 40 36 33 37 34 32 33 32 30 29 33 27 24 22 26 23
63 65 66 66 66 67 66 65 63 63 61 59 55 55 58 64 62 56 54 55 53 45 46 48 49 40 40 42 42 41 40 36 37 35 38 45 43 39 36 34 29 30 29 25 24 28 29
56 56 55 54 55 53 52 53 54 54 53 42 45 53 45 49 43 42 43 47 45 45 48 48 45 41 42 44 41 40 38 37 37 35 36 44 43 39 36 32 31 25 26 25 26 25 29
51 49 49 49 47 48 50 48 47 46 44 46 45 42 35 28 34 40 44 42 47 46 42 42 44 42 41 39 39 37 36 36 37 34 34 37 38 36 33 30 29 31 34 31 31 32 34
45 46 46 44 43 45 44 43 46 46 53 51 44 37 26 28 35 36 42 43 42 39 42 44 41 40 38 36 36 34 33 35 36 33 33 35 31 32 31 28 32 32 26 29 36 39 43
37 38 38 39 39 40 40 39 37 46 56 38 33 37 40 31 15 31 32 39 41 37 35 34 37 36 36 33 31 32 32 31 31 27 29 28 27 26 28 25 28 28 25 30 35 34 30
29 30 32 34 35 33 33 33 41 50 45 33 36 36 44 38 24 21 28 29 33 30 33 28 31 26 30 32 30 31 31 26 27 26 26 24 25 27 29 27 30 24 27 25 25 25 28
24 26 27 30 29 31 32 36 45 40 33 33 37 37 34 39 36 26 25 27 31 30 33 25 29 31 28 29 29 31 28 24 27 24 23 23 22 23 25 26 25 19 17 21 23 19 20
21 23 20 24 30 32 42 50 40 36 33 32 29 32 32 29 27 26 21 23 26 30 31 32 40 34 32 29 26 27 27 25 25 23 20 22 23 21 22 20 20 17 16 19 18 16 18
18 18 21 25 34 41 51 45 37 34 27 31 28 28 26 25 14 24 21 24 25 27 29 35 37 35 29 23 23 23 25 26 26 23 23 22 21 18 19 19 16 17 16 15 15 15 11
16 15 20 33 41 50 45 37 38 28 24 26 29 34 27 22 15 19 19 22 30 34 37 35 36 32 24 25 24 22 22 22 20 22 21 18 18 18 18 16 13 14 13 11 10 7 11

GFSGBSN_500_spd_114.txt.gz
Wind_Speed
58 57 56 57 55 56 56 56 54 54 54 53 54 55 56 55 55 56 56 55 53 46 49 46 46 41 38 28 35 36 38 38 38 38 36 40 40 41 42 38 38 39 37 39 39 39 38
65 64 64 63 62 61 60 61 62 59 58 57 57 58 59 58 57 58 57 56 49 54 50 46 43 40 40 30 38 40 43 39 39 39 42 42 43 46 46 45 45 45 44 43 44 44 42
72 71 69 69 68 67 66 66 66 65 63 60 60 59 61 60 56 53 53 53 52 56 48 46 44 46 47 41 44 45 49 47 47 45 45 46 47 48 50 50 50 48 49 46 47 49 52
69 71 69 69 69 70 69 68 68 68 65 67 61 61 60 55 57 50 53 53 59 48 47 49 47 49 50 46 48 49 49 53 53 51 49 49 47 47 46 49 47 49 48 50 50 54 56
67 66 66 69 66 64 63 65 66 71 67 63 64 62 55 53 55 56 58 53 48 51 52 51 52 52 54 53 50 51 52 48 49 49 47 44 42 44 46 47 47 49 51 51 55 56 58
70 68 69 67 65 65 63 60 61 59 55 53 52 50 49 50 47 51 50 52 50 53 53 54 58 55 55 56 57 53 52 50 49 47 46 45 46 44 45 50 49 51 51 48 52 58 60
76 74 70 67 65 62 63 59 56 53 54 53 54 50 49 50 52 50 51 53 53 53 55 56 59 59 62 60 58 55 51 48 44 43 45 47 46 43 48 50 50 52 53 52 53 60 63
81 77 67 64 62 61 60 59 57 55 57 58 57 55 52 54 54 54 55 54 54 59 60 58 61 57 49 50 52 50 49 44 43 44 45 45 45 48 51 52 52 55 57 56 53 59 63
78 72 68 66 63 61 61 60 60 59 58 59 59 58 58 59 59 58 58 60 55 63 62 55 54 51 50 55 51 49 47 46 44 43 44 46 47 48 49 53 54 55 57 57 60 59 57
72 71 69 67 64 64 63 62 61 61 60 60 61 61 60 63 55 55 52 55 56 57 56 52 53 51 51 50 47 47 47 48 48 48 49 51 48 47 51 53 53 53 56 59 57 54 54
78 75 70 69 68 67 65 66 64 64 62 61 59 60 63 63 62 62 62 60 61 58 56 53 54 53 49 46 43 42 43 45 45 48 50 49 50 53 54 53 53 55 56 51 44 41 43
79 75 73 73 70 68 68 68 66 65 66 67 66 69 68 66 60 60 61 60 60 59 57 55 55 53 50 46 46 46 46 47 45 49 50 50 51 52 51 53 53 52 45 37 37 36 37
76 74 74 73 71 70 70 70 68 66 66 65 65 64 63 63 60 63 64 65 64 65 59 57 54 53 52 52 54 53 52 51 48 48 47 47 46 47 48 47 43 41 40 39 39 36 34
76 75 74 74 73 73 72 70 69 69 68 68 67 66 66 65 66 65 66 66 68 61 57 53 53 53 53 53 54 55 53 51 49 47 47 46 43 42 42 41 38 40 36 37 42 38 32
78 77 76 72 70 72 74 74 73 72 72 73 72 71 69 67 66 64 63 64 66 54 52 51 48 50 53 53 53 52 51 47 44 46 45 44 42 37 35 34 36 35 32 35 36 33 33
77 76 74 72 71 71 71 70 68 66 66 66 64 62 59 58 59 60 60 60 60 54 50 53 52 50 49 46 48 49 50 51 46 40 40 38 38 35 33 34 33 32 33 32 33 28 30
76 75 73 72 71 71 70 69 68 66 66 66 65 64 61 59 59 60 61 61 56 51 50 48 51 49 46 45 43 44 46 46 45 42 38 33 34 35 35 32 30 33 32 31 29 29 31
77 76 73 71 71 70 69 68 67 66 66 66 65 65 63 61 61 64 63 58 55 50 51 51 48 50 46 39 39 44 45 42 38 36 36 36 41 40 39 32 30 30 29 30 31 25 29
74 73 72 72 72 70 69 68 66 66 66 66 66 66 64 65 66 64 63 61 60 57 54 51 50 45 41 41 43 45 43 40 38 35 38 40 41 37 38 36 26 30 28 31 31 29 28
70 70 70 70 69 69 68 67 67 67 67 68 67 67 67 67 65 62 62 60 58 55 55 52 49 47 47 47 47 45 41 39 42 40 43 39 38 38 43 35 26 30 38 39 34 32 30
59 62 66 65 66 67 66 65 64 64 65 65 65 64 61 61 61 60 54 52 52 54 54 49 46 53 49 45 48 43 38 40 46 45 41 38 36 36 42 38 40 39 39 39 36 39 35
54 55 55 55 55 55 55 59 59 62 63 65 61 57 54 53 49 49 46 44 41 39 40 45 43 41 51 52 44 39 44 46 46 42 39 36 35 35 36 38 43 41 40 39 33 34 34
49 49 48 49 50 48 49 50 51 52 53 52 52 48 47 46 37 38 30 31 32 35 42 44 42 44 36 35 40 44 46 44 42 38 36 35 35 34 34 35 38 45 40 36 32 36 34
43 43 43 44 44 44 43 42 42 44 45 44 40 35 36 37 37 27 32 36 36 38 32 39 49 53 48 37 41 41 39 38 38 36 34 32 32 34 36 38 41 43 35 32 34 34 32
35 37 38 40 41 40 39 40 41 42 42 42 41 47 43 40 35 33 25 33 31 36 44 38 36 42 46 41 43 38 35 36 31 30 28 29 31 32 32 33 37 36 28 25 30 31 32
29 32 34 36 38 37 39 40 40 40 40 40 40 45 45 38 43 40 29 21 31 29 36 36 28 28 30 30 34 35 34 29 29 27 25 26 27 27 29 32 31 26 27 29 28 25 28
24 26 28 29 30 33 34 34 35 38 37 36 46 37 35 42 40 37 24 17 19 27 28 33 31 31 37 26 28 29 32 31 29 27 26 25 26 24 24 25 23 22 25 23 21 19 24
23 23 24 25 27 28 29 28 31 32 36 49 36 36 34 33 28 33 30 25 18 22 28 33 29 32 27 28 28 26 29 29 29 27 27 25 24 21 24 22 22 19 20 19 20 20 20
21 23 23 22 24 27 30 32 29 37 40 36 33 32 31 28 29 32 29 25 20 24 29 32 24 27 23 27 28 26 23 25 22 23 24 23 22 24 24 17 17 15 18 19 17 14 13

GFSGBSN_500_spd_117.txt.gz
Wind_Speed
62 60 58 58 58 57 57 56 57 55 54 54 54 54 53 53 52 52 50 50 49 49 49 49 49 48 42 39 45 40 36 36 35 35 36 40 39 39 33 35 38 41 37 37 37 33 35
62 59 57 58 59 58 57 58 56 56 54 55 56 56 54 56 52 53 52 52 52 53 53 52 52 48 40 36 42 40 37 37 38 39 38 42 42 43 44 40 41 42 45 44 44 41 43
68 65 66 64 65 65 64 62 61 61 60 60 61 61 59 59 59 57 56 55 54 58 59 57 57 52 45 43 42 42 42 43 46 43 43 45 49 50 51 46 45 45 45 47 45 46 47
73 68 73 71 72 69 70 69 68 67 67 67 66 65 65 64 64 64 62 64 62 62 61 63 60 55 44 42 44 46 48 48 49 49 48 47 49 53 52 49 48 48 48 47 47 47 46
74 70 71 72 67 70 74 71 65 64 62 60 62 62 64 64 64 63 65 65 62 62 59 58 53 53 44 43 45 48 48 50 52 51 47 46 48 49 48 46 48 46 49 49 49 49 47
72 72 69 68 69 67 66 62 61 59 59 60 60 59 60 60 60 55 55 51 53 50 48 48 47 46 47 45 46 49 50 50 50 52 53 51 53 51 44 47 50 49 49 49 49 50 49
77 76 74 74 71 71 68 65 63 61 60 59 59 58 58 57 52 47 46 43 47 48 46 46 49 46 50 50 52 52 52 52 51 52 48 48 48 44 45 47 47 46 46 49 49 52 52
85 81 81 81 76 75 70 70 69 65 60 58 58 56 54 53 51 48 45 45 46 50 51 47 48 49 52 52 51 52 53 50 44 45 46 45 46 46 46 46 47 48 49 50 52 55 57
89 86 83 89 81 81 76 73 68 62 59 59 57 56 55 53 55 52 48 51 51 53 53 50 53 52 52 55 53 50 49 45 45 43 40 43 47 45 45 47 49 49 51 52 53 58 59
104 94 92 92 87 76 73 71 69 64 61 59 59 58 57 56 55 53 54 56 53 55 57 53 54 55 55 57 52 49 48 47 45 43 45 45 42 44 48 50 50 51 51 53 55 58 59
88 94 91 91 91 80 69 67 65 61 62 60 58 59 59 58 57 56 57 56 55 58 55 52 55 55 51 48 44 44 44 43 43 44 44 41 42 42 44 46 51 51 52 55 56 58 61
86 82 81 79 74 69 65 63 63 62 62 60 61 60 59 58 57 56 55 56 56 56 56 58 57 55 52 49 47 46 44 44 43 46 46 46 46 48 50 52 51 51 52 53 55 57 58
78 77 73 73 70 69 68 67 65 65 65 63 64 65 62 61 58 62 61 62 63 62 57 59 56 55 54 52 53 51 50 47 46 47 47 48 49 48 49 50 50 49 50 50 52 50 47
83 81 73 69 67 69 70 68 69 68 66 65 64 65 63 61 60 61 61 61 62 57 55 56 57 57 53 54 55 55 53 50 47 45 47 48 48 47 47 46 46 47 45 44 44 45 44
79 80 81 77 69 66 68 68 70 68 67 68 67 65 64 61 60 62 64 67 63 57 58 60 59 60 58 56 55 53 52 51 48 45 45 44 45 41 40 38 40 39 38 36 39 42 40
79 78 77 76 76 73 68 67 67 68 68 69 68 67 65 62 66 65 58 69 62 59 62 62 63 59 55 51 53 52 50 50 48 47 42 44 45 40 36 36 37 33 32 34 35 38 40
78 77 75 73 71 69 71 72 69 68 69 69 69 69 66 67 67 62 61 65 61 59 57 55 53 52 46 46 49 49 49 48 46 45 43 44 40 40 39 38 32 32 33 34 35 35 37
66 74 76 76 74 71 67 66 67 66 66 67 64 63 60 59 61 60 60 58 52 51 54 53 50 52 50 44 44 45 44 42 44 46 44 37 36 36 36 35 39 38 37 33 35 33 33
60 68 71 75 74 73 70 69 67 66 65 64 64 62 61 61 64 63 60 58 56 52 54 53 53 47 46 46 47 44 43 44 43 42 38 37 40 43 41 40 41 40 34 32 33 36 31
61 53 56 69 73 71 69 69 68 67 66 67 67 66 66 67 64 61 59 60 59 54 54 54 51 51 52 51 50 48 44 42 46 43 40 40 44 45 42 41 40 38 33 38 32 35 37
51 54 55 56 67 67 68 68 67 65 65 65 67 67 65 64 63 60 59 58 56 55 55 54 55 54 50 49 48 45 45 47 44 42 45 46 43 48 45 42 43 40 31 40 32 33 38
49 53 46 48 58 62 66 65 63 64 62 64 63 64 64 62 60 61 60 56 54 52 53 53 53 48 44 46 42 43 45 47 48 47 41 46 49 50 43 40 42 41 45 38 35 37 39
44 41 44 40 45 54 55 59 60 63 62 62 61 59 59 59 56 57 57 52 45 42 43 44 44 45 46 42 41 44 50 51 50 47 44 45 46 45 44 39 38 41 35 36 36 40 40
42 43 46 38 43 46 48 50 54 56 57 55 59 56 53 51 52 51 48 42 37 32 34 35 40 43 39 38 33 30 43 44 52 46 49 47 47 42 42 37 39 38 37 38 36 39 41
47 43 42 36 41 42 42 44 46 47 48 48 48 50 48 46 42 40 36 36 35 33 35 38 40 33 39 43 40 34 38 38 39 41 42 42 42 38 38 38 38 38 36 39 41 42 40
48 47 43 37 34 38 40 40 41 41 39 40 39 40 39 34 29 29 32 34 36 34 31 30 38 35 29 45 49 45 40 40 41 37 36 34 30 33 36 37 37 33 30 32 34 35 29
40 39 38 37 35 36 38 39 38 37 38 38 37 36 36 34 37 36 35 29 24 22 23 21 34 41 29 28 38 47 43 37 36 38 33 30 30 30 29 33 30 26 26 30 32 26 30
12 19 25 28 30 32 34 35 36 36 36 36 35 35 34 34 35 39 38 32 30 22 22 22 28 42 41 33 37 29 35 35 33 31 33 31 30 29 30 29 22 19 26 29 25 25 24
16 16 19 21 25 28 30 31 32 32 33 32 30 32 39 32 33 37 34 31 30 20 21 22 28 29 37 33 34 23 25 22 25 29 32 34 30 27 27 21 21 22 24 21 19 21 23

GFSGBSN_500_spd_120.txt.gz
Wind_Speed
66 63 61 60 60 59 57 58 58 58 57 57 56 55 53 53 51 51 51 50 49 49 47 46 44 43 44 41 45 40 39 40 37 36 38 36 37 37 35 38 38 37 36 36 34 35 38
64 63 63 64 61 58 57 58 59 57 54 57 55 55 52 52 51 49 50 49 49 47 48 45 45 45 45 42 45 42 39 39 38 37 41 41 42 41 43 40 43 44 42 41 40 39 42
67 65 62 60 61 63 62 61 57 56 55 57 55 54 54 53 53 52 52 51 51 49 50 49 48 47 46 48 52 48 41 42 42 40 41 43 43 44 45 45 46 48 49 46 44 44 43
59 65 64 63 64 62 60 65 66 65 61 60 59 58 58 59 59 60 60 59 59 57 55 56 55 56 53 52 51 48 46 44 44 44 44 46 47 50 49 45 46 46 47 47 46 45 44
71 73 73 76 75 73 70 66 66 66 66 67 66 64 65 66 64 63 58 57 58 58 56 51 52 57 49 50 50 51 47 43 44 47 48 50 48 51 51 50 50 47 50 48 46 44 46
83 82 80 83 78 77 76 74 68 64 66 65 63 63 62 60 58 57 55 54 52 51 52 50 51 50 50 44 43 43 40 40 43 47 49 50 52 52 50 51 53 52 50 48 48 46 47
89 87 82 79 79 80 76 74 70 67 63 64 62 61 58 56 53 55 52 53 53 53 53 50 46 43 44 43 44 43 44 43 43 44 45 48 51 46 43 48 47 49 49 49 46 46 47
92 90 87 85 82 87 84 75 70 68 65 65 65 63 60 56 53 52 53 50 52 52 48 47 45 42 45 45 45 43 44 45 45 44 46 47 49 47 47 46 48 48 48 48 48 48 48
97 93 94 88 88 89 91 79 74 71 72 71 69 64 58 57 56 52 53 54 52 52 51 46 47 46 46 50 47 43 47 45 45 45 43 42 45 44 44 43 42 44 47 48 50 50 51
108 101 94 95 92 91 90 86 82 75 76 76 75 73 68 61 58 54 53 55 53 50 54 52 49 50 50 50 50 47 47 44 46 43 43 46 40 41 43 41 41 44 44 48 50 52 53
100 101 103 100 97 95 93 88 85 83 79 76 69 72 68 66 58 56 55 54 52 52 54 53 54 52 51 49 45 42 41 41 40 41 44 41 38 39 39 40 43 44 45 47 50 52 54
98 95 92 94 88 91 88 86 83 81 81 78 74 69 63 59 56 58 56 55 54 53 58 56 56 54 52 51 48 47 46 43 43 44 44 42 42 41 41 42 44 46 49 51 53 54 55
91 91 92 85 78 71 69 72 74 70 63 64 68 67 63 59 56 59 57 57 57 56 57 57 56 55 55 53 52 51 48 46 46 46 45 45 44 45 45 46 45 45 47 50 53 53 52
82 79 81 85 83 73 65 65 64 65 66 63 61 62 62 59 62 61 59 59 60 53 57 58 56 56 54 53 53 52 52 50 49 48 48 48 47 45 44 45 47 46 46 47 47 50 51
80 74 67 76 75 80 75 63 62 60 61 61 61 64 60 59 58 61 62 65 58 51 56 59 58 58 56 55 54 54 54 54 53 51 49 47 47 44 42 42 43 44 42 37 39 43 45
75 76 65 63 68 69 70 69 62 60 63 65 63 63 62 61 61 62 63 65 60 57 59 59 56 55 55 54 56 56 55 54 53 50 45 46 47 45 41 40 42 40 38 37 35 36 41
70 73 70 64 57 55 67 70 68 65 64 64 67 67 63 66 65 65 67 65 60 58 56 56 57 55 54 55 56 58 58 51 48 45 42 45 47 47 45 43 37 37 37 38 36 37 39
69 65 64 66 65 70 62 68 68 68 66 65 65 67 65 67 66 70 71 60 60 60 60 57 57 58 55 54 54 51 49 45 43 43 44 42 45 46 43 40 34 33 30 36 38 39 39
68 60 58 51 64 64 62 68 68 69 71 66 65 62 63 69 69 68 66 61 58 58 57 57 57 52 48 47 47 46 45 44 43 42 42 34 33 31 33 37 35 36 35 39 42 41 41
59 61 55 56 55 61 63 62 68 66 65 69 70 68 68 69 67 65 61 60 58 55 53 52 53 50 50 47 46 47 45 44 42 42 39 34 44 47 45 44 44 43 42 41 40 40 37
55 54 51 43 52 48 63 58 66 65 63 62 65 66 67 65 60 58 54 54 56 56 54 51 52 48 47 48 48 48 47 46 44 44 43 43 45 47 46 47 47 44 44 42 46 37 40
57 63 46 50 49 55 57 54 57 63 63 63 64 65 62 60 58 56 56 54 52 49 52 51 52 50 51 52 50 49 49 49 50 48 47 45 47 50 51 48 49 48 45 47 43 39 38
59 62 60 54 53 54 50 54 51 60 61 61 61 59 58 60 59 59 57 51 49 49 49 50 50 50 51 49 49 50 50 49 46 45 45 42 46 49 48 47 48 51 45 48 44 41 42
37 50 41 52 55 52 49 52 49 48 53 53 55 55 55 57 57 52 49 47 44 45 45 42 45 47 45 48 51 51 51 48 46 44 45 48 45 47 49 47 50 49 42 41 42 41 41
45 35 44 37 36 43 47 48 47 44 43 48 50 50 51 52 51 50 47 46 45 44 43 41 37 38 38 42 46 50 49 48 40 34 42 45 47 52 49 50 51 45 44 40 39 39 39
38 37 34 36 39 37 42 45 39 38 35 44 46 48 48 46 46 44 45 43 40 36 33 30 32 37 38 39 43 42 44 41 42 33 38 45 43 42 44 44 46 43 38 36 36 37 35
34 38 40 36 35 40 46 41 34 34 32 40 42 45 47 44 41 41 40 37 33 34 32 34 38 40 40 43 39 33 41 43 41 27 29 31 35 33 33 36 40 34 32 32 33 26 28
35 38 44 44 43 42 40 39 38 36 35 34 36 39 38 36 35 36 34 32 30 26 31 31 28 33 34 36 39 34 34 40 50 42 35 32 32 34 33 35 36 29 28 28 25 25 25
22 23 35 45 47 48 43 37 36 33 35 36 35 35 33 32 30 35 35 31 32 31 29 25 24 22 22 33 33 32 22 36 29 36 33 33 31 30 33 34 30 28 26 22 21 22 21

GFSGBSN_500_spd_123.txt.gz
Wind_Speed
61 63 62 60 59 58 57 57 56 56 56 56 55 54 55 53 50 52 51 50 50 48 46 45 44 42 39 38 39 37 37 37 38 36 39 37 37 33 36 37 36 34 33 31 32 35 36
59 62 61 61 59 63 61 59 56 54 55 56 56 55 55 55 52 50 51 49 49 47 44 43 44 41 38 36 39 36 36 36 41 40 42 42 36 35 38 39 40 38 38 38 37 39 42
63 64 63 63 60 60 58 59 58 57 55 54 52 51 55 55 53 49 49 48 49 45 46 42 42 41 41 40 41 40 38 41 44 41 42 40 39 38 39 42 43 43 43 44 43 43 42
70 69 66 62 59 58 60 59 54 55 57 58 58 58 59 55 54 48 50 50 51 49 51 49 50 48 46 45 44 44 42 44 41 42 44 43 43 43 42 44 45 46 48 48 48 42 43
71 72 70 65 64 66 65 65 61 58 54 54 55 57 58 60 59 55 56 56 57 56 55 53 54 53 49 48 45 42 44 42 42 44 46 46 43 46 45 46 48 50 51 50 47 46 47
74 74 74 72 73 69 65 65 61 61 62 63 63 61 58 59 60 59 58 55 57 55 53 50 48 46 44 43 42 43 42 43 42 43 42 39 42 44 44 49 52 52 51 48 45 44 46
81 79 81 80 80 73 68 68 65 67 68 70 69 66 63 60 56 57 58 54 54 51 48 47 45 44 42 43 44 43 42 42 40 38 38 41 42 40 43 47 50 51 48 45 42 45 45
103 95 92 91 88 87 74 77 78 77 79 78 75 68 69 68 60 56 55 54 54 52 48 44 44 44 43 43 41 41 39 39 39 38 38 39 41 43 43 44 44 45 48 46 47 47 48
99 97 97 98 92 93 95 90 85 83 81 78 75 74 69 68 62 57 58 58 55 52 52 44 44 43 44 45 41 38 40 42 39 37 38 42 44 41 42 43 42 43 44 44 45 44 45
97 96 98 101 107 101 100 95 90 88 87 82 79 77 79 73 66 62 61 59 54 50 53 51 46 47 49 46 45 41 41 40 40 40 42 43 40 40 41 39 40 42 40 44 44 45 46
100 98 97 99 100 99 98 99 94 91 90 84 83 82 81 72 69 67 65 62 62 61 55 54 54 50 50 49 47 45 43 43 42 38 38 37 37 37 37 37 39 41 42 43 44 46 47
100 98 98 96 95 96 96 94 97 94 88 90 84 78 80 81 74 69 63 63 62 61 64 59 55 54 51 47 44 43 42 41 39 40 40 39 41 38 37 38 40 41 42 43 45 47 47
91 96 93 93 91 90 94 92 95 90 101 90 88 81 69 72 68 70 67 66 65 66 62 61 56 56 55 50 46 45 44 44 45 45 42 41 41 40 40 40 41 43 44 47 48 48 48
76 80 73 78 82 81 83 84 87 85 86 75 74 67 67 65 72 72 67 63 67 66 62 59 59 57 57 54 52 50 49 48 46 45 43 42 41 40 41 42 45 46 46 47 46 48 49
62 58 69 65 57 63 67 58 55 75 77 69 60 59 59 58 65 68 65 68 70 64 62 59 60 59 56 54 54 52 51 51 49 45 43 43 45 44 43 42 43 43 41 40 44 45 47
77 75 74 53 52 54 50 58 58 65 68 71 60 54 52 61 58 62 66 70 59 61 61 59 58 58 57 55 54 53 53 53 49 45 44 45 46 45 44 42 41 39 40 39 41 42 47
58 61 65 73 66 42 51 48 52 49 56 60 63 56 54 62 63 58 63 57 57 59 58 59 56 55 55 55 55 54 53 50 49 48 45 47 46 45 45 41 37 40 42 42 40 39 40
56 67 69 76 76 76 49 54 49 48 50 56 59 59 57 58 62 65 64 52 56 56 55 54 55 54 52 53 53 53 52 50 49 48 48 43 43 43 42 42 41 41 41 38 36 34 34
42 61 66 66 64 67 69 57 45 53 54 54 59 57 58 63 67 64 57 54 56 55 58 56 54 54 54 51 51 52 52 50 47 43 41 38 36 38 42 40 36 32 29 32 33 39 42
34 45 61 57 54 62 70 61 59 56 49 45 46 59 61 65 61 61 60 59 58 57 58 56 56 56 54 53 51 50 49 46 41 40 40 38 39 33 35 33 31 34 37 38 40 44 42
29 33 64 64 54 46 62 67 61 56 64 51 46 52 61 59 61 58 57 54 55 55 55 55 56 54 51 51 50 48 45 44 42 41 42 43 43 42 38 42 45 47 47 46 45 45 46
27 34 52 70 57 54 51 54 65 71 65 68 58 58 58 61 55 55 52 57 54 52 55 55 52 50 49 49 47 46 45 46 45 46 46 44 44 44 44 45 50 52 47 45 50 47 45
26 35 43 58 52 56 49 53 52 64 69 68 61 56 52 58 58 56 57 48 47 50 52 51 49 50 51 47 45 46 47 48 48 48 49 48 48 46 46 47 51 54 48 49 51 46 44
26 35 47 54 63 44 47 40 48 54 57 56 45 48 45 47 54 54 49 46 44 44 42 42 41 42 42 43 45 45 46 47 47 46 47 47 48 43 48 46 52 47 45 48 44 45 43
16 17 50 57 39 40 47 45 45 46 39 43 56 45 41 38 39 46 46 44 43 43 41 40 39 39 39 40 43 44 45 47 42 44 46 46 47 47 46 49 48 48 44 43 47 45 41
13 16 56 66 23 41 44 47 50 46 43 42 46 45 46 50 47 44 45 44 43 43 41 39 38 38 38 40 42 43 44 41 42 40 39 43 44 44 46 55 52 45 47 47 49 41 37
20 25 35 56 49 33 33 38 40 39 39 41 47 45 47 43 43 44 44 41 41 40 38 37 37 38 39 39 40 39 37 36 36 34 35 41 42 34 44 51 42 34 35 34 36 31 33
27 30 29 39 46 38 32 32 32 34 42 47 46 46 51 50 45 40 38 38 39 36 34 35 37 37 38 41 41 40 40 40 39 36 33 27 25 47 42 29 31 27 32 33 32 31 29
29 28 34 37 34 27 32 35 36 43 40 35 38 42 45 55 49 45 39 36 34 32 32 33 30 30 32 33 39 37 36 34 34 32 27 41 40 38 33 30 29 29 31 31 29 29 27

GFSGBSN_500_spd_126.txt.gz
Wind_Speed
57 56 61 65 65 64 63 63 62 61 59 59 57 56 54 54 54 51 50 48 48 48 46 46 44 43 41 40 40 39 35 32 33 32 31 29 31 32 30 29 29 30 32 32 33 35 30
61 61 59 54 56 58 61 64 58 59 59 59 57 56 54 52 54 51 51 48 48 49 48 46 44 41 40 36 39 37 35 32 33 33 30 33 34 34 30 31 33 32 35 35 36 37 36
67 64 63 63 64 61 60 59 56 62 65 60 55 53 54 52 52 52 51 49 48 49 49 46 41 41 38 37 38 37 36 36 34 35 38 36 37 35 34 34 35 36 37 39 40 39 40
73 66 70 66 68 66 63 62 62 56 59 58 60 63 63 55 52 49 47 45 46 48 49 46 45 43 41 41 44 43 42 43 39 40 39 37 36 36 37 38 38 41 41 41 41 42 42
74 67 69 76 72 63 68 66 66 61 58 57 55 55 52 54 57 55 51 52 51 49 52 47 46 51 47 47 48 48 46 44 41 41 39 38 38 40 40 40 41 42 44 42 45 45 46
77 74 74 76 76 70 68 71 71 65 62 63 60 58 52 55 54 52 51 50 50 50 51 53 50 56 52 49 45 42 42 39 37 39 41 40 40 41 39 40 41 41 40 44 45 47 47
78 79 80 83 80 86 75 76 71 67 66 63 65 62 58 59 59 55 51 50 51 50 52 51 47 46 44 42 40 40 39 38 37 40 41 41 41 36 37 39 39 40 43 43 44 45 46
89 85 83 84 83 80 80 77 75 73 71 71 66 64 62 62 63 60 59 56 57 56 52 48 46 43 41 40 41 40 40 40 41 41 41 39 38 36 38 37 38 40 43 42 43 43 43
95 100 95 95 89 81 83 84 76 75 77 71 68 68 67 73 66 64 64 62 58 58 59 47 48 45 44 44 43 40 40 39 39 39 38 38 40 38 38 38 39 42 41 43 44 44 44
89 94 97 100 95 98 95 89 88 87 83 81 76 73 75 75 70 68 67 63 61 59 60 58 50 53 49 48 47 42 40 39 38 36 38 41 41 39 40 40 40 42 39 42 42 42 43
90 90 93 96 98 94 93 99 104 102 95 88 87 92 83 75 73 72 72 69 65 66 65 65 61 54 52 49 48 44 41 41 40 39 40 44 41 41 39 37 38 41 41 40 40 42 44
87 93 97 97 97 96 94 99 95 104 99 89 91 97 96 86 76 74 77 74 71 67 67 64 64 61 57 54 50 47 44 44 44 44 44 45 41 37 38 39 41 42 41 41 43 44 44
71 75 80 92 94 94 95 97 98 97 96 90 91 91 97 90 83 80 68 74 72 70 66 64 64 62 60 55 53 51 46 43 43 43 43 39 39 41 43 42 41 43 43 43 46 46 45
62 63 66 77 85 83 92 81 90 91 93 93 87 89 87 82 80 79 80 69 74 76 70 73 69 63 61 59 58 54 50 46 44 43 42 43 45 45 41 40 45 43 43 43 44 45 46
50 53 55 64 69 73 80 75 62 66 59 73 86 84 83 78 74 72 63 70 65 65 69 68 70 68 66 61 59 57 53 47 45 45 46 46 46 44 44 44 45 45 43 41 43 44 46
42 39 42 53 56 55 55 59 60 56 47 44 48 60 67 72 73 61 65 63 56 58 62 64 66 64 61 59 55 50 47 49 46 44 45 48 46 47 46 45 46 42 42 40 40 41 43
37 38 36 42 55 58 55 62 57 61 61 47 53 57 50 57 60 64 65 58 56 55 60 65 65 63 60 58 60 57 56 55 52 48 45 47 44 47 47 47 43 42 42 40 39 37 38
37 38 38 39 47 66 45 37 54 51 52 61 59 64 50 52 60 64 61 49 56 56 60 63 63 63 63 63 60 59 55 54 53 49 47 45 46 45 46 45 45 43 41 40 33 36 34
40 41 41 41 46 72 64 57 50 53 57 59 61 67 63 60 61 62 55 55 55 56 57 57 57 59 59 60 58 58 58 56 54 52 49 44 47 40 43 43 41 39 36 34 30 34 38
43 44 44 41 45 70 76 55 44 58 55 63 61 57 58 59 59 57 52 56 57 58 57 56 57 57 56 56 57 56 55 54 52 51 49 47 44 36 39 33 37 35 27 30 35 39 36
44 46 41 37 42 65 83 75 50 55 47 64 68 69 67 58 56 55 53 54 56 56 56 56 58 57 55 55 54 54 53 51 49 47 45 45 48 44 44 43 42 35 36 35 38 42 44
45 37 32 30 36 52 73 89 73 52 38 48 63 66 63 62 51 47 48 49 50 51 53 50 51 48 49 51 50 49 49 50 50 49 48 46 48 45 47 45 46 47 45 45 48 51 54
35 29 29 28 33 44 74 70 86 75 52 51 50 41 37 33 41 38 39 37 37 41 48 46 47 48 45 44 44 43 37 37 43 42 35 32 33 36 42 40 43 46 44 41 44 49 50
29 28 30 28 29 48 60 58 64 68 68 50 60 39 48 49 44 35 39 39 36 38 39 42 42 36 35 36 39 38 43 46 49 50 49 44 42 44 43 44 47 43 43 42 46 46 49
27 23 15 19 31 64 58 56 59 65 78 57 58 49 41 41 35 38 45 44 43 42 42 38 40 40 41 45 46 46 48 50 48 49 46 43 41 41 41 44 45 47 42 40 43 39 44
19 14 8 14 34 63 54 56 34 44 54 53 45 50 48 44 39 35 41 44 42 36 35 41 41 37 36 31 34 36 38 38 40 40 38 38 39 44 42 46 49 38 40 39 43 45 40
21 10 7 13 39 56 46 47 38 43 54 55 53 38 36 41 38 32 37 38 39 29 29 37 36 36 36 37 37 36 35 36 36 34 34 37 41 45 45 46 45 36 37 43 41 29 32
25 14 19 26 41 47 46 44 43 38 37 41 41 37 30 33 42 44 41 38 35 34 31 31 31 32 34 37 38 37 38 38 37 33 34 36 32 33 33 36 36 31 30 31 25 27 30
26 19 28 34 50 36 33 36 36 36 40 38 39 40 36 32 37 44 47 49 46 39 34 31 28 28 32 32 28 28 30 35 35 35 36 38 33 29 36 31 30 37 22 21 24 30 29

GFSGBSN_500_spd_129.txt.gz
Wind_Speed
60 61 63 63 68 63 66 63 62 61 61 60 59 59 58 57 57 55 55 55 54 53 51 49 47 45 43 40 41 40 39 37 35 35 31 31 30 30 27 26 26 28 27 27 29 32 33
58 65 61 57 58 57 60 62 66 66 66 63 63 62 61 59 58 56 56 54 54 53 50 50 46 45 44 41 40 38 37 37 34 33 32 30 29 30 31 30 31 30 31 31 32 33 36
61 59 59 59 60 59 54 60 60 57 60 65 64 63 65 60 60 58 59 55 55 54 51 49 46 47 44 38 39 38 37 37 35 33 33 32 31 33 34 36 33 33 34 34 34 35 36
69 73 68 60 62 62 63 63 62 58 57 57 58 59 61 61 59 56 55 52 54 51 49 46 45 45 42 40 41 37 38 38 38 38 38 37 38 38 36 37 36 35 36 35 42 32 38
75 78 79 75 70 70 74 69 70 69 66 64 62 58 57 55 58 61 60 59 53 49 52 46 44 44 44 40 41 40 41 42 43 43 44 42 40 40 39 37 38 37 37 40 40 35 41
78 73 80 84 77 73 75 73 74 71 71 66 67 62 60 55 55 57 56 58 62 62 56 53 49 47 52 46 44 47 47 49 45 45 43 39 40 39 39 38 37 36 40 35 36 43 38
87 79 74 71 72 78 80 75 76 79 73 72 70 66 63 61 58 55 54 52 53 54 54 54 54 48 49 45 45 44 42 41 41 40 39 38 39 37 37 42 40 41 39 40 38 41 43
87 84 87 81 74 83 79 81 82 81 80 70 64 66 66 66 62 59 60 59 58 55 54 49 48 46 46 45 42 42 40 39 37 37 40 38 37 37 41 39 38 38 39 40 40 43 42
83 83 90 91 93 89 82 75 79 74 75 68 74 74 74 68 64 62 61 63 59 58 60 57 51 47 49 51 42 43 40 38 37 39 40 38 42 42 41 39 39 38 41 41 41 44 44
78 80 83 87 89 95 96 96 87 84 79 83 77 79 78 74 73 66 65 62 63 63 64 66 59 51 51 52 51 47 43 41 41 40 40 41 42 42 38 39 39 41 44 42 42 43 41
71 74 77 81 84 87 92 95 89 94 95 88 80 81 77 78 71 67 67 67 69 66 64 64 67 59 56 55 53 52 51 46 44 41 43 43 41 45 40 40 43 39 45 44 41 41 43
65 68 71 75 78 82 86 94 94 84 88 89 96 90 83 83 76 75 73 74 66 61 63 63 65 63 58 56 55 56 53 51 48 47 47 45 48 43 42 45 43 46 43 43 42 43 47
63 64 66 70 73 77 81 84 88 88 85 89 92 95 96 95 93 89 86 83 82 80 66 66 63 63 63 56 57 54 54 54 52 49 49 45 49 46 48 47 47 45 44 44 46 47 45
59 59 60 62 66 70 74 77 80 81 82 85 90 96 95 91 91 87 89 89 90 77 78 75 68 57 62 64 58 56 58 58 55 51 50 49 53 51 48 48 45 46 46 46 44 42 38
51 52 54 55 58 60 63 68 72 74 78 72 88 94 92 90 88 83 80 80 92 85 77 62 69 67 58 62 64 60 60 58 55 52 48 50 49 53 51 47 49 49 51 44 49 48 50
46 46 47 50 52 54 55 56 60 66 72 65 61 66 77 71 69 66 66 75 84 85 73 74 63 61 63 60 61 62 61 61 59 51 47 51 50 54 53 53 52 53 52 49 48 49 50
41 40 39 42 44 44 46 47 53 53 52 56 52 54 46 49 50 48 60 64 71 72 67 68 65 55 59 64 63 60 56 54 51 48 51 52 52 56 57 57 54 50 50 51 51 50 47
39 38 38 37 36 37 40 41 56 60 67 58 52 55 52 52 56 50 52 47 56 55 61 58 59 57 59 63 60 57 51 47 50 51 54 54 58 56 58 54 50 49 54 50 49 47 46
39 38 40 40 39 37 37 42 46 65 67 59 58 57 54 59 64 62 37 42 52 57 57 58 59 58 60 62 59 55 53 58 57 56 54 53 59 58 54 50 52 53 46 45 45 48 45
40 42 42 44 44 42 39 43 42 70 76 62 65 61 65 64 60 52 45 48 56 54 55 57 57 59 61 61 61 62 55 57 59 64 64 63 61 59 49 39 39 42 35 31 35 40 39
41 43 44 45 45 44 44 42 47 83 70 73 70 55 65 61 60 53 45 44 44 42 46 53 58 58 57 61 61 60 64 66 66 63 58 56 56 49 49 46 39 38 37 40 41 41 39
42 44 45 45 46 47 47 45 51 72 77 76 57 52 43 60 54 51 46 45 39 41 52 56 55 51 49 49 54 58 57 56 59 59 58 53 49 45 49 50 48 52 49 52 47 47 47
42 43 43 45 45 47 42 42 56 78 84 71 56 46 55 50 59 59 50 39 38 42 54 56 58 54 48 51 47 49 51 50 51 51 47 44 42 41 48 47 50 53 51 55 53 49 50
41 41 43 45 46 39 37 40 57 71 76 76 55 39 46 50 57 52 55 49 45 45 49 45 39 36 35 39 37 29 29 28 36 42 37 32 36 37 39 39 43 50 44 44 48 46 45
39 41 44 43 36 36 37 38 43 69 76 69 60 44 39 52 49 44 42 39 48 43 32 35 27 26 29 33 33 33 37 34 33 36 39 38 42 43 42 46 47 45 46 47 46 47 42
40 42 40 24 23 24 30 34 35 62 83 72 54 33 36 37 35 30 32 33 38 38 35 31 31 29 24 29 29 33 37 37 37 37 39 44 46 45 45 45 45 45 35 37 45 46 39
41 34 19 15 22 23 25 29 28 40 71 71 48 45 42 35 36 33 29 32 37 39 35 34 31 32 32 28 31 29 32 41 40 38 38 39 41 45 40 41 42 34 35 44 44 37 39
24 18 17 12 13 14 32 31 37 35 44 40 40 36 50 41 37 38 35 34 36 36 34 34 31 31 29 34 35 31 31 33 35 32 32 29 30 27 28 33 35 32 36 39 37 38 37
28 19 12 10 10 16 33 31 35 27 41 38 40 42 49 53 39 40 34 32 27 28 32 33 34 34 32 32 30 32 29 30 28 30 31 35 35 34 34 34 29 21 21 26 30 27 25